<?xml version="1.0" encoding="UTF-8" standalone="no" ?>
<gpx xmlns="http://www.topografix.com/GPX/1/1" xmlns:xsi="http://www.w3.org/2001/XMLSchema-instance" xsi:schemaLocation="http://www.topografix.com/GPX/1/1 http://www.topografix.com/GPX/1/1/gpx.xsd" version="1.1" creator="VisuGPX - https://www.visugpx.com">
  <metadata>
    <name>Petite sortie dominicale</name>
    <desc><![CDATA[Petite sortie dominicale avec les Miss]]></desc>
  </metadata>
  <trk>
    <name><![CDATA[Petite sortie dominicale_1]]></name>
    <trkseg>
      <trkpt lat="43.6307" lon="1.43655">
        <ele>140</ele>
        <time>2014-04-06T13:15:46.000Z</time>
      </trkpt>
      <trkpt lat="43.63068" lon="1.43669">
        <ele>140</ele>
        <time>2014-04-06T13:15:48.000Z</time>
      </trkpt>
      <trkpt lat="43.63071" lon="1.43674">
        <ele>140</ele>
        <time>2014-04-06T13:15:51.000Z</time>
      </trkpt>
      <trkpt lat="43.63077" lon="1.43676">
        <ele>140</ele>
        <time>2014-04-06T13:15:53.000Z</time>
      </trkpt>
      <trkpt lat="43.63082" lon="1.43677">
        <ele>140</ele>
        <time>2014-04-06T13:15:56.000Z</time>
      </trkpt>
      <trkpt lat="43.63087" lon="1.43676">
        <ele>140</ele>
        <time>2014-04-06T13:15:59.000Z</time>
      </trkpt>
      <trkpt lat="43.63091" lon="1.43676">
        <ele>140</ele>
        <time>2014-04-06T13:16:01.000Z</time>
      </trkpt>
      <trkpt lat="43.63096" lon="1.43677">
        <ele>140</ele>
        <time>2014-04-06T13:16:04.000Z</time>
      </trkpt>
      <trkpt lat="43.63101" lon="1.43678">
        <ele>140</ele>
        <time>2014-04-06T13:16:07.000Z</time>
      </trkpt>
      <trkpt lat="43.63105" lon="1.43681">
        <ele>140</ele>
        <time>2014-04-06T13:16:10.000Z</time>
      </trkpt>
      <trkpt lat="43.63108" lon="1.43684">
        <ele>140</ele>
        <time>2014-04-06T13:16:13.000Z</time>
      </trkpt>
      <trkpt lat="43.63113" lon="1.43687">
        <ele>140</ele>
        <time>2014-04-06T13:17:04.000Z</time>
      </trkpt>
      <trkpt lat="43.63115" lon="1.43687">
        <ele>140</ele>
        <time>2014-04-06T13:17:06.000Z</time>
      </trkpt>
      <trkpt lat="43.63122" lon="1.43692">
        <ele>140</ele>
        <time>2014-04-06T13:17:09.000Z</time>
      </trkpt>
      <trkpt lat="43.63125" lon="1.437">
        <ele>140</ele>
        <time>2014-04-06T13:17:12.000Z</time>
      </trkpt>
      <trkpt lat="43.63124" lon="1.43705">
        <ele>140</ele>
        <time>2014-04-06T13:17:14.000Z</time>
      </trkpt>
      <trkpt lat="43.63119" lon="1.43756">
        <ele>140</ele>
        <time>2014-04-06T13:17:29.000Z</time>
      </trkpt>
      <trkpt lat="43.63118" lon="1.43766">
        <ele>140</ele>
        <time>2014-04-06T13:17:32.000Z</time>
      </trkpt>
      <trkpt lat="43.63116" lon="1.43773">
        <ele>140</ele>
        <time>2014-04-06T13:17:34.000Z</time>
      </trkpt>
      <trkpt lat="43.63115" lon="1.43782">
        <ele>140</ele>
        <time>2014-04-06T13:17:37.000Z</time>
      </trkpt>
      <trkpt lat="43.63115" lon="1.43786">
        <ele>140</ele>
        <time>2014-04-06T13:17:40.000Z</time>
      </trkpt>
      <trkpt lat="43.63113" lon="1.4379">
        <ele>140</ele>
        <time>2014-04-06T13:17:42.000Z</time>
      </trkpt>
      <trkpt lat="43.63113" lon="1.43795">
        <ele>140</ele>
        <time>2014-04-06T13:17:45.000Z</time>
      </trkpt>
      <trkpt lat="43.63114" lon="1.43799">
        <ele>140</ele>
        <time>2014-04-06T13:17:47.000Z</time>
      </trkpt>
      <trkpt lat="43.63117" lon="1.4381">
        <ele>140</ele>
        <time>2014-04-06T13:17:50.000Z</time>
      </trkpt>
      <trkpt lat="43.63123" lon="1.43817">
        <ele>140</ele>
        <time>2014-04-06T13:17:53.000Z</time>
      </trkpt>
      <trkpt lat="43.63129" lon="1.43818">
        <ele>140</ele>
        <time>2014-04-06T13:17:55.000Z</time>
      </trkpt>
      <trkpt lat="43.63137" lon="1.43819">
        <ele>140</ele>
        <time>2014-04-06T13:17:58.000Z</time>
      </trkpt>
      <trkpt lat="43.63144" lon="1.4382">
        <ele>140</ele>
        <time>2014-04-06T13:18:00.000Z</time>
      </trkpt>
      <trkpt lat="43.63152" lon="1.43822">
        <ele>141</ele>
        <time>2014-04-06T13:18:02.000Z</time>
      </trkpt>
      <trkpt lat="43.63162" lon="1.43826">
        <ele>141</ele>
        <time>2014-04-06T13:18:05.000Z</time>
      </trkpt>
      <trkpt lat="43.63171" lon="1.43829">
        <ele>141</ele>
        <time>2014-04-06T13:18:08.000Z</time>
      </trkpt>
      <trkpt lat="43.63182" lon="1.43832">
        <ele>140</ele>
        <time>2014-04-06T13:18:11.000Z</time>
      </trkpt>
      <trkpt lat="43.63188" lon="1.43835">
        <ele>140</ele>
        <time>2014-04-06T13:18:13.000Z</time>
      </trkpt>
      <trkpt lat="43.63195" lon="1.43839">
        <ele>140</ele>
        <time>2014-04-06T13:18:15.000Z</time>
      </trkpt>
      <trkpt lat="43.63205" lon="1.43841">
        <ele>140</ele>
        <time>2014-04-06T13:18:18.000Z</time>
      </trkpt>
      <trkpt lat="43.63212" lon="1.43843">
        <ele>140</ele>
        <time>2014-04-06T13:18:20.000Z</time>
      </trkpt>
      <trkpt lat="43.63218" lon="1.43845">
        <ele>139</ele>
        <time>2014-04-06T13:18:22.000Z</time>
      </trkpt>
      <trkpt lat="43.63225" lon="1.43847">
        <ele>139</ele>
        <time>2014-04-06T13:18:24.000Z</time>
      </trkpt>
      <trkpt lat="43.63236" lon="1.4385">
        <ele>139</ele>
        <time>2014-04-06T13:18:27.000Z</time>
      </trkpt>
      <trkpt lat="43.63247" lon="1.43854">
        <ele>139</ele>
        <time>2014-04-06T13:18:30.000Z</time>
      </trkpt>
      <trkpt lat="43.63254" lon="1.43858">
        <ele>138</ele>
        <time>2014-04-06T13:18:32.000Z</time>
      </trkpt>
      <trkpt lat="43.63265" lon="1.4386">
        <ele>138</ele>
        <time>2014-04-06T13:18:35.000Z</time>
      </trkpt>
      <trkpt lat="43.63272" lon="1.43861">
        <ele>138</ele>
        <time>2014-04-06T13:18:37.000Z</time>
      </trkpt>
      <trkpt lat="43.63282" lon="1.43863">
        <ele>138</ele>
        <time>2014-04-06T13:18:40.000Z</time>
      </trkpt>
      <trkpt lat="43.63293" lon="1.43864">
        <ele>138</ele>
        <time>2014-04-06T13:18:43.000Z</time>
      </trkpt>
      <trkpt lat="43.63303" lon="1.43866">
        <ele>138</ele>
        <time>2014-04-06T13:18:46.000Z</time>
      </trkpt>
      <trkpt lat="43.63309" lon="1.43868">
        <ele>138</ele>
        <time>2014-04-06T13:18:48.000Z</time>
      </trkpt>
      <trkpt lat="43.63319" lon="1.43872">
        <ele>138</ele>
        <time>2014-04-06T13:18:51.000Z</time>
      </trkpt>
      <trkpt lat="43.63329" lon="1.43875">
        <ele>138</ele>
        <time>2014-04-06T13:18:54.000Z</time>
      </trkpt>
      <trkpt lat="43.63338" lon="1.43877">
        <ele>137</ele>
        <time>2014-04-06T13:18:57.000Z</time>
      </trkpt>
      <trkpt lat="43.63348" lon="1.43875">
        <ele>137</ele>
        <time>2014-04-06T13:19:00.000Z</time>
      </trkpt>
      <trkpt lat="43.63358" lon="1.43874">
        <ele>137</ele>
        <time>2014-04-06T13:19:03.000Z</time>
      </trkpt>
      <trkpt lat="43.63366" lon="1.43871">
        <ele>137</ele>
        <time>2014-04-06T13:19:06.000Z</time>
      </trkpt>
      <trkpt lat="43.63374" lon="1.43866">
        <ele>137</ele>
        <time>2014-04-06T13:19:09.000Z</time>
      </trkpt>
      <trkpt lat="43.63381" lon="1.43861">
        <ele>137</ele>
        <time>2014-04-06T13:19:12.000Z</time>
      </trkpt>
      <trkpt lat="43.63388" lon="1.43852">
        <ele>137</ele>
        <time>2014-04-06T13:19:15.000Z</time>
      </trkpt>
      <trkpt lat="43.63393" lon="1.43843">
        <ele>137</ele>
        <time>2014-04-06T13:19:17.000Z</time>
      </trkpt>
      <trkpt lat="43.63397" lon="1.43827">
        <ele>137</ele>
        <time>2014-04-06T13:19:20.000Z</time>
      </trkpt>
      <trkpt lat="43.63397" lon="1.43817">
        <ele>137</ele>
        <time>2014-04-06T13:19:22.000Z</time>
      </trkpt>
      <trkpt lat="43.63396" lon="1.43807">
        <ele>137</ele>
        <time>2014-04-06T13:19:24.000Z</time>
      </trkpt>
      <trkpt lat="43.63395" lon="1.43791">
        <ele>137</ele>
        <time>2014-04-06T13:19:27.000Z</time>
      </trkpt>
      <trkpt lat="43.63397" lon="1.43778">
        <ele>137</ele>
        <time>2014-04-06T13:19:30.000Z</time>
      </trkpt>
      <trkpt lat="43.63402" lon="1.43775">
        <ele>137</ele>
        <time>2014-04-06T13:19:32.000Z</time>
      </trkpt>
      <trkpt lat="43.63411" lon="1.43777">
        <ele>137</ele>
        <time>2014-04-06T13:19:35.000Z</time>
      </trkpt>
      <trkpt lat="43.63416" lon="1.43778">
        <ele>137</ele>
        <time>2014-04-06T13:19:37.000Z</time>
      </trkpt>
      <trkpt lat="43.63422" lon="1.43779">
        <ele>137</ele>
        <time>2014-04-06T13:19:39.000Z</time>
      </trkpt>
      <trkpt lat="43.63428" lon="1.43779">
        <ele>137</ele>
        <time>2014-04-06T13:19:41.000Z</time>
      </trkpt>
      <trkpt lat="43.63437" lon="1.43779">
        <ele>137</ele>
        <time>2014-04-06T13:19:44.000Z</time>
      </trkpt>
      <trkpt lat="43.63446" lon="1.43777">
        <ele>137</ele>
        <time>2014-04-06T13:19:47.000Z</time>
      </trkpt>
      <trkpt lat="43.63454" lon="1.43777">
        <ele>137</ele>
        <time>2014-04-06T13:19:50.000Z</time>
      </trkpt>
      <trkpt lat="43.6346" lon="1.43779">
        <ele>137</ele>
        <time>2014-04-06T13:19:52.000Z</time>
      </trkpt>
      <trkpt lat="43.63468" lon="1.43783">
        <ele>137</ele>
        <time>2014-04-06T13:19:55.000Z</time>
      </trkpt>
      <trkpt lat="43.63475" lon="1.4379">
        <ele>137</ele>
        <time>2014-04-06T13:19:58.000Z</time>
      </trkpt>
      <trkpt lat="43.63481" lon="1.43794">
        <ele>137</ele>
        <time>2014-04-06T13:20:00.000Z</time>
      </trkpt>
      <trkpt lat="43.63491" lon="1.43797">
        <ele>137</ele>
        <time>2014-04-06T13:20:03.000Z</time>
      </trkpt>
      <trkpt lat="43.63496" lon="1.43798">
        <ele>137</ele>
        <time>2014-04-06T13:20:05.000Z</time>
      </trkpt>
      <trkpt lat="43.63504" lon="1.43799">
        <ele>137</ele>
        <time>2014-04-06T13:20:08.000Z</time>
      </trkpt>
      <trkpt lat="43.63512" lon="1.43801">
        <ele>137</ele>
        <time>2014-04-06T13:20:11.000Z</time>
      </trkpt>
      <trkpt lat="43.63515" lon="1.43802">
        <ele>137</ele>
        <time>2014-04-06T13:20:13.000Z</time>
      </trkpt>
      <trkpt lat="43.6352" lon="1.43802">
        <ele>137</ele>
        <time>2014-04-06T13:20:15.000Z</time>
      </trkpt>
      <trkpt lat="43.63525" lon="1.43799">
        <ele>137</ele>
        <time>2014-04-06T13:20:18.000Z</time>
      </trkpt>
      <trkpt lat="43.63532" lon="1.43795">
        <ele>137</ele>
        <time>2014-04-06T13:20:21.000Z</time>
      </trkpt>
      <trkpt lat="43.63536" lon="1.43793">
        <ele>137</ele>
        <time>2014-04-06T13:20:23.000Z</time>
      </trkpt>
      <trkpt lat="43.63544" lon="1.43789">
        <ele>136</ele>
        <time>2014-04-06T13:20:26.000Z</time>
      </trkpt>
      <trkpt lat="43.63549" lon="1.43786">
        <ele>136</ele>
        <time>2014-04-06T13:20:28.000Z</time>
      </trkpt>
      <trkpt lat="43.63557" lon="1.43784">
        <ele>136</ele>
        <time>2014-04-06T13:20:31.000Z</time>
      </trkpt>
      <trkpt lat="43.63566" lon="1.43781">
        <ele>136</ele>
        <time>2014-04-06T13:20:34.000Z</time>
      </trkpt>
      <trkpt lat="43.63572" lon="1.4378">
        <ele>136</ele>
        <time>2014-04-06T13:20:36.000Z</time>
      </trkpt>
      <trkpt lat="43.63581" lon="1.43778">
        <ele>136</ele>
        <time>2014-04-06T13:20:39.000Z</time>
      </trkpt>
      <trkpt lat="43.63587" lon="1.43777">
        <ele>136</ele>
        <time>2014-04-06T13:20:41.000Z</time>
      </trkpt>
      <trkpt lat="43.63596" lon="1.43776">
        <ele>136</ele>
        <time>2014-04-06T13:20:44.000Z</time>
      </trkpt>
      <trkpt lat="43.63605" lon="1.43771">
        <ele>136</ele>
        <time>2014-04-06T13:20:47.000Z</time>
      </trkpt>
      <trkpt lat="43.6361" lon="1.43765">
        <ele>136</ele>
        <time>2014-04-06T13:20:49.000Z</time>
      </trkpt>
      <trkpt lat="43.63614" lon="1.43758">
        <ele>136</ele>
        <time>2014-04-06T13:20:51.000Z</time>
      </trkpt>
      <trkpt lat="43.63617" lon="1.43745">
        <ele>137</ele>
        <time>2014-04-06T13:20:54.000Z</time>
      </trkpt>
      <trkpt lat="43.63618" lon="1.43732">
        <ele>137</ele>
        <time>2014-04-06T13:20:57.000Z</time>
      </trkpt>
      <trkpt lat="43.63619" lon="1.43724">
        <ele>137</ele>
        <time>2014-04-06T13:20:59.000Z</time>
      </trkpt>
      <trkpt lat="43.6362" lon="1.43712">
        <ele>137</ele>
        <time>2014-04-06T13:21:02.000Z</time>
      </trkpt>
      <trkpt lat="43.63621" lon="1.43704">
        <ele>137</ele>
        <time>2014-04-06T13:21:04.000Z</time>
      </trkpt>
      <trkpt lat="43.63622" lon="1.43692">
        <ele>137</ele>
        <time>2014-04-06T13:21:07.000Z</time>
      </trkpt>
      <trkpt lat="43.63623" lon="1.43684">
        <ele>137</ele>
        <time>2014-04-06T13:21:09.000Z</time>
      </trkpt>
      <trkpt lat="43.63625" lon="1.43673">
        <ele>138</ele>
        <time>2014-04-06T13:21:12.000Z</time>
      </trkpt>
      <trkpt lat="43.63626" lon="1.43666">
        <ele>138</ele>
        <time>2014-04-06T13:21:14.000Z</time>
      </trkpt>
      <trkpt lat="43.63626" lon="1.43655">
        <ele>138</ele>
        <time>2014-04-06T13:21:17.000Z</time>
      </trkpt>
      <trkpt lat="43.63628" lon="1.43644">
        <ele>138</ele>
        <time>2014-04-06T13:21:20.000Z</time>
      </trkpt>
      <trkpt lat="43.63629" lon="1.43632">
        <ele>138</ele>
        <time>2014-04-06T13:21:23.000Z</time>
      </trkpt>
      <trkpt lat="43.63629" lon="1.43624">
        <ele>138</ele>
        <time>2014-04-06T13:21:25.000Z</time>
      </trkpt>
      <trkpt lat="43.63629" lon="1.43612">
        <ele>138</ele>
        <time>2014-04-06T13:21:28.000Z</time>
      </trkpt>
      <trkpt lat="43.6363" lon="1.43604">
        <ele>138</ele>
        <time>2014-04-06T13:21:30.000Z</time>
      </trkpt>
      <trkpt lat="43.63631" lon="1.43591">
        <ele>138</ele>
        <time>2014-04-06T13:21:33.000Z</time>
      </trkpt>
      <trkpt lat="43.63631" lon="1.43581">
        <ele>138</ele>
        <time>2014-04-06T13:21:35.000Z</time>
      </trkpt>
      <trkpt lat="43.63632" lon="1.43567">
        <ele>138</ele>
        <time>2014-04-06T13:21:38.000Z</time>
      </trkpt>
      <trkpt lat="43.63633" lon="1.43559">
        <ele>138</ele>
        <time>2014-04-06T13:21:40.000Z</time>
      </trkpt>
      <trkpt lat="43.63634" lon="1.43546">
        <ele>138</ele>
        <time>2014-04-06T13:21:43.000Z</time>
      </trkpt>
      <trkpt lat="43.63636" lon="1.43538">
        <ele>137</ele>
        <time>2014-04-06T13:21:45.000Z</time>
      </trkpt>
      <trkpt lat="43.63638" lon="1.43527">
        <ele>137</ele>
        <time>2014-04-06T13:21:48.000Z</time>
      </trkpt>
      <trkpt lat="43.63641" lon="1.43516">
        <ele>137</ele>
        <time>2014-04-06T13:21:51.000Z</time>
      </trkpt>
      <trkpt lat="43.63644" lon="1.43505">
        <ele>137</ele>
        <time>2014-04-06T13:21:54.000Z</time>
      </trkpt>
      <trkpt lat="43.63647" lon="1.43494">
        <ele>137</ele>
        <time>2014-04-06T13:21:57.000Z</time>
      </trkpt>
      <trkpt lat="43.6365" lon="1.43482">
        <ele>137</ele>
        <time>2014-04-06T13:22:00.000Z</time>
      </trkpt>
      <trkpt lat="43.63651" lon="1.43474">
        <ele>138</ele>
        <time>2014-04-06T13:22:02.000Z</time>
      </trkpt>
      <trkpt lat="43.6365" lon="1.43461">
        <ele>138</ele>
        <time>2014-04-06T13:22:05.000Z</time>
      </trkpt>
      <trkpt lat="43.6365" lon="1.43453">
        <ele>138</ele>
        <time>2014-04-06T13:22:07.000Z</time>
      </trkpt>
      <trkpt lat="43.6365" lon="1.4344">
        <ele>138</ele>
        <time>2014-04-06T13:22:10.000Z</time>
      </trkpt>
      <trkpt lat="43.63651" lon="1.43432">
        <ele>138</ele>
        <time>2014-04-06T13:22:12.000Z</time>
      </trkpt>
      <trkpt lat="43.63652" lon="1.43421">
        <ele>138</ele>
        <time>2014-04-06T13:22:15.000Z</time>
      </trkpt>
      <trkpt lat="43.63655" lon="1.43414">
        <ele>138</ele>
        <time>2014-04-06T13:22:17.000Z</time>
      </trkpt>
      <trkpt lat="43.6366" lon="1.43406">
        <ele>138</ele>
        <time>2014-04-06T13:22:20.000Z</time>
      </trkpt>
      <trkpt lat="43.63662" lon="1.43399">
        <ele>138</ele>
        <time>2014-04-06T13:22:22.000Z</time>
      </trkpt>
      <trkpt lat="43.63663" lon="1.43391">
        <ele>139</ele>
        <time>2014-04-06T13:22:24.000Z</time>
      </trkpt>
      <trkpt lat="43.63667" lon="1.43381">
        <ele>138</ele>
        <time>2014-04-06T13:22:27.000Z</time>
      </trkpt>
      <trkpt lat="43.63669" lon="1.43375">
        <ele>138</ele>
        <time>2014-04-06T13:22:29.000Z</time>
      </trkpt>
      <trkpt lat="43.63671" lon="1.43367">
        <ele>139</ele>
        <time>2014-04-06T13:22:32.000Z</time>
      </trkpt>
      <trkpt lat="43.63669" lon="1.43362">
        <ele>139</ele>
        <time>2014-04-06T13:22:34.000Z</time>
      </trkpt>
      <trkpt lat="43.63665" lon="1.43355">
        <ele>139</ele>
        <time>2014-04-06T13:22:37.000Z</time>
      </trkpt>
      <trkpt lat="43.63663" lon="1.43351">
        <ele>139</ele>
        <time>2014-04-06T13:22:39.000Z</time>
      </trkpt>
      <trkpt lat="43.63662" lon="1.4335">
        <ele>139</ele>
        <time>2014-04-06T13:22:41.000Z</time>
      </trkpt>
      <trkpt lat="43.63662" lon="1.4335">
        <ele>139</ele>
        <time>2014-04-06T13:23:01.000Z</time>
      </trkpt>
      <trkpt lat="43.63659" lon="1.4335">
        <ele>139</ele>
        <time>2014-04-06T13:23:05.000Z</time>
      </trkpt>
      <trkpt lat="43.63659" lon="1.43347">
        <ele>139</ele>
        <time>2014-04-06T13:23:08.000Z</time>
      </trkpt>
      <trkpt lat="43.63657" lon="1.4334">
        <ele>139</ele>
        <time>2014-04-06T13:23:10.000Z</time>
      </trkpt>
      <trkpt lat="43.63655" lon="1.43329">
        <ele>139</ele>
        <time>2014-04-06T13:23:13.000Z</time>
      </trkpt>
      <trkpt lat="43.63651" lon="1.43316">
        <ele>139</ele>
        <time>2014-04-06T13:23:16.000Z</time>
      </trkpt>
      <trkpt lat="43.63648" lon="1.43302">
        <ele>139</ele>
        <time>2014-04-06T13:23:19.000Z</time>
      </trkpt>
      <trkpt lat="43.63647" lon="1.43288">
        <ele>138</ele>
        <time>2014-04-06T13:23:22.000Z</time>
      </trkpt>
      <trkpt lat="43.63647" lon="1.43279">
        <ele>138</ele>
        <time>2014-04-06T13:23:24.000Z</time>
      </trkpt>
      <trkpt lat="43.63644" lon="1.43264">
        <ele>138</ele>
        <time>2014-04-06T13:23:27.000Z</time>
      </trkpt>
      <trkpt lat="43.63643" lon="1.43249">
        <ele>138</ele>
        <time>2014-04-06T13:23:30.000Z</time>
      </trkpt>
      <trkpt lat="43.63643" lon="1.4324">
        <ele>138</ele>
        <time>2014-04-06T13:23:32.000Z</time>
      </trkpt>
      <trkpt lat="43.63643" lon="1.43229">
        <ele>138</ele>
        <time>2014-04-06T13:23:34.000Z</time>
      </trkpt>
      <trkpt lat="43.63642" lon="1.43219">
        <ele>138</ele>
        <time>2014-04-06T13:23:36.000Z</time>
      </trkpt>
      <trkpt lat="43.63643" lon="1.43203">
        <ele>138</ele>
        <time>2014-04-06T13:23:39.000Z</time>
      </trkpt>
      <trkpt lat="43.63644" lon="1.4319">
        <ele>138</ele>
        <time>2014-04-06T13:23:42.000Z</time>
      </trkpt>
      <trkpt lat="43.63646" lon="1.43177">
        <ele>138</ele>
        <time>2014-04-06T13:23:45.000Z</time>
      </trkpt>
      <trkpt lat="43.63645" lon="1.43169">
        <ele>138</ele>
        <time>2014-04-06T13:23:47.000Z</time>
      </trkpt>
      <trkpt lat="43.63635" lon="1.43162">
        <ele>139</ele>
        <time>2014-04-06T13:23:50.000Z</time>
      </trkpt>
      <trkpt lat="43.63627" lon="1.43163">
        <ele>139</ele>
        <time>2014-04-06T13:23:52.000Z</time>
      </trkpt>
      <trkpt lat="43.63616" lon="1.43166">
        <ele>139</ele>
        <time>2014-04-06T13:23:55.000Z</time>
      </trkpt>
      <trkpt lat="43.63607" lon="1.43169">
        <ele>139</ele>
        <time>2014-04-06T13:23:58.000Z</time>
      </trkpt>
      <trkpt lat="43.63597" lon="1.43169">
        <ele>139</ele>
        <time>2014-04-06T13:24:01.000Z</time>
      </trkpt>
      <trkpt lat="43.6359" lon="1.43158">
        <ele>139</ele>
        <time>2014-04-06T13:24:04.000Z</time>
      </trkpt>
      <trkpt lat="43.63589" lon="1.43149">
        <ele>139</ele>
        <time>2014-04-06T13:24:06.000Z</time>
      </trkpt>
      <trkpt lat="43.63589" lon="1.43139">
        <ele>139</ele>
        <time>2014-04-06T13:24:08.000Z</time>
      </trkpt>
      <trkpt lat="43.63588" lon="1.43123">
        <ele>139</ele>
        <time>2014-04-06T13:24:11.000Z</time>
      </trkpt>
      <trkpt lat="43.63588" lon="1.43107">
        <ele>139</ele>
        <time>2014-04-06T13:24:14.000Z</time>
      </trkpt>
      <trkpt lat="43.63588" lon="1.43097">
        <ele>139</ele>
        <time>2014-04-06T13:24:16.000Z</time>
      </trkpt>
      <trkpt lat="43.63586" lon="1.43084">
        <ele>139</ele>
        <time>2014-04-06T13:24:19.000Z</time>
      </trkpt>
      <trkpt lat="43.63586" lon="1.43077">
        <ele>139</ele>
        <time>2014-04-06T13:24:21.000Z</time>
      </trkpt>
      <trkpt lat="43.63585" lon="1.43072">
        <ele>139</ele>
        <time>2014-04-06T13:24:24.000Z</time>
      </trkpt>
      <trkpt lat="43.63585" lon="1.4307">
        <ele>139</ele>
        <time>2014-04-06T13:24:26.000Z</time>
      </trkpt>
      <trkpt lat="43.6358" lon="1.4307">
        <ele>139</ele>
        <time>2014-04-06T13:24:29.000Z</time>
      </trkpt>
      <trkpt lat="43.63576" lon="1.43072">
        <ele>139</ele>
        <time>2014-04-06T13:24:31.000Z</time>
      </trkpt>
      <trkpt lat="43.63571" lon="1.43073">
        <ele>139</ele>
        <time>2014-04-06T13:24:33.000Z</time>
      </trkpt>
      <trkpt lat="43.63565" lon="1.43074">
        <ele>139</ele>
        <time>2014-04-06T13:24:36.000Z</time>
      </trkpt>
      <trkpt lat="43.63561" lon="1.43076">
        <ele>139</ele>
        <time>2014-04-06T13:24:38.000Z</time>
      </trkpt>
      <trkpt lat="43.63556" lon="1.43077">
        <ele>139</ele>
        <time>2014-04-06T13:24:41.000Z</time>
      </trkpt>
      <trkpt lat="43.63551" lon="1.43075">
        <ele>139</ele>
        <time>2014-04-06T13:24:44.000Z</time>
      </trkpt>
      <trkpt lat="43.63549" lon="1.43073">
        <ele>139</ele>
        <time>2014-04-06T13:24:46.000Z</time>
      </trkpt>
      <trkpt lat="43.63547" lon="1.43069">
        <ele>139</ele>
        <time>2014-04-06T13:24:49.000Z</time>
      </trkpt>
      <trkpt lat="43.63545" lon="1.43067">
        <ele>139</ele>
        <time>2014-04-06T13:24:51.000Z</time>
      </trkpt>
      <trkpt lat="43.6354" lon="1.43066">
        <ele>139</ele>
        <time>2014-04-06T13:24:54.000Z</time>
      </trkpt>
      <trkpt lat="43.63535" lon="1.43067">
        <ele>139</ele>
        <time>2014-04-06T13:24:56.000Z</time>
      </trkpt>
      <trkpt lat="43.63528" lon="1.4307">
        <ele>139</ele>
        <time>2014-04-06T13:24:59.000Z</time>
      </trkpt>
      <trkpt lat="43.63523" lon="1.43072">
        <ele>139</ele>
        <time>2014-04-06T13:25:01.000Z</time>
      </trkpt>
      <trkpt lat="43.63515" lon="1.43072">
        <ele>139</ele>
        <time>2014-04-06T13:25:04.000Z</time>
      </trkpt>
      <trkpt lat="43.63509" lon="1.43069">
        <ele>139</ele>
        <time>2014-04-06T13:25:07.000Z</time>
      </trkpt>
      <trkpt lat="43.63507" lon="1.43065">
        <ele>139</ele>
        <time>2014-04-06T13:25:09.000Z</time>
      </trkpt>
      <trkpt lat="43.63505" lon="1.4306">
        <ele>139</ele>
        <time>2014-04-06T13:25:11.000Z</time>
      </trkpt>
      <trkpt lat="43.63503" lon="1.43053">
        <ele>139</ele>
        <time>2014-04-06T13:25:14.000Z</time>
      </trkpt>
      <trkpt lat="43.63501" lon="1.43049">
        <ele>139</ele>
        <time>2014-04-06T13:25:17.000Z</time>
      </trkpt>
      <trkpt lat="43.63499" lon="1.43043">
        <ele>140</ele>
        <time>2014-04-06T13:25:19.000Z</time>
      </trkpt>
      <trkpt lat="43.63496" lon="1.43031">
        <ele>140</ele>
        <time>2014-04-06T13:25:22.000Z</time>
      </trkpt>
      <trkpt lat="43.63494" lon="1.43023">
        <ele>140</ele>
        <time>2014-04-06T13:25:24.000Z</time>
      </trkpt>
      <trkpt lat="43.63492" lon="1.43013">
        <ele>140</ele>
        <time>2014-04-06T13:25:27.000Z</time>
      </trkpt>
      <trkpt lat="43.63494" lon="1.43008">
        <ele>140</ele>
        <time>2014-04-06T13:25:29.000Z</time>
      </trkpt>
      <trkpt lat="43.635" lon="1.43003">
        <ele>140</ele>
        <time>2014-04-06T13:25:32.000Z</time>
      </trkpt>
      <trkpt lat="43.63508" lon="1.42999">
        <ele>140</ele>
        <time>2014-04-06T13:25:35.000Z</time>
      </trkpt>
      <trkpt lat="43.63514" lon="1.42997">
        <ele>139</ele>
        <time>2014-04-06T13:25:37.000Z</time>
      </trkpt>
      <trkpt lat="43.6352" lon="1.42994">
        <ele>139</ele>
        <time>2014-04-06T13:25:39.000Z</time>
      </trkpt>
      <trkpt lat="43.6353" lon="1.42987">
        <ele>139</ele>
        <time>2014-04-06T13:25:42.000Z</time>
      </trkpt>
      <trkpt lat="43.63536" lon="1.42981">
        <ele>139</ele>
        <time>2014-04-06T13:25:44.000Z</time>
      </trkpt>
      <trkpt lat="43.63544" lon="1.42975">
        <ele>138</ele>
        <time>2014-04-06T13:25:47.000Z</time>
      </trkpt>
      <trkpt lat="43.63549" lon="1.42971">
        <ele>138</ele>
        <time>2014-04-06T13:25:49.000Z</time>
      </trkpt>
      <trkpt lat="43.63554" lon="1.42968">
        <ele>138</ele>
        <time>2014-04-06T13:25:51.000Z</time>
      </trkpt>
      <trkpt lat="43.63558" lon="1.42967">
        <ele>138</ele>
        <time>2014-04-06T13:25:53.000Z</time>
      </trkpt>
      <trkpt lat="43.63562" lon="1.42966">
        <ele>138</ele>
        <time>2014-04-06T13:25:55.000Z</time>
      </trkpt>
      <trkpt lat="43.63568" lon="1.42965">
        <ele>138</ele>
        <time>2014-04-06T13:25:58.000Z</time>
      </trkpt>
      <trkpt lat="43.63573" lon="1.42963">
        <ele>138</ele>
        <time>2014-04-06T13:26:00.000Z</time>
      </trkpt>
      <trkpt lat="43.63582" lon="1.42959">
        <ele>138</ele>
        <time>2014-04-06T13:26:03.000Z</time>
      </trkpt>
      <trkpt lat="43.6359" lon="1.42954">
        <ele>138</ele>
        <time>2014-04-06T13:26:06.000Z</time>
      </trkpt>
      <trkpt lat="43.63594" lon="1.42949">
        <ele>138</ele>
        <time>2014-04-06T13:26:08.000Z</time>
      </trkpt>
      <trkpt lat="43.63596" lon="1.42935">
        <ele>137</ele>
        <time>2014-04-06T13:26:11.000Z</time>
      </trkpt>
      <trkpt lat="43.63596" lon="1.42926">
        <ele>137</ele>
        <time>2014-04-06T13:26:13.000Z</time>
      </trkpt>
      <trkpt lat="43.63593" lon="1.42908">
        <ele>136</ele>
        <time>2014-04-06T13:26:16.000Z</time>
      </trkpt>
      <trkpt lat="43.63591" lon="1.42897">
        <ele>136</ele>
        <time>2014-04-06T13:26:18.000Z</time>
      </trkpt>
      <trkpt lat="43.63587" lon="1.42883">
        <ele>136</ele>
        <time>2014-04-06T13:26:21.000Z</time>
      </trkpt>
      <trkpt lat="43.63582" lon="1.42865">
        <ele>136</ele>
        <time>2014-04-06T13:26:24.000Z</time>
      </trkpt>
      <trkpt lat="43.63577" lon="1.42849">
        <ele>136</ele>
        <time>2014-04-06T13:26:27.000Z</time>
      </trkpt>
      <trkpt lat="43.63575" lon="1.42838">
        <ele>136</ele>
        <time>2014-04-06T13:26:29.000Z</time>
      </trkpt>
      <trkpt lat="43.63573" lon="1.42826">
        <ele>136</ele>
        <time>2014-04-06T13:26:32.000Z</time>
      </trkpt>
      <trkpt lat="43.63576" lon="1.42814">
        <ele>136</ele>
        <time>2014-04-06T13:26:35.000Z</time>
      </trkpt>
      <trkpt lat="43.63578" lon="1.42805">
        <ele>136</ele>
        <time>2014-04-06T13:26:38.000Z</time>
      </trkpt>
      <trkpt lat="43.63578" lon="1.42796">
        <ele>136</ele>
        <time>2014-04-06T13:26:41.000Z</time>
      </trkpt>
      <trkpt lat="43.63577" lon="1.4279">
        <ele>135</ele>
        <time>2014-04-06T13:26:43.000Z</time>
      </trkpt>
      <trkpt lat="43.63581" lon="1.42785">
        <ele>135</ele>
        <time>2014-04-06T13:26:46.000Z</time>
      </trkpt>
      <trkpt lat="43.63585" lon="1.42784">
        <ele>136</ele>
        <time>2014-04-06T13:26:48.000Z</time>
      </trkpt>
      <trkpt lat="43.63589" lon="1.4278">
        <ele>136</ele>
        <time>2014-04-06T13:26:50.000Z</time>
      </trkpt>
      <trkpt lat="43.63598" lon="1.42771">
        <ele>136</ele>
        <time>2014-04-06T13:26:53.000Z</time>
      </trkpt>
      <trkpt lat="43.63604" lon="1.42766">
        <ele>136</ele>
        <time>2014-04-06T13:26:55.000Z</time>
      </trkpt>
      <trkpt lat="43.63609" lon="1.42761">
        <ele>136</ele>
        <time>2014-04-06T13:26:57.000Z</time>
      </trkpt>
      <trkpt lat="43.63609" lon="1.42756">
        <ele>136</ele>
        <time>2014-04-06T13:26:59.000Z</time>
      </trkpt>
      <trkpt lat="43.63605" lon="1.4275">
        <ele>135</ele>
        <time>2014-04-06T13:27:02.000Z</time>
      </trkpt>
      <trkpt lat="43.63602" lon="1.42746">
        <ele>135</ele>
        <time>2014-04-06T13:27:04.000Z</time>
      </trkpt>
      <trkpt lat="43.63596" lon="1.42741">
        <ele>135</ele>
        <time>2014-04-06T13:27:06.000Z</time>
      </trkpt>
      <trkpt lat="43.63589" lon="1.42734">
        <ele>135</ele>
        <time>2014-04-06T13:27:09.000Z</time>
      </trkpt>
      <trkpt lat="43.63587" lon="1.42729">
        <ele>135</ele>
        <time>2014-04-06T13:27:11.000Z</time>
      </trkpt>
      <trkpt lat="43.63586" lon="1.42721">
        <ele>135</ele>
        <time>2014-04-06T13:27:14.000Z</time>
      </trkpt>
      <trkpt lat="43.63584" lon="1.42714">
        <ele>135</ele>
        <time>2014-04-06T13:27:16.000Z</time>
      </trkpt>
      <trkpt lat="43.63583" lon="1.42706">
        <ele>135</ele>
        <time>2014-04-06T13:27:19.000Z</time>
      </trkpt>
      <trkpt lat="43.63584" lon="1.42701">
        <ele>135</ele>
        <time>2014-04-06T13:27:21.000Z</time>
      </trkpt>
      <trkpt lat="43.63583" lon="1.42694">
        <ele>135</ele>
        <time>2014-04-06T13:27:23.000Z</time>
      </trkpt>
      <trkpt lat="43.63577" lon="1.42683">
        <ele>135</ele>
        <time>2014-04-06T13:27:26.000Z</time>
      </trkpt>
      <trkpt lat="43.63568" lon="1.42672">
        <ele>135</ele>
        <time>2014-04-06T13:27:29.000Z</time>
      </trkpt>
      <trkpt lat="43.63562" lon="1.42665">
        <ele>135</ele>
        <time>2014-04-06T13:27:31.000Z</time>
      </trkpt>
      <trkpt lat="43.63553" lon="1.42654">
        <ele>136</ele>
        <time>2014-04-06T13:27:34.000Z</time>
      </trkpt>
      <trkpt lat="43.63544" lon="1.42647">
        <ele>136</ele>
        <time>2014-04-06T13:27:37.000Z</time>
      </trkpt>
      <trkpt lat="43.63538" lon="1.42643">
        <ele>136</ele>
        <time>2014-04-06T13:27:39.000Z</time>
      </trkpt>
      <trkpt lat="43.63528" lon="1.42641">
        <ele>136</ele>
        <time>2014-04-06T13:27:42.000Z</time>
      </trkpt>
      <trkpt lat="43.63522" lon="1.42641">
        <ele>136</ele>
        <time>2014-04-06T13:27:44.000Z</time>
      </trkpt>
      <trkpt lat="43.63516" lon="1.4264">
        <ele>136</ele>
        <time>2014-04-06T13:27:46.000Z</time>
      </trkpt>
      <trkpt lat="43.63509" lon="1.42641">
        <ele>136</ele>
        <time>2014-04-06T13:27:49.000Z</time>
      </trkpt>
      <trkpt lat="43.63503" lon="1.42644">
        <ele>136</ele>
        <time>2014-04-06T13:27:51.000Z</time>
      </trkpt>
      <trkpt lat="43.63495" lon="1.42647">
        <ele>136</ele>
        <time>2014-04-06T13:27:54.000Z</time>
      </trkpt>
      <trkpt lat="43.63489" lon="1.4265">
        <ele>136</ele>
        <time>2014-04-06T13:27:56.000Z</time>
      </trkpt>
      <trkpt lat="43.6348" lon="1.42654">
        <ele>136</ele>
        <time>2014-04-06T13:27:59.000Z</time>
      </trkpt>
      <trkpt lat="43.63472" lon="1.42656">
        <ele>136</ele>
        <time>2014-04-06T13:28:01.000Z</time>
      </trkpt>
      <trkpt lat="43.63462" lon="1.4266">
        <ele>136</ele>
        <time>2014-04-06T13:28:04.000Z</time>
      </trkpt>
      <trkpt lat="43.63452" lon="1.42662">
        <ele>136</ele>
        <time>2014-04-06T13:28:07.000Z</time>
      </trkpt>
      <trkpt lat="43.63445" lon="1.42661">
        <ele>136</ele>
        <time>2014-04-06T13:28:09.000Z</time>
      </trkpt>
      <trkpt lat="43.63436" lon="1.42659">
        <ele>136</ele>
        <time>2014-04-06T13:28:12.000Z</time>
      </trkpt>
      <trkpt lat="43.6343" lon="1.42656">
        <ele>136</ele>
        <time>2014-04-06T13:28:14.000Z</time>
      </trkpt>
      <trkpt lat="43.6342" lon="1.42649">
        <ele>136</ele>
        <time>2014-04-06T13:28:17.000Z</time>
      </trkpt>
      <trkpt lat="43.63414" lon="1.42642">
        <ele>136</ele>
        <time>2014-04-06T13:28:19.000Z</time>
      </trkpt>
      <trkpt lat="43.63406" lon="1.42631">
        <ele>135</ele>
        <time>2014-04-06T13:28:22.000Z</time>
      </trkpt>
      <trkpt lat="43.63401" lon="1.42618">
        <ele>135</ele>
        <time>2014-04-06T13:28:25.000Z</time>
      </trkpt>
      <trkpt lat="43.63398" lon="1.42609">
        <ele>135</ele>
        <time>2014-04-06T13:28:27.000Z</time>
      </trkpt>
      <trkpt lat="43.63394" lon="1.42599">
        <ele>136</ele>
        <time>2014-04-06T13:28:29.000Z</time>
      </trkpt>
      <trkpt lat="43.63387" lon="1.42585">
        <ele>135</ele>
        <time>2014-04-06T13:28:32.000Z</time>
      </trkpt>
      <trkpt lat="43.63385" lon="1.42574">
        <ele>136</ele>
        <time>2014-04-06T13:28:35.000Z</time>
      </trkpt>
      <trkpt lat="43.63383" lon="1.42564">
        <ele>136</ele>
        <time>2014-04-06T13:28:38.000Z</time>
      </trkpt>
      <trkpt lat="43.63379" lon="1.42557">
        <ele>136</ele>
        <time>2014-04-06T13:28:40.000Z</time>
      </trkpt>
      <trkpt lat="43.63372" lon="1.42545">
        <ele>135</ele>
        <time>2014-04-06T13:28:43.000Z</time>
      </trkpt>
      <trkpt lat="43.63369" lon="1.42535">
        <ele>135</ele>
        <time>2014-04-06T13:28:45.000Z</time>
      </trkpt>
      <trkpt lat="43.63365" lon="1.42526">
        <ele>135</ele>
        <time>2014-04-06T13:28:47.000Z</time>
      </trkpt>
      <trkpt lat="43.63364" lon="1.42512">
        <ele>135</ele>
        <time>2014-04-06T13:28:50.000Z</time>
      </trkpt>
      <trkpt lat="43.63364" lon="1.42497">
        <ele>135</ele>
        <time>2014-04-06T13:28:53.000Z</time>
      </trkpt>
      <trkpt lat="43.63363" lon="1.42481">
        <ele>135</ele>
        <time>2014-04-06T13:28:56.000Z</time>
      </trkpt>
      <trkpt lat="43.63358" lon="1.42466">
        <ele>135</ele>
        <time>2014-04-06T13:28:59.000Z</time>
      </trkpt>
      <trkpt lat="43.63358" lon="1.42457">
        <ele>135</ele>
        <time>2014-04-06T13:29:01.000Z</time>
      </trkpt>
      <trkpt lat="43.63358" lon="1.42448">
        <ele>135</ele>
        <time>2014-04-06T13:29:03.000Z</time>
      </trkpt>
      <trkpt lat="43.63358" lon="1.42435">
        <ele>135</ele>
        <time>2014-04-06T13:29:06.000Z</time>
      </trkpt>
      <trkpt lat="43.63357" lon="1.42423">
        <ele>135</ele>
        <time>2014-04-06T13:29:09.000Z</time>
      </trkpt>
      <trkpt lat="43.63357" lon="1.42414">
        <ele>135</ele>
        <time>2014-04-06T13:29:11.000Z</time>
      </trkpt>
      <trkpt lat="43.63358" lon="1.42404">
        <ele>135</ele>
        <time>2014-04-06T13:29:13.000Z</time>
      </trkpt>
      <trkpt lat="43.63361" lon="1.42388">
        <ele>135</ele>
        <time>2014-04-06T13:29:16.000Z</time>
      </trkpt>
      <trkpt lat="43.63361" lon="1.42373">
        <ele>135</ele>
        <time>2014-04-06T13:29:19.000Z</time>
      </trkpt>
      <trkpt lat="43.63359" lon="1.42364">
        <ele>135</ele>
        <time>2014-04-06T13:29:21.000Z</time>
      </trkpt>
      <trkpt lat="43.63359" lon="1.42356">
        <ele>135</ele>
        <time>2014-04-06T13:29:23.000Z</time>
      </trkpt>
      <trkpt lat="43.6336" lon="1.42345">
        <ele>135</ele>
        <time>2014-04-06T13:29:26.000Z</time>
      </trkpt>
      <trkpt lat="43.63361" lon="1.42337">
        <ele>135</ele>
        <time>2014-04-06T13:29:28.000Z</time>
      </trkpt>
      <trkpt lat="43.63361" lon="1.42328">
        <ele>136</ele>
        <time>2014-04-06T13:29:31.000Z</time>
      </trkpt>
      <trkpt lat="43.63362" lon="1.42321">
        <ele>136</ele>
        <time>2014-04-06T13:29:34.000Z</time>
      </trkpt>
      <trkpt lat="43.63364" lon="1.42316">
        <ele>136</ele>
        <time>2014-04-06T13:29:36.000Z</time>
      </trkpt>
      <trkpt lat="43.63368" lon="1.4231">
        <ele>136</ele>
        <time>2014-04-06T13:29:39.000Z</time>
      </trkpt>
      <trkpt lat="43.63373" lon="1.42302">
        <ele>136</ele>
        <time>2014-04-06T13:29:42.000Z</time>
      </trkpt>
      <trkpt lat="43.63375" lon="1.42297">
        <ele>136</ele>
        <time>2014-04-06T13:29:44.000Z</time>
      </trkpt>
      <trkpt lat="43.63378" lon="1.42287">
        <ele>136</ele>
        <time>2014-04-06T13:29:47.000Z</time>
      </trkpt>
      <trkpt lat="43.63379" lon="1.4228">
        <ele>136</ele>
        <time>2014-04-06T13:29:49.000Z</time>
      </trkpt>
      <trkpt lat="43.6338" lon="1.42268">
        <ele>136</ele>
        <time>2014-04-06T13:29:52.000Z</time>
      </trkpt>
      <trkpt lat="43.63381" lon="1.42262">
        <ele>136</ele>
        <time>2014-04-06T13:29:54.000Z</time>
      </trkpt>
      <trkpt lat="43.63383" lon="1.42252">
        <ele>136</ele>
        <time>2014-04-06T13:29:57.000Z</time>
      </trkpt>
      <trkpt lat="43.63385" lon="1.42242">
        <ele>136</ele>
        <time>2014-04-06T13:30:00.000Z</time>
      </trkpt>
      <trkpt lat="43.63385" lon="1.42235">
        <ele>136</ele>
        <time>2014-04-06T13:30:02.000Z</time>
      </trkpt>
      <trkpt lat="43.63387" lon="1.42224">
        <ele>136</ele>
        <time>2014-04-06T13:30:05.000Z</time>
      </trkpt>
      <trkpt lat="43.63387" lon="1.42216">
        <ele>137</ele>
        <time>2014-04-06T13:30:07.000Z</time>
      </trkpt>
      <trkpt lat="43.63388" lon="1.42204">
        <ele>137</ele>
        <time>2014-04-06T13:30:10.000Z</time>
      </trkpt>
      <trkpt lat="43.63388" lon="1.4219">
        <ele>137</ele>
        <time>2014-04-06T13:30:13.000Z</time>
      </trkpt>
      <trkpt lat="43.63389" lon="1.42183">
        <ele>137</ele>
        <time>2014-04-06T13:30:15.000Z</time>
      </trkpt>
      <trkpt lat="43.63391" lon="1.42171">
        <ele>137</ele>
        <time>2014-04-06T13:30:18.000Z</time>
      </trkpt>
      <trkpt lat="43.63392" lon="1.4216">
        <ele>137</ele>
        <time>2014-04-06T13:30:21.000Z</time>
      </trkpt>
      <trkpt lat="43.63392" lon="1.42152">
        <ele>137</ele>
        <time>2014-04-06T13:30:23.000Z</time>
      </trkpt>
      <trkpt lat="43.63393" lon="1.42143">
        <ele>137</ele>
        <time>2014-04-06T13:30:25.000Z</time>
      </trkpt>
      <trkpt lat="43.63394" lon="1.42136">
        <ele>136</ele>
        <time>2014-04-06T13:30:27.000Z</time>
      </trkpt>
      <trkpt lat="43.63396" lon="1.42124">
        <ele>136</ele>
        <time>2014-04-06T13:30:30.000Z</time>
      </trkpt>
      <trkpt lat="43.63398" lon="1.42112">
        <ele>136</ele>
        <time>2014-04-06T13:30:33.000Z</time>
      </trkpt>
      <trkpt lat="43.63398" lon="1.42099">
        <ele>136</ele>
        <time>2014-04-06T13:30:36.000Z</time>
      </trkpt>
      <trkpt lat="43.63398" lon="1.42091">
        <ele>136</ele>
        <time>2014-04-06T13:30:38.000Z</time>
      </trkpt>
      <trkpt lat="43.63399" lon="1.42078">
        <ele>135</ele>
        <time>2014-04-06T13:30:41.000Z</time>
      </trkpt>
      <trkpt lat="43.634" lon="1.42066">
        <ele>135</ele>
        <time>2014-04-06T13:30:44.000Z</time>
      </trkpt>
      <trkpt lat="43.634" lon="1.42055">
        <ele>135</ele>
        <time>2014-04-06T13:30:47.000Z</time>
      </trkpt>
      <trkpt lat="43.634" lon="1.42047">
        <ele>135</ele>
        <time>2014-04-06T13:30:49.000Z</time>
      </trkpt>
      <trkpt lat="43.634" lon="1.42034">
        <ele>134</ele>
        <time>2014-04-06T13:30:52.000Z</time>
      </trkpt>
      <trkpt lat="43.63401" lon="1.42023">
        <ele>134</ele>
        <time>2014-04-06T13:30:55.000Z</time>
      </trkpt>
      <trkpt lat="43.63402" lon="1.42014">
        <ele>134</ele>
        <time>2014-04-06T13:30:57.000Z</time>
      </trkpt>
      <trkpt lat="43.63403" lon="1.42005">
        <ele>134</ele>
        <time>2014-04-06T13:30:59.000Z</time>
      </trkpt>
      <trkpt lat="43.63406" lon="1.41995">
        <ele>133</ele>
        <time>2014-04-06T13:31:01.000Z</time>
      </trkpt>
      <trkpt lat="43.63409" lon="1.41986">
        <ele>133</ele>
        <time>2014-04-06T13:31:03.000Z</time>
      </trkpt>
      <trkpt lat="43.63416" lon="1.41973">
        <ele>133</ele>
        <time>2014-04-06T13:31:06.000Z</time>
      </trkpt>
      <trkpt lat="43.63423" lon="1.41964">
        <ele>133</ele>
        <time>2014-04-06T13:31:09.000Z</time>
      </trkpt>
      <trkpt lat="43.63429" lon="1.41961">
        <ele>133</ele>
        <time>2014-04-06T13:31:11.000Z</time>
      </trkpt>
      <trkpt lat="43.63439" lon="1.41958">
        <ele>133</ele>
        <time>2014-04-06T13:31:14.000Z</time>
      </trkpt>
      <trkpt lat="43.63452" lon="1.41959">
        <ele>133</ele>
        <time>2014-04-06T13:31:17.000Z</time>
      </trkpt>
      <trkpt lat="43.63463" lon="1.4196">
        <ele>132</ele>
        <time>2014-04-06T13:31:19.000Z</time>
      </trkpt>
      <trkpt lat="43.63474" lon="1.41968">
        <ele>133</ele>
        <time>2014-04-06T13:31:22.000Z</time>
      </trkpt>
      <trkpt lat="43.63492" lon="1.41982">
        <ele>133</ele>
        <time>2014-04-06T13:31:25.000Z</time>
      </trkpt>
      <trkpt lat="43.63502" lon="1.41993">
        <ele>133</ele>
        <time>2014-04-06T13:31:27.000Z</time>
      </trkpt>
      <trkpt lat="43.63515" lon="1.42008">
        <ele>133</ele>
        <time>2014-04-06T13:31:30.000Z</time>
      </trkpt>
      <trkpt lat="43.63525" lon="1.4202">
        <ele>133</ele>
        <time>2014-04-06T13:31:33.000Z</time>
      </trkpt>
      <trkpt lat="43.63538" lon="1.42033">
        <ele>133</ele>
        <time>2014-04-06T13:31:36.000Z</time>
      </trkpt>
      <trkpt lat="43.63554" lon="1.42051">
        <ele>133</ele>
        <time>2014-04-06T13:31:39.000Z</time>
      </trkpt>
      <trkpt lat="43.63565" lon="1.42059">
        <ele>133</ele>
        <time>2014-04-06T13:31:42.000Z</time>
      </trkpt>
      <trkpt lat="43.63576" lon="1.42063">
        <ele>133</ele>
        <time>2014-04-06T13:31:44.000Z</time>
      </trkpt>
      <trkpt lat="43.63586" lon="1.42066">
        <ele>133</ele>
        <time>2014-04-06T13:31:47.000Z</time>
      </trkpt>
      <trkpt lat="43.63597" lon="1.42066">
        <ele>133</ele>
        <time>2014-04-06T13:31:50.000Z</time>
      </trkpt>
      <trkpt lat="43.63604" lon="1.42066">
        <ele>133</ele>
        <time>2014-04-06T13:31:52.000Z</time>
      </trkpt>
      <trkpt lat="43.63614" lon="1.42065">
        <ele>133</ele>
        <time>2014-04-06T13:31:55.000Z</time>
      </trkpt>
      <trkpt lat="43.63621" lon="1.42068">
        <ele>133</ele>
        <time>2014-04-06T13:31:57.000Z</time>
      </trkpt>
      <trkpt lat="43.63631" lon="1.42066">
        <ele>133</ele>
        <time>2014-04-06T13:32:00.000Z</time>
      </trkpt>
      <trkpt lat="43.6364" lon="1.42055">
        <ele>133</ele>
        <time>2014-04-06T13:32:03.000Z</time>
      </trkpt>
      <trkpt lat="43.63641" lon="1.42048">
        <ele>133</ele>
        <time>2014-04-06T13:32:05.000Z</time>
      </trkpt>
      <trkpt lat="43.6364" lon="1.42034">
        <ele>133</ele>
        <time>2014-04-06T13:32:10.000Z</time>
      </trkpt>
      <trkpt lat="43.63633" lon="1.42023">
        <ele>133</ele>
        <time>2014-04-06T13:32:13.000Z</time>
      </trkpt>
      <trkpt lat="43.63627" lon="1.4202">
        <ele>133</ele>
        <time>2014-04-06T13:32:15.000Z</time>
      </trkpt>
      <trkpt lat="43.63607" lon="1.42005">
        <ele>133</ele>
        <time>2014-04-06T13:32:19.000Z</time>
      </trkpt>
      <trkpt lat="43.63602" lon="1.41993">
        <ele>133</ele>
        <time>2014-04-06T13:32:22.000Z</time>
      </trkpt>
      <trkpt lat="43.636" lon="1.41985">
        <ele>133</ele>
        <time>2014-04-06T13:32:24.000Z</time>
      </trkpt>
      <trkpt lat="43.63597" lon="1.41978">
        <ele>133</ele>
        <time>2014-04-06T13:32:26.000Z</time>
      </trkpt>
      <trkpt lat="43.63595" lon="1.4197">
        <ele>133</ele>
        <time>2014-04-06T13:32:28.000Z</time>
      </trkpt>
      <trkpt lat="43.63592" lon="1.41962">
        <ele>133</ele>
        <time>2014-04-06T13:32:30.000Z</time>
      </trkpt>
      <trkpt lat="43.63587" lon="1.41947">
        <ele>133</ele>
        <time>2014-04-06T13:32:33.000Z</time>
      </trkpt>
      <trkpt lat="43.6359" lon="1.41928">
        <ele>133</ele>
        <time>2014-04-06T13:32:36.000Z</time>
      </trkpt>
      <trkpt lat="43.63585" lon="1.41912">
        <ele>133</ele>
        <time>2014-04-06T13:32:39.000Z</time>
      </trkpt>
      <trkpt lat="43.6358" lon="1.41902">
        <ele>132</ele>
        <time>2014-04-06T13:32:41.000Z</time>
      </trkpt>
      <trkpt lat="43.63574" lon="1.41885">
        <ele>132</ele>
        <time>2014-04-06T13:32:44.000Z</time>
      </trkpt>
      <trkpt lat="43.63567" lon="1.41869">
        <ele>132</ele>
        <time>2014-04-06T13:32:47.000Z</time>
      </trkpt>
      <trkpt lat="43.63564" lon="1.41857">
        <ele>132</ele>
        <time>2014-04-06T13:32:49.000Z</time>
      </trkpt>
      <trkpt lat="43.63557" lon="1.41839">
        <ele>132</ele>
        <time>2014-04-06T13:32:52.000Z</time>
      </trkpt>
      <trkpt lat="43.63552" lon="1.41821">
        <ele>131</ele>
        <time>2014-04-06T13:32:55.000Z</time>
      </trkpt>
      <trkpt lat="43.63549" lon="1.41809">
        <ele>131</ele>
        <time>2014-04-06T13:32:57.000Z</time>
      </trkpt>
      <trkpt lat="43.63546" lon="1.41792">
        <ele>131</ele>
        <time>2014-04-06T13:33:00.000Z</time>
      </trkpt>
      <trkpt lat="43.63544" lon="1.41777">
        <ele>131</ele>
        <time>2014-04-06T13:33:03.000Z</time>
      </trkpt>
      <trkpt lat="43.63545" lon="1.41767">
        <ele>131</ele>
        <time>2014-04-06T13:33:05.000Z</time>
      </trkpt>
      <trkpt lat="43.63547" lon="1.41759">
        <ele>131</ele>
        <time>2014-04-06T13:33:07.000Z</time>
      </trkpt>
      <trkpt lat="43.63548" lon="1.41751">
        <ele>131</ele>
        <time>2014-04-06T13:33:09.000Z</time>
      </trkpt>
      <trkpt lat="43.63543" lon="1.41741">
        <ele>131</ele>
        <time>2014-04-06T13:33:12.000Z</time>
      </trkpt>
      <trkpt lat="43.63535" lon="1.41735">
        <ele>131</ele>
        <time>2014-04-06T13:33:15.000Z</time>
      </trkpt>
      <trkpt lat="43.63529" lon="1.41734">
        <ele>131</ele>
        <time>2014-04-06T13:33:17.000Z</time>
      </trkpt>
      <trkpt lat="43.63523" lon="1.41733">
        <ele>131</ele>
        <time>2014-04-06T13:33:19.000Z</time>
      </trkpt>
      <trkpt lat="43.63512" lon="1.41732">
        <ele>131</ele>
        <time>2014-04-06T13:33:22.000Z</time>
      </trkpt>
      <trkpt lat="43.63504" lon="1.41724">
        <ele>131</ele>
        <time>2014-04-06T13:33:25.000Z</time>
      </trkpt>
      <trkpt lat="43.635" lon="1.41713">
        <ele>131</ele>
        <time>2014-04-06T13:33:27.000Z</time>
      </trkpt>
      <trkpt lat="43.63495" lon="1.41696">
        <ele>132</ele>
        <time>2014-04-06T13:33:30.000Z</time>
      </trkpt>
      <trkpt lat="43.63491" lon="1.41685">
        <ele>132</ele>
        <time>2014-04-06T13:33:32.000Z</time>
      </trkpt>
      <trkpt lat="43.63487" lon="1.41669">
        <ele>132</ele>
        <time>2014-04-06T13:33:35.000Z</time>
      </trkpt>
      <trkpt lat="43.63485" lon="1.41659">
        <ele>132</ele>
        <time>2014-04-06T13:33:37.000Z</time>
      </trkpt>
      <trkpt lat="43.6348" lon="1.41644">
        <ele>133</ele>
        <time>2014-04-06T13:33:40.000Z</time>
      </trkpt>
      <trkpt lat="43.63474" lon="1.4163">
        <ele>133</ele>
        <time>2014-04-06T13:33:43.000Z</time>
      </trkpt>
      <trkpt lat="43.63469" lon="1.41615">
        <ele>132</ele>
        <time>2014-04-06T13:33:46.000Z</time>
      </trkpt>
      <trkpt lat="43.63464" lon="1.41606">
        <ele>132</ele>
        <time>2014-04-06T13:33:48.000Z</time>
      </trkpt>
      <trkpt lat="43.63458" lon="1.41591">
        <ele>132</ele>
        <time>2014-04-06T13:33:51.000Z</time>
      </trkpt>
      <trkpt lat="43.63453" lon="1.41577">
        <ele>131</ele>
        <time>2014-04-06T13:33:54.000Z</time>
      </trkpt>
      <trkpt lat="43.63454" lon="1.41563">
        <ele>131</ele>
        <time>2014-04-06T13:33:56.000Z</time>
      </trkpt>
      <trkpt lat="43.6345" lon="1.41553">
        <ele>131</ele>
        <time>2014-04-06T13:33:58.000Z</time>
      </trkpt>
      <trkpt lat="43.63445" lon="1.41537">
        <ele>131</ele>
        <time>2014-04-06T13:34:01.000Z</time>
      </trkpt>
      <trkpt lat="43.63441" lon="1.41527">
        <ele>131</ele>
        <time>2014-04-06T13:34:03.000Z</time>
      </trkpt>
      <trkpt lat="43.63437" lon="1.41516">
        <ele>131</ele>
        <time>2014-04-06T13:34:05.000Z</time>
      </trkpt>
      <trkpt lat="43.63431" lon="1.41501">
        <ele>131</ele>
        <time>2014-04-06T13:34:08.000Z</time>
      </trkpt>
      <trkpt lat="43.63425" lon="1.41485">
        <ele>131</ele>
        <time>2014-04-06T13:34:11.000Z</time>
      </trkpt>
      <trkpt lat="43.63419" lon="1.4147">
        <ele>131</ele>
        <time>2014-04-06T13:34:14.000Z</time>
      </trkpt>
      <trkpt lat="43.63416" lon="1.41461">
        <ele>131</ele>
        <time>2014-04-06T13:34:16.000Z</time>
      </trkpt>
      <trkpt lat="43.6341" lon="1.41445">
        <ele>132</ele>
        <time>2014-04-06T13:34:19.000Z</time>
      </trkpt>
      <trkpt lat="43.63406" lon="1.41435">
        <ele>132</ele>
        <time>2014-04-06T13:34:21.000Z</time>
      </trkpt>
      <trkpt lat="43.63401" lon="1.41421">
        <ele>132</ele>
        <time>2014-04-06T13:34:24.000Z</time>
      </trkpt>
      <trkpt lat="43.63398" lon="1.41414">
        <ele>132</ele>
        <time>2014-04-06T13:34:26.000Z</time>
      </trkpt>
      <trkpt lat="43.63392" lon="1.41401">
        <ele>132</ele>
        <time>2014-04-06T13:34:29.000Z</time>
      </trkpt>
      <trkpt lat="43.63391" lon="1.41399">
        <ele>132</ele>
        <time>2014-04-06T13:34:32.000Z</time>
      </trkpt>
      <trkpt lat="43.63391" lon="1.41399">
        <ele>132</ele>
        <time>2014-04-06T13:34:52.000Z</time>
      </trkpt>
      <trkpt lat="43.63389" lon="1.41394">
        <ele>132</ele>
        <time>2014-04-06T13:37:37.000Z</time>
      </trkpt>
      <trkpt lat="43.63391" lon="1.41392">
        <ele>132</ele>
        <time>2014-04-06T13:37:39.000Z</time>
      </trkpt>
      <trkpt lat="43.63398" lon="1.41387">
        <ele>132</ele>
        <time>2014-04-06T13:37:42.000Z</time>
      </trkpt>
      <trkpt lat="43.63402" lon="1.41383">
        <ele>132</ele>
        <time>2014-04-06T13:37:44.000Z</time>
      </trkpt>
      <trkpt lat="43.63408" lon="1.41377">
        <ele>132</ele>
        <time>2014-04-06T13:37:47.000Z</time>
      </trkpt>
      <trkpt lat="43.63412" lon="1.41374">
        <ele>132</ele>
        <time>2014-04-06T13:37:49.000Z</time>
      </trkpt>
      <trkpt lat="43.63417" lon="1.41369">
        <ele>132</ele>
        <time>2014-04-06T13:37:52.000Z</time>
      </trkpt>
      <trkpt lat="43.63421" lon="1.41366">
        <ele>132</ele>
        <time>2014-04-06T13:37:54.000Z</time>
      </trkpt>
      <trkpt lat="43.63424" lon="1.41364">
        <ele>132</ele>
        <time>2014-04-06T13:37:56.000Z</time>
      </trkpt>
      <trkpt lat="43.63429" lon="1.41359">
        <ele>132</ele>
        <time>2014-04-06T13:37:59.000Z</time>
      </trkpt>
      <trkpt lat="43.63436" lon="1.41354">
        <ele>132</ele>
        <time>2014-04-06T13:38:02.000Z</time>
      </trkpt>
      <trkpt lat="43.6344" lon="1.4135">
        <ele>132</ele>
        <time>2014-04-06T13:38:04.000Z</time>
      </trkpt>
      <trkpt lat="43.63446" lon="1.41345">
        <ele>132</ele>
        <time>2014-04-06T13:38:07.000Z</time>
      </trkpt>
      <trkpt lat="43.63451" lon="1.41342">
        <ele>132</ele>
        <time>2014-04-06T13:38:09.000Z</time>
      </trkpt>
      <trkpt lat="43.63458" lon="1.41336">
        <ele>132</ele>
        <time>2014-04-06T13:38:12.000Z</time>
      </trkpt>
      <trkpt lat="43.63465" lon="1.4133">
        <ele>132</ele>
        <time>2014-04-06T13:38:15.000Z</time>
      </trkpt>
      <trkpt lat="43.63469" lon="1.41327">
        <ele>132</ele>
        <time>2014-04-06T13:38:17.000Z</time>
      </trkpt>
      <trkpt lat="43.63471" lon="1.41324">
        <ele>132</ele>
        <time>2014-04-06T13:38:20.000Z</time>
      </trkpt>
      <trkpt lat="43.63464" lon="1.41296">
        <ele>133</ele>
        <time>2014-04-06T13:38:24.000Z</time>
      </trkpt>
      <trkpt lat="43.63459" lon="1.41282">
        <ele>133</ele>
        <time>2014-04-06T13:38:27.000Z</time>
      </trkpt>
      <trkpt lat="43.63454" lon="1.41268">
        <ele>133</ele>
        <time>2014-04-06T13:38:30.000Z</time>
      </trkpt>
      <trkpt lat="43.63449" lon="1.41254">
        <ele>133</ele>
        <time>2014-04-06T13:38:33.000Z</time>
      </trkpt>
      <trkpt lat="43.63446" lon="1.41245">
        <ele>132</ele>
        <time>2014-04-06T13:38:35.000Z</time>
      </trkpt>
      <trkpt lat="43.63442" lon="1.41232">
        <ele>132</ele>
        <time>2014-04-06T13:38:38.000Z</time>
      </trkpt>
      <trkpt lat="43.63439" lon="1.41224">
        <ele>131</ele>
        <time>2014-04-06T13:38:40.000Z</time>
      </trkpt>
      <trkpt lat="43.63435" lon="1.41211">
        <ele>131</ele>
        <time>2014-04-06T13:38:43.000Z</time>
      </trkpt>
      <trkpt lat="43.63431" lon="1.41199">
        <ele>131</ele>
        <time>2014-04-06T13:38:46.000Z</time>
      </trkpt>
      <trkpt lat="43.63428" lon="1.4119">
        <ele>131</ele>
        <time>2014-04-06T13:38:48.000Z</time>
      </trkpt>
      <trkpt lat="43.63424" lon="1.41177">
        <ele>130</ele>
        <time>2014-04-06T13:38:51.000Z</time>
      </trkpt>
      <trkpt lat="43.6342" lon="1.41168">
        <ele>130</ele>
        <time>2014-04-06T13:38:53.000Z</time>
      </trkpt>
      <trkpt lat="43.63415" lon="1.41154">
        <ele>130</ele>
        <time>2014-04-06T13:38:56.000Z</time>
      </trkpt>
      <trkpt lat="43.6341" lon="1.41141">
        <ele>129</ele>
        <time>2014-04-06T13:38:59.000Z</time>
      </trkpt>
      <trkpt lat="43.63404" lon="1.41128">
        <ele>129</ele>
        <time>2014-04-06T13:39:02.000Z</time>
      </trkpt>
      <trkpt lat="43.63399" lon="1.41115">
        <ele>129</ele>
        <time>2014-04-06T13:39:05.000Z</time>
      </trkpt>
      <trkpt lat="43.63395" lon="1.41106">
        <ele>129</ele>
        <time>2014-04-06T13:39:07.000Z</time>
      </trkpt>
      <trkpt lat="43.6339" lon="1.41097">
        <ele>129</ele>
        <time>2014-04-06T13:39:09.000Z</time>
      </trkpt>
      <trkpt lat="43.63383" lon="1.41083">
        <ele>128</ele>
        <time>2014-04-06T13:39:12.000Z</time>
      </trkpt>
      <trkpt lat="43.63377" lon="1.41069">
        <ele>128</ele>
        <time>2014-04-06T13:39:15.000Z</time>
      </trkpt>
      <trkpt lat="43.63369" lon="1.41057">
        <ele>129</ele>
        <time>2014-04-06T13:39:18.000Z</time>
      </trkpt>
      <trkpt lat="43.63365" lon="1.41049">
        <ele>129</ele>
        <time>2014-04-06T13:39:20.000Z</time>
      </trkpt>
      <trkpt lat="43.63359" lon="1.41042">
        <ele>129</ele>
        <time>2014-04-06T13:39:22.000Z</time>
      </trkpt>
      <trkpt lat="43.63356" lon="1.41036">
        <ele>129</ele>
        <time>2014-04-06T13:39:24.000Z</time>
      </trkpt>
      <trkpt lat="43.63346" lon="1.41027">
        <ele>129</ele>
        <time>2014-04-06T13:39:27.000Z</time>
      </trkpt>
      <trkpt lat="43.63341" lon="1.41026">
        <ele>129</ele>
        <time>2014-04-06T13:39:29.000Z</time>
      </trkpt>
      <trkpt lat="43.63333" lon="1.41028">
        <ele>129</ele>
        <time>2014-04-06T13:39:32.000Z</time>
      </trkpt>
      <trkpt lat="43.63328" lon="1.41032">
        <ele>129</ele>
        <time>2014-04-06T13:39:34.000Z</time>
      </trkpt>
      <trkpt lat="43.63321" lon="1.41041">
        <ele>130</ele>
        <time>2014-04-06T13:39:37.000Z</time>
      </trkpt>
      <trkpt lat="43.63313" lon="1.41051">
        <ele>130</ele>
        <time>2014-04-06T13:39:40.000Z</time>
      </trkpt>
      <trkpt lat="43.63307" lon="1.41057">
        <ele>130</ele>
        <time>2014-04-06T13:39:42.000Z</time>
      </trkpt>
      <trkpt lat="43.633" lon="1.41066">
        <ele>130</ele>
        <time>2014-04-06T13:39:45.000Z</time>
      </trkpt>
      <trkpt lat="43.63294" lon="1.41071">
        <ele>130</ele>
        <time>2014-04-06T13:39:47.000Z</time>
      </trkpt>
      <trkpt lat="43.63284" lon="1.4108">
        <ele>130</ele>
        <time>2014-04-06T13:39:50.000Z</time>
      </trkpt>
      <trkpt lat="43.63278" lon="1.41086">
        <ele>130</ele>
        <time>2014-04-06T13:39:52.000Z</time>
      </trkpt>
      <trkpt lat="43.63267" lon="1.41094">
        <ele>130</ele>
        <time>2014-04-06T13:39:55.000Z</time>
      </trkpt>
      <trkpt lat="43.6326" lon="1.41099">
        <ele>130</ele>
        <time>2014-04-06T13:39:57.000Z</time>
      </trkpt>
      <trkpt lat="43.6325" lon="1.41106">
        <ele>131</ele>
        <time>2014-04-06T13:40:00.000Z</time>
      </trkpt>
      <trkpt lat="43.63237" lon="1.41113">
        <ele>130</ele>
        <time>2014-04-06T13:40:03.000Z</time>
      </trkpt>
      <trkpt lat="43.63229" lon="1.41117">
        <ele>130</ele>
        <time>2014-04-06T13:40:05.000Z</time>
      </trkpt>
      <trkpt lat="43.63218" lon="1.41123">
        <ele>130</ele>
        <time>2014-04-06T13:40:08.000Z</time>
      </trkpt>
      <trkpt lat="43.63206" lon="1.41127">
        <ele>130</ele>
        <time>2014-04-06T13:40:11.000Z</time>
      </trkpt>
      <trkpt lat="43.63198" lon="1.41126">
        <ele>130</ele>
        <time>2014-04-06T13:40:13.000Z</time>
      </trkpt>
      <trkpt lat="43.63187" lon="1.41132">
        <ele>130</ele>
        <time>2014-04-06T13:40:16.000Z</time>
      </trkpt>
      <trkpt lat="43.63179" lon="1.41134">
        <ele>130</ele>
        <time>2014-04-06T13:40:18.000Z</time>
      </trkpt>
      <trkpt lat="43.63171" lon="1.41134">
        <ele>130</ele>
        <time>2014-04-06T13:40:20.000Z</time>
      </trkpt>
      <trkpt lat="43.63164" lon="1.41135">
        <ele>130</ele>
        <time>2014-04-06T13:40:22.000Z</time>
      </trkpt>
      <trkpt lat="43.63156" lon="1.41135">
        <ele>131</ele>
        <time>2014-04-06T13:40:24.000Z</time>
      </trkpt>
      <trkpt lat="43.63145" lon="1.41135">
        <ele>131</ele>
        <time>2014-04-06T13:40:27.000Z</time>
      </trkpt>
      <trkpt lat="43.63133" lon="1.41136">
        <ele>131</ele>
        <time>2014-04-06T13:40:30.000Z</time>
      </trkpt>
      <trkpt lat="43.63123" lon="1.41137">
        <ele>131</ele>
        <time>2014-04-06T13:40:33.000Z</time>
      </trkpt>
      <trkpt lat="43.63116" lon="1.41138">
        <ele>131</ele>
        <time>2014-04-06T13:40:35.000Z</time>
      </trkpt>
      <trkpt lat="43.63105" lon="1.41139">
        <ele>131</ele>
        <time>2014-04-06T13:40:38.000Z</time>
      </trkpt>
      <trkpt lat="43.63099" lon="1.4114">
        <ele>131</ele>
        <time>2014-04-06T13:40:40.000Z</time>
      </trkpt>
      <trkpt lat="43.63092" lon="1.41141">
        <ele>131</ele>
        <time>2014-04-06T13:40:42.000Z</time>
      </trkpt>
      <trkpt lat="43.63081" lon="1.41142">
        <ele>132</ele>
        <time>2014-04-06T13:40:45.000Z</time>
      </trkpt>
      <trkpt lat="43.63074" lon="1.41144">
        <ele>132</ele>
        <time>2014-04-06T13:40:47.000Z</time>
      </trkpt>
      <trkpt lat="43.63063" lon="1.41146">
        <ele>132</ele>
        <time>2014-04-06T13:40:50.000Z</time>
      </trkpt>
      <trkpt lat="43.63056" lon="1.41148">
        <ele>132</ele>
        <time>2014-04-06T13:40:52.000Z</time>
      </trkpt>
      <trkpt lat="43.63049" lon="1.4115">
        <ele>132</ele>
        <time>2014-04-06T13:40:54.000Z</time>
      </trkpt>
      <trkpt lat="43.63037" lon="1.41153">
        <ele>132</ele>
        <time>2014-04-06T13:40:57.000Z</time>
      </trkpt>
      <trkpt lat="43.6303" lon="1.41156">
        <ele>132</ele>
        <time>2014-04-06T13:40:59.000Z</time>
      </trkpt>
      <trkpt lat="43.63023" lon="1.41158">
        <ele>132</ele>
        <time>2014-04-06T13:41:02.000Z</time>
      </trkpt>
      <trkpt lat="43.63022" lon="1.41157">
        <ele>132</ele>
        <time>2014-04-06T13:41:05.000Z</time>
      </trkpt>
      <trkpt lat="43.6301" lon="1.41122">
        <ele>132</ele>
        <time>2014-04-06T13:41:10.000Z</time>
      </trkpt>
      <trkpt lat="43.63004" lon="1.41109">
        <ele>132</ele>
        <time>2014-04-06T13:41:13.000Z</time>
      </trkpt>
      <trkpt lat="43.63" lon="1.41101">
        <ele>132</ele>
        <time>2014-04-06T13:41:15.000Z</time>
      </trkpt>
      <trkpt lat="43.62995" lon="1.41089">
        <ele>132</ele>
        <time>2014-04-06T13:41:18.000Z</time>
      </trkpt>
      <trkpt lat="43.62988" lon="1.41079">
        <ele>132</ele>
        <time>2014-04-06T13:41:21.000Z</time>
      </trkpt>
      <trkpt lat="43.62983" lon="1.41072">
        <ele>132</ele>
        <time>2014-04-06T13:41:23.000Z</time>
      </trkpt>
      <trkpt lat="43.62975" lon="1.41062">
        <ele>132</ele>
        <time>2014-04-06T13:41:26.000Z</time>
      </trkpt>
      <trkpt lat="43.62969" lon="1.41056">
        <ele>132</ele>
        <time>2014-04-06T13:41:28.000Z</time>
      </trkpt>
      <trkpt lat="43.6296" lon="1.41049">
        <ele>132</ele>
        <time>2014-04-06T13:41:31.000Z</time>
      </trkpt>
      <trkpt lat="43.62947" lon="1.4104">
        <ele>132</ele>
        <time>2014-04-06T13:41:36.000Z</time>
      </trkpt>
      <trkpt lat="43.62931" lon="1.41032">
        <ele>132</ele>
        <time>2014-04-06T13:41:41.000Z</time>
      </trkpt>
      <trkpt lat="43.62922" lon="1.41019">
        <ele>132</ele>
        <time>2014-04-06T13:41:44.000Z</time>
      </trkpt>
      <trkpt lat="43.6292" lon="1.41017">
        <ele>132</ele>
        <time>2014-04-06T13:41:46.000Z</time>
      </trkpt>
      <trkpt lat="43.62917" lon="1.41014">
        <ele>132</ele>
        <time>2014-04-06T13:41:49.000Z</time>
      </trkpt>
      <trkpt lat="43.6291" lon="1.40976">
        <ele>132</ele>
        <time>2014-04-06T13:41:54.000Z</time>
      </trkpt>
      <trkpt lat="43.6291" lon="1.40962">
        <ele>132</ele>
        <time>2014-04-06T13:41:57.000Z</time>
      </trkpt>
      <trkpt lat="43.62911" lon="1.40946">
        <ele>132</ele>
        <time>2014-04-06T13:42:00.000Z</time>
      </trkpt>
      <trkpt lat="43.62911" lon="1.40936">
        <ele>132</ele>
        <time>2014-04-06T13:42:02.000Z</time>
      </trkpt>
      <trkpt lat="43.62912" lon="1.4092">
        <ele>133</ele>
        <time>2014-04-06T13:42:05.000Z</time>
      </trkpt>
      <trkpt lat="43.62912" lon="1.40904">
        <ele>133</ele>
        <time>2014-04-06T13:42:08.000Z</time>
      </trkpt>
      <trkpt lat="43.62913" lon="1.40888">
        <ele>132</ele>
        <time>2014-04-06T13:42:11.000Z</time>
      </trkpt>
      <trkpt lat="43.62914" lon="1.40876">
        <ele>132</ele>
        <time>2014-04-06T13:42:13.000Z</time>
      </trkpt>
      <trkpt lat="43.62915" lon="1.40859">
        <ele>132</ele>
        <time>2014-04-06T13:42:16.000Z</time>
      </trkpt>
      <trkpt lat="43.62916" lon="1.40847">
        <ele>132</ele>
        <time>2014-04-06T13:42:18.000Z</time>
      </trkpt>
      <trkpt lat="43.62917" lon="1.40829">
        <ele>132</ele>
        <time>2014-04-06T13:42:21.000Z</time>
      </trkpt>
      <trkpt lat="43.6292" lon="1.40816">
        <ele>131</ele>
        <time>2014-04-06T13:42:23.000Z</time>
      </trkpt>
      <trkpt lat="43.62925" lon="1.40801">
        <ele>131</ele>
        <time>2014-04-06T13:42:26.000Z</time>
      </trkpt>
      <trkpt lat="43.62932" lon="1.40789">
        <ele>131</ele>
        <time>2014-04-06T13:42:28.000Z</time>
      </trkpt>
      <trkpt lat="43.62936" lon="1.40783">
        <ele>131</ele>
        <time>2014-04-06T13:42:30.000Z</time>
      </trkpt>
      <trkpt lat="43.62949" lon="1.40774">
        <ele>130</ele>
        <time>2014-04-06T13:42:33.000Z</time>
      </trkpt>
      <trkpt lat="43.62959" lon="1.40769">
        <ele>130</ele>
        <time>2014-04-06T13:42:36.000Z</time>
      </trkpt>
      <trkpt lat="43.62966" lon="1.40766">
        <ele>130</ele>
        <time>2014-04-06T13:42:38.000Z</time>
      </trkpt>
      <trkpt lat="43.62976" lon="1.40762">
        <ele>130</ele>
        <time>2014-04-06T13:42:41.000Z</time>
      </trkpt>
      <trkpt lat="43.62983" lon="1.40759">
        <ele>130</ele>
        <time>2014-04-06T13:42:43.000Z</time>
      </trkpt>
      <trkpt lat="43.62991" lon="1.40756">
        <ele>130</ele>
        <time>2014-04-06T13:42:46.000Z</time>
      </trkpt>
      <trkpt lat="43.62996" lon="1.40755">
        <ele>129</ele>
        <time>2014-04-06T13:42:48.000Z</time>
      </trkpt>
      <trkpt lat="43.63005" lon="1.40751">
        <ele>129</ele>
        <time>2014-04-06T13:42:51.000Z</time>
      </trkpt>
      <trkpt lat="43.63013" lon="1.40749">
        <ele>129</ele>
        <time>2014-04-06T13:42:53.000Z</time>
      </trkpt>
      <trkpt lat="43.63021" lon="1.40747">
        <ele>129</ele>
        <time>2014-04-06T13:42:55.000Z</time>
      </trkpt>
      <trkpt lat="43.63034" lon="1.40744">
        <ele>129</ele>
        <time>2014-04-06T13:42:58.000Z</time>
      </trkpt>
      <trkpt lat="43.63045" lon="1.40742">
        <ele>129</ele>
        <time>2014-04-06T13:43:01.000Z</time>
      </trkpt>
      <trkpt lat="43.63056" lon="1.40741">
        <ele>129</ele>
        <time>2014-04-06T13:43:04.000Z</time>
      </trkpt>
      <trkpt lat="43.63063" lon="1.4074">
        <ele>129</ele>
        <time>2014-04-06T13:43:06.000Z</time>
      </trkpt>
      <trkpt lat="43.63075" lon="1.40737">
        <ele>129</ele>
        <time>2014-04-06T13:43:09.000Z</time>
      </trkpt>
      <trkpt lat="43.63079" lon="1.40736">
        <ele>129</ele>
        <time>2014-04-06T13:43:11.000Z</time>
      </trkpt>
      <trkpt lat="43.63094" lon="1.40728">
        <ele>129</ele>
        <time>2014-04-06T13:43:14.000Z</time>
      </trkpt>
      <trkpt lat="43.63102" lon="1.40723">
        <ele>128</ele>
        <time>2014-04-06T13:43:16.000Z</time>
      </trkpt>
      <trkpt lat="43.63115" lon="1.40713">
        <ele>128</ele>
        <time>2014-04-06T13:43:19.000Z</time>
      </trkpt>
      <trkpt lat="43.63128" lon="1.40703">
        <ele>128</ele>
        <time>2014-04-06T13:43:22.000Z</time>
      </trkpt>
      <trkpt lat="43.63143" lon="1.40692">
        <ele>127</ele>
        <time>2014-04-06T13:43:25.000Z</time>
      </trkpt>
      <trkpt lat="43.63149" lon="1.40688">
        <ele>127</ele>
        <time>2014-04-06T13:43:27.000Z</time>
      </trkpt>
      <trkpt lat="43.6316" lon="1.40679">
        <ele>127</ele>
        <time>2014-04-06T13:43:30.000Z</time>
      </trkpt>
      <trkpt lat="43.63164" lon="1.40676">
        <ele>127</ele>
        <time>2014-04-06T13:43:32.000Z</time>
      </trkpt>
      <trkpt lat="43.63177" lon="1.40668">
        <ele>127</ele>
        <time>2014-04-06T13:43:35.000Z</time>
      </trkpt>
      <trkpt lat="43.63186" lon="1.40663">
        <ele>127</ele>
        <time>2014-04-06T13:43:38.000Z</time>
      </trkpt>
      <trkpt lat="43.63196" lon="1.40657">
        <ele>127</ele>
        <time>2014-04-06T13:43:41.000Z</time>
      </trkpt>
      <trkpt lat="43.63203" lon="1.40654">
        <ele>127</ele>
        <time>2014-04-06T13:43:43.000Z</time>
      </trkpt>
      <trkpt lat="43.63211" lon="1.40651">
        <ele>127</ele>
        <time>2014-04-06T13:43:46.000Z</time>
      </trkpt>
      <trkpt lat="43.63216" lon="1.40649">
        <ele>127</ele>
        <time>2014-04-06T13:43:48.000Z</time>
      </trkpt>
      <trkpt lat="43.6322" lon="1.40648">
        <ele>127</ele>
        <time>2014-04-06T13:43:51.000Z</time>
      </trkpt>
      <trkpt lat="43.63219" lon="1.40648">
        <ele>127</ele>
        <time>2014-04-06T13:43:54.000Z</time>
      </trkpt>
      <trkpt lat="43.63218" lon="1.40649">
        <ele>127</ele>
        <time>2014-04-06T13:43:56.000Z</time>
      </trkpt>
      <trkpt lat="43.63216" lon="1.40649">
        <ele>127</ele>
        <time>2014-04-06T13:44:01.000Z</time>
      </trkpt>
      <trkpt lat="43.63215" lon="1.40649">
        <ele>127</ele>
        <time>2014-04-06T13:44:04.000Z</time>
      </trkpt>
      <trkpt lat="43.63214" lon="1.4065">
        <ele>127</ele>
        <time>2014-04-06T13:44:17.000Z</time>
      </trkpt>
      <trkpt lat="43.63215" lon="1.40649">
        <ele>127</ele>
        <time>2014-04-06T13:44:26.000Z</time>
      </trkpt>
      <trkpt lat="43.63216" lon="1.40649">
        <ele>127</ele>
        <time>2014-04-06T13:44:29.000Z</time>
      </trkpt>
      <trkpt lat="43.63214" lon="1.4065">
        <ele>127</ele>
        <time>2014-04-06T13:44:37.000Z</time>
      </trkpt>
      <trkpt lat="43.63206" lon="1.40641">
        <ele>127</ele>
        <time>2014-04-06T13:44:40.000Z</time>
      </trkpt>
      <trkpt lat="43.63196" lon="1.40637">
        <ele>127</ele>
        <time>2014-04-06T13:44:43.000Z</time>
      </trkpt>
      <trkpt lat="43.63186" lon="1.40634">
        <ele>127</ele>
        <time>2014-04-06T13:44:46.000Z</time>
      </trkpt>
      <trkpt lat="43.63177" lon="1.40632">
        <ele>127</ele>
        <time>2014-04-06T13:44:48.000Z</time>
      </trkpt>
      <trkpt lat="43.63164" lon="1.40629">
        <ele>128</ele>
        <time>2014-04-06T13:44:51.000Z</time>
      </trkpt>
      <trkpt lat="43.63155" lon="1.40627">
        <ele>128</ele>
        <time>2014-04-06T13:44:53.000Z</time>
      </trkpt>
      <trkpt lat="43.63142" lon="1.40625">
        <ele>128</ele>
        <time>2014-04-06T13:44:56.000Z</time>
      </trkpt>
      <trkpt lat="43.63134" lon="1.40622">
        <ele>128</ele>
        <time>2014-04-06T13:44:58.000Z</time>
      </trkpt>
      <trkpt lat="43.63123" lon="1.40619">
        <ele>129</ele>
        <time>2014-04-06T13:45:01.000Z</time>
      </trkpt>
      <trkpt lat="43.63116" lon="1.40617">
        <ele>129</ele>
        <time>2014-04-06T13:45:03.000Z</time>
      </trkpt>
      <trkpt lat="43.63103" lon="1.40614">
        <ele>129</ele>
        <time>2014-04-06T13:45:06.000Z</time>
      </trkpt>
      <trkpt lat="43.63092" lon="1.40611">
        <ele>129</ele>
        <time>2014-04-06T13:45:09.000Z</time>
      </trkpt>
      <trkpt lat="43.63084" lon="1.4061">
        <ele>129</ele>
        <time>2014-04-06T13:45:11.000Z</time>
      </trkpt>
      <trkpt lat="43.63073" lon="1.40607">
        <ele>129</ele>
        <time>2014-04-06T13:45:14.000Z</time>
      </trkpt>
      <trkpt lat="43.63066" lon="1.40605">
        <ele>129</ele>
        <time>2014-04-06T13:45:16.000Z</time>
      </trkpt>
      <trkpt lat="43.63056" lon="1.40602">
        <ele>129</ele>
        <time>2014-04-06T13:45:19.000Z</time>
      </trkpt>
      <trkpt lat="43.63049" lon="1.40599">
        <ele>129</ele>
        <time>2014-04-06T13:45:21.000Z</time>
      </trkpt>
      <trkpt lat="43.63037" lon="1.40596">
        <ele>129</ele>
        <time>2014-04-06T13:45:24.000Z</time>
      </trkpt>
      <trkpt lat="43.63025" lon="1.40593">
        <ele>130</ele>
        <time>2014-04-06T13:45:27.000Z</time>
      </trkpt>
      <trkpt lat="43.63018" lon="1.40591">
        <ele>130</ele>
        <time>2014-04-06T13:45:29.000Z</time>
      </trkpt>
      <trkpt lat="43.63005" lon="1.40587">
        <ele>130</ele>
        <time>2014-04-06T13:45:32.000Z</time>
      </trkpt>
      <trkpt lat="43.62991" lon="1.40583">
        <ele>131</ele>
        <time>2014-04-06T13:45:35.000Z</time>
      </trkpt>
      <trkpt lat="43.62983" lon="1.40581">
        <ele>131</ele>
        <time>2014-04-06T13:45:37.000Z</time>
      </trkpt>
      <trkpt lat="43.62975" lon="1.40579">
        <ele>131</ele>
        <time>2014-04-06T13:45:39.000Z</time>
      </trkpt>
      <trkpt lat="43.62963" lon="1.40578">
        <ele>131</ele>
        <time>2014-04-06T13:45:42.000Z</time>
      </trkpt>
      <trkpt lat="43.62956" lon="1.40575">
        <ele>131</ele>
        <time>2014-04-06T13:45:44.000Z</time>
      </trkpt>
      <trkpt lat="43.62947" lon="1.40574">
        <ele>131</ele>
        <time>2014-04-06T13:45:46.000Z</time>
      </trkpt>
      <trkpt lat="43.62935" lon="1.40571">
        <ele>131</ele>
        <time>2014-04-06T13:45:49.000Z</time>
      </trkpt>
      <trkpt lat="43.62928" lon="1.4057">
        <ele>131</ele>
        <time>2014-04-06T13:45:51.000Z</time>
      </trkpt>
      <trkpt lat="43.6292" lon="1.40568">
        <ele>131</ele>
        <time>2014-04-06T13:45:54.000Z</time>
      </trkpt>
      <trkpt lat="43.62917" lon="1.40568">
        <ele>131</ele>
        <time>2014-04-06T13:45:56.000Z</time>
      </trkpt>
      <trkpt lat="43.62917" lon="1.40567">
        <ele>131</ele>
        <time>2014-04-06T13:46:02.000Z</time>
      </trkpt>
      <trkpt lat="43.62917" lon="1.40567">
        <ele>131</ele>
        <time>2014-04-06T13:46:22.000Z</time>
      </trkpt>
      <trkpt lat="43.6292" lon="1.40566">
        <ele>131</ele>
        <time>2014-04-06T13:47:03.000Z</time>
      </trkpt>
      <trkpt lat="43.62918" lon="1.40565">
        <ele>131</ele>
        <time>2014-04-06T13:47:05.000Z</time>
      </trkpt>
      <trkpt lat="43.62914" lon="1.40563">
        <ele>130</ele>
        <time>2014-04-06T13:47:08.000Z</time>
      </trkpt>
      <trkpt lat="43.6291" lon="1.40563">
        <ele>130</ele>
        <time>2014-04-06T13:47:10.000Z</time>
      </trkpt>
      <trkpt lat="43.62906" lon="1.40562">
        <ele>130</ele>
        <time>2014-04-06T13:47:12.000Z</time>
      </trkpt>
      <trkpt lat="43.62901" lon="1.4056">
        <ele>130</ele>
        <time>2014-04-06T13:47:14.000Z</time>
      </trkpt>
      <trkpt lat="43.62894" lon="1.40558">
        <ele>130</ele>
        <time>2014-04-06T13:47:16.000Z</time>
      </trkpt>
      <trkpt lat="43.62883" lon="1.40556">
        <ele>130</ele>
        <time>2014-04-06T13:47:19.000Z</time>
      </trkpt>
      <trkpt lat="43.62871" lon="1.40552">
        <ele>129</ele>
        <time>2014-04-06T13:47:22.000Z</time>
      </trkpt>
      <trkpt lat="43.62859" lon="1.40549">
        <ele>129</ele>
        <time>2014-04-06T13:47:25.000Z</time>
      </trkpt>
      <trkpt lat="43.62846" lon="1.40546">
        <ele>129</ele>
        <time>2014-04-06T13:47:28.000Z</time>
      </trkpt>
      <trkpt lat="43.62833" lon="1.40541">
        <ele>128</ele>
        <time>2014-04-06T13:47:31.000Z</time>
      </trkpt>
      <trkpt lat="43.6282" lon="1.40537">
        <ele>128</ele>
        <time>2014-04-06T13:47:34.000Z</time>
      </trkpt>
      <trkpt lat="43.6281" lon="1.40533">
        <ele>128</ele>
        <time>2014-04-06T13:47:36.000Z</time>
      </trkpt>
      <trkpt lat="43.62796" lon="1.40529">
        <ele>129</ele>
        <time>2014-04-06T13:47:39.000Z</time>
      </trkpt>
      <trkpt lat="43.62781" lon="1.40524">
        <ele>129</ele>
        <time>2014-04-06T13:47:42.000Z</time>
      </trkpt>
      <trkpt lat="43.62763" lon="1.40517">
        <ele>129</ele>
        <time>2014-04-06T13:47:45.000Z</time>
      </trkpt>
      <trkpt lat="43.62745" lon="1.4051">
        <ele>130</ele>
        <time>2014-04-06T13:47:48.000Z</time>
      </trkpt>
      <trkpt lat="43.6273" lon="1.40502">
        <ele>130</ele>
        <time>2014-04-06T13:47:51.000Z</time>
      </trkpt>
      <trkpt lat="43.62716" lon="1.40494">
        <ele>131</ele>
        <time>2014-04-06T13:47:54.000Z</time>
      </trkpt>
      <trkpt lat="43.62698" lon="1.40487">
        <ele>131</ele>
        <time>2014-04-06T13:47:57.000Z</time>
      </trkpt>
      <trkpt lat="43.62687" lon="1.40483">
        <ele>131</ele>
        <time>2014-04-06T13:47:59.000Z</time>
      </trkpt>
      <trkpt lat="43.62668" lon="1.40473">
        <ele>131</ele>
        <time>2014-04-06T13:48:02.000Z</time>
      </trkpt>
      <trkpt lat="43.62658" lon="1.40471">
        <ele>131</ele>
        <time>2014-04-06T13:48:04.000Z</time>
      </trkpt>
      <trkpt lat="43.62647" lon="1.40468">
        <ele>131</ele>
        <time>2014-04-06T13:48:06.000Z</time>
      </trkpt>
      <trkpt lat="43.6263" lon="1.40463">
        <ele>131</ele>
        <time>2014-04-06T13:48:09.000Z</time>
      </trkpt>
      <trkpt lat="43.62621" lon="1.40459">
        <ele>131</ele>
        <time>2014-04-06T13:48:11.000Z</time>
      </trkpt>
      <trkpt lat="43.62606" lon="1.40453">
        <ele>132</ele>
        <time>2014-04-06T13:48:14.000Z</time>
      </trkpt>
      <trkpt lat="43.62593" lon="1.40445">
        <ele>132</ele>
        <time>2014-04-06T13:48:17.000Z</time>
      </trkpt>
      <trkpt lat="43.62585" lon="1.40435">
        <ele>132</ele>
        <time>2014-04-06T13:48:20.000Z</time>
      </trkpt>
      <trkpt lat="43.62578" lon="1.40427">
        <ele>132</ele>
        <time>2014-04-06T13:48:23.000Z</time>
      </trkpt>
      <trkpt lat="43.62572" lon="1.4042">
        <ele>132</ele>
        <time>2014-04-06T13:48:25.000Z</time>
      </trkpt>
      <trkpt lat="43.62564" lon="1.40409">
        <ele>133</ele>
        <time>2014-04-06T13:48:28.000Z</time>
      </trkpt>
      <trkpt lat="43.62553" lon="1.40398">
        <ele>133</ele>
        <time>2014-04-06T13:48:31.000Z</time>
      </trkpt>
      <trkpt lat="43.62547" lon="1.40392">
        <ele>133</ele>
        <time>2014-04-06T13:48:33.000Z</time>
      </trkpt>
      <trkpt lat="43.62539" lon="1.40378">
        <ele>133</ele>
        <time>2014-04-06T13:48:36.000Z</time>
      </trkpt>
      <trkpt lat="43.62534" lon="1.40371">
        <ele>133</ele>
        <time>2014-04-06T13:48:38.000Z</time>
      </trkpt>
      <trkpt lat="43.62526" lon="1.40359">
        <ele>133</ele>
        <time>2014-04-06T13:48:41.000Z</time>
      </trkpt>
      <trkpt lat="43.62521" lon="1.40351">
        <ele>133</ele>
        <time>2014-04-06T13:48:43.000Z</time>
      </trkpt>
      <trkpt lat="43.62517" lon="1.40344">
        <ele>133</ele>
        <time>2014-04-06T13:48:45.000Z</time>
      </trkpt>
      <trkpt lat="43.62511" lon="1.40333">
        <ele>133</ele>
        <time>2014-04-06T13:48:48.000Z</time>
      </trkpt>
      <trkpt lat="43.62508" lon="1.40327">
        <ele>133</ele>
        <time>2014-04-06T13:48:50.000Z</time>
      </trkpt>
      <trkpt lat="43.62505" lon="1.40318">
        <ele>133</ele>
        <time>2014-04-06T13:48:53.000Z</time>
      </trkpt>
      <trkpt lat="43.62502" lon="1.40312">
        <ele>133</ele>
        <time>2014-04-06T13:48:55.000Z</time>
      </trkpt>
      <trkpt lat="43.625" lon="1.40304">
        <ele>132</ele>
        <time>2014-04-06T13:48:58.000Z</time>
      </trkpt>
      <trkpt lat="43.62498" lon="1.403">
        <ele>132</ele>
        <time>2014-04-06T13:49:00.000Z</time>
      </trkpt>
      <trkpt lat="43.62498" lon="1.40294">
        <ele>132</ele>
        <time>2014-04-06T13:49:03.000Z</time>
      </trkpt>
      <trkpt lat="43.62494" lon="1.40291">
        <ele>132</ele>
        <time>2014-04-06T13:49:05.000Z</time>
      </trkpt>
      <trkpt lat="43.62491" lon="1.40288">
        <ele>132</ele>
        <time>2014-04-06T13:49:07.000Z</time>
      </trkpt>
      <trkpt lat="43.62487" lon="1.40284">
        <ele>132</ele>
        <time>2014-04-06T13:49:10.000Z</time>
      </trkpt>
      <trkpt lat="43.62483" lon="1.40284">
        <ele>132</ele>
        <time>2014-04-06T13:49:12.000Z</time>
      </trkpt>
      <trkpt lat="43.62481" lon="1.40282">
        <ele>132</ele>
        <time>2014-04-06T13:49:15.000Z</time>
      </trkpt>
      <trkpt lat="43.62481" lon="1.40278">
        <ele>132</ele>
        <time>2014-04-06T13:49:18.000Z</time>
      </trkpt>
      <trkpt lat="43.62482" lon="1.40276">
        <ele>132</ele>
        <time>2014-04-06T13:49:20.000Z</time>
      </trkpt>
      <trkpt lat="43.62483" lon="1.4028">
        <ele>132</ele>
        <time>2014-04-06T13:49:33.000Z</time>
      </trkpt>
      <trkpt lat="43.62483" lon="1.40279">
        <ele>132</ele>
        <time>2014-04-06T13:49:36.000Z</time>
      </trkpt>
      <trkpt lat="43.62484" lon="1.40278">
        <ele>132</ele>
        <time>2014-04-06T13:49:39.000Z</time>
      </trkpt>
      <trkpt lat="43.62485" lon="1.40277">
        <ele>132</ele>
        <time>2014-04-06T13:49:43.000Z</time>
      </trkpt>
      <trkpt lat="43.62484" lon="1.40275">
        <ele>132</ele>
        <time>2014-04-06T13:49:45.000Z</time>
      </trkpt>
      <trkpt lat="43.62483" lon="1.40271">
        <ele>132</ele>
        <time>2014-04-06T13:49:47.000Z</time>
      </trkpt>
      <trkpt lat="43.62479" lon="1.40267">
        <ele>132</ele>
        <time>2014-04-06T13:49:50.000Z</time>
      </trkpt>
      <trkpt lat="43.62474" lon="1.40268">
        <ele>132</ele>
        <time>2014-04-06T13:49:52.000Z</time>
      </trkpt>
      <trkpt lat="43.62469" lon="1.40264">
        <ele>132</ele>
        <time>2014-04-06T13:49:55.000Z</time>
      </trkpt>
      <trkpt lat="43.62469" lon="1.4026">
        <ele>132</ele>
        <time>2014-04-06T13:49:57.000Z</time>
      </trkpt>
      <trkpt lat="43.62471" lon="1.40258">
        <ele>132</ele>
        <time>2014-04-06T13:50:00.000Z</time>
      </trkpt>
      <trkpt lat="43.62472" lon="1.40256">
        <ele>132</ele>
        <time>2014-04-06T13:50:02.000Z</time>
      </trkpt>
      <trkpt lat="43.62472" lon="1.4025">
        <ele>129</ele>
        <time>2014-04-06T13:50:05.000Z</time>
      </trkpt>
      <trkpt lat="43.62473" lon="1.40244">
        <ele>129</ele>
        <time>2014-04-06T13:50:07.000Z</time>
      </trkpt>
      <trkpt lat="43.62473" lon="1.40239">
        <ele>128</ele>
        <time>2014-04-06T13:50:09.000Z</time>
      </trkpt>
      <trkpt lat="43.62471" lon="1.4023">
        <ele>128</ele>
        <time>2014-04-06T13:50:12.000Z</time>
      </trkpt>
      <trkpt lat="43.62471" lon="1.40225">
        <ele>128</ele>
        <time>2014-04-06T13:50:14.000Z</time>
      </trkpt>
      <trkpt lat="43.62472" lon="1.40219">
        <ele>127</ele>
        <time>2014-04-06T13:50:16.000Z</time>
      </trkpt>
      <trkpt lat="43.62472" lon="1.4021">
        <ele>126</ele>
        <time>2014-04-06T13:50:19.000Z</time>
      </trkpt>
      <trkpt lat="43.62472" lon="1.40202">
        <ele>126</ele>
        <time>2014-04-06T13:50:22.000Z</time>
      </trkpt>
      <trkpt lat="43.62472" lon="1.40194">
        <ele>125</ele>
        <time>2014-04-06T13:50:25.000Z</time>
      </trkpt>
      <trkpt lat="43.62471" lon="1.40185">
        <ele>125</ele>
        <time>2014-04-06T13:50:28.000Z</time>
      </trkpt>
      <trkpt lat="43.62472" lon="1.40176">
        <ele>124</ele>
        <time>2014-04-06T13:50:31.000Z</time>
      </trkpt>
      <trkpt lat="43.62473" lon="1.4017">
        <ele>124</ele>
        <time>2014-04-06T13:50:33.000Z</time>
      </trkpt>
      <trkpt lat="43.62474" lon="1.40162">
        <ele>121</ele>
        <time>2014-04-06T13:50:36.000Z</time>
      </trkpt>
      <trkpt lat="43.62474" lon="1.40153">
        <ele>121</ele>
        <time>2014-04-06T13:50:39.000Z</time>
      </trkpt>
      <trkpt lat="43.62474" lon="1.40142">
        <ele>121</ele>
        <time>2014-04-06T13:50:42.000Z</time>
      </trkpt>
      <trkpt lat="43.62474" lon="1.40134">
        <ele>121</ele>
        <time>2014-04-06T13:50:44.000Z</time>
      </trkpt>
      <trkpt lat="43.62473" lon="1.40122">
        <ele>121</ele>
        <time>2014-04-06T13:50:47.000Z</time>
      </trkpt>
      <trkpt lat="43.62473" lon="1.40113">
        <ele>121</ele>
        <time>2014-04-06T13:50:49.000Z</time>
      </trkpt>
      <trkpt lat="43.62474" lon="1.40104">
        <ele>121</ele>
        <time>2014-04-06T13:50:51.000Z</time>
      </trkpt>
      <trkpt lat="43.62474" lon="1.40091">
        <ele>121</ele>
        <time>2014-04-06T13:50:54.000Z</time>
      </trkpt>
      <trkpt lat="43.62474" lon="1.40078">
        <ele>123</ele>
        <time>2014-04-06T13:50:57.000Z</time>
      </trkpt>
      <trkpt lat="43.62476" lon="1.40067">
        <ele>123</ele>
        <time>2014-04-06T13:51:00.000Z</time>
      </trkpt>
      <trkpt lat="43.62478" lon="1.40056">
        <ele>124</ele>
        <time>2014-04-06T13:51:03.000Z</time>
      </trkpt>
      <trkpt lat="43.62478" lon="1.40047">
        <ele>124</ele>
        <time>2014-04-06T13:51:05.000Z</time>
      </trkpt>
      <trkpt lat="43.62478" lon="1.40039">
        <ele>125</ele>
        <time>2014-04-06T13:51:07.000Z</time>
      </trkpt>
      <trkpt lat="43.62479" lon="1.40025">
        <ele>126</ele>
        <time>2014-04-06T13:51:10.000Z</time>
      </trkpt>
      <trkpt lat="43.62479" lon="1.40012">
        <ele>126</ele>
        <time>2014-04-06T13:51:13.000Z</time>
      </trkpt>
      <trkpt lat="43.6248" lon="1.39996">
        <ele>130</ele>
        <time>2014-04-06T13:51:16.000Z</time>
      </trkpt>
      <trkpt lat="43.62482" lon="1.39986">
        <ele>131</ele>
        <time>2014-04-06T13:51:18.000Z</time>
      </trkpt>
      <trkpt lat="43.62484" lon="1.39972">
        <ele>131</ele>
        <time>2014-04-06T13:51:21.000Z</time>
      </trkpt>
      <trkpt lat="43.62485" lon="1.39963">
        <ele>132</ele>
        <time>2014-04-06T13:51:23.000Z</time>
      </trkpt>
      <trkpt lat="43.62487" lon="1.3995">
        <ele>132</ele>
        <time>2014-04-06T13:51:26.000Z</time>
      </trkpt>
      <trkpt lat="43.62492" lon="1.39947">
        <ele>133</ele>
        <time>2014-04-06T13:51:29.000Z</time>
      </trkpt>
      <trkpt lat="43.62493" lon="1.39952">
        <ele>132</ele>
        <time>2014-04-06T13:51:31.000Z</time>
      </trkpt>
      <trkpt lat="43.62492" lon="1.39956">
        <ele>132</ele>
        <time>2014-04-06T13:51:33.000Z</time>
      </trkpt>
      <trkpt lat="43.62489" lon="1.39964">
        <ele>132</ele>
        <time>2014-04-06T13:51:36.000Z</time>
      </trkpt>
      <trkpt lat="43.62486" lon="1.39969">
        <ele>131</ele>
        <time>2014-04-06T13:51:39.000Z</time>
      </trkpt>
      <trkpt lat="43.62486" lon="1.39976">
        <ele>131</ele>
        <time>2014-04-06T13:51:42.000Z</time>
      </trkpt>
      <trkpt lat="43.62485" lon="1.39984">
        <ele>131</ele>
        <time>2014-04-06T13:51:45.000Z</time>
      </trkpt>
      <trkpt lat="43.62485" lon="1.39993">
        <ele>130</ele>
        <time>2014-04-06T13:51:48.000Z</time>
      </trkpt>
      <trkpt lat="43.62485" lon="1.4">
        <ele>130</ele>
        <time>2014-04-06T13:51:50.000Z</time>
      </trkpt>
      <trkpt lat="43.62487" lon="1.40006">
        <ele>127</ele>
        <time>2014-04-06T13:51:52.000Z</time>
      </trkpt>
      <trkpt lat="43.6249" lon="1.4001">
        <ele>127</ele>
        <time>2014-04-06T13:51:55.000Z</time>
      </trkpt>
      <trkpt lat="43.62495" lon="1.40012">
        <ele>127</ele>
        <time>2014-04-06T13:51:57.000Z</time>
      </trkpt>
      <trkpt lat="43.62505" lon="1.40016">
        <ele>128</ele>
        <time>2014-04-06T13:52:00.000Z</time>
      </trkpt>
      <trkpt lat="43.62512" lon="1.40018">
        <ele>127</ele>
        <time>2014-04-06T13:52:02.000Z</time>
      </trkpt>
      <trkpt lat="43.62519" lon="1.4002">
        <ele>127</ele>
        <time>2014-04-06T13:52:04.000Z</time>
      </trkpt>
      <trkpt lat="43.6253" lon="1.40021">
        <ele>127</ele>
        <time>2014-04-06T13:52:07.000Z</time>
      </trkpt>
      <trkpt lat="43.62537" lon="1.40021">
        <ele>127</ele>
        <time>2014-04-06T13:52:09.000Z</time>
      </trkpt>
      <trkpt lat="43.62546" lon="1.40022">
        <ele>127</ele>
        <time>2014-04-06T13:52:12.000Z</time>
      </trkpt>
      <trkpt lat="43.62552" lon="1.40024">
        <ele>127</ele>
        <time>2014-04-06T13:52:14.000Z</time>
      </trkpt>
      <trkpt lat="43.6256" lon="1.40026">
        <ele>128</ele>
        <time>2014-04-06T13:52:16.000Z</time>
      </trkpt>
      <trkpt lat="43.62571" lon="1.40028">
        <ele>128</ele>
        <time>2014-04-06T13:52:19.000Z</time>
      </trkpt>
      <trkpt lat="43.62581" lon="1.40032">
        <ele>128</ele>
        <time>2014-04-06T13:52:22.000Z</time>
      </trkpt>
      <trkpt lat="43.62592" lon="1.40033">
        <ele>128</ele>
        <time>2014-04-06T13:52:25.000Z</time>
      </trkpt>
      <trkpt lat="43.626" lon="1.40033">
        <ele>128</ele>
        <time>2014-04-06T13:52:27.000Z</time>
      </trkpt>
      <trkpt lat="43.62611" lon="1.40036">
        <ele>128</ele>
        <time>2014-04-06T13:52:30.000Z</time>
      </trkpt>
      <trkpt lat="43.62624" lon="1.40035">
        <ele>128</ele>
        <time>2014-04-06T13:52:33.000Z</time>
      </trkpt>
      <trkpt lat="43.62631" lon="1.40035">
        <ele>128</ele>
        <time>2014-04-06T13:52:35.000Z</time>
      </trkpt>
      <trkpt lat="43.62642" lon="1.40038">
        <ele>128</ele>
        <time>2014-04-06T13:52:38.000Z</time>
      </trkpt>
      <trkpt lat="43.62652" lon="1.40042">
        <ele>128</ele>
        <time>2014-04-06T13:52:41.000Z</time>
      </trkpt>
      <trkpt lat="43.62657" lon="1.40044">
        <ele>127</ele>
        <time>2014-04-06T13:52:44.000Z</time>
      </trkpt>
      <trkpt lat="43.62661" lon="1.40047">
        <ele>127</ele>
        <time>2014-04-06T13:52:47.000Z</time>
      </trkpt>
      <trkpt lat="43.62665" lon="1.40046">
        <ele>127</ele>
        <time>2014-04-06T13:52:49.000Z</time>
      </trkpt>
      <trkpt lat="43.62672" lon="1.40045">
        <ele>130</ele>
        <time>2014-04-06T13:52:52.000Z</time>
      </trkpt>
      <trkpt lat="43.62677" lon="1.40046">
        <ele>130</ele>
        <time>2014-04-06T13:52:54.000Z</time>
      </trkpt>
      <trkpt lat="43.62685" lon="1.40045">
        <ele>130</ele>
        <time>2014-04-06T13:52:57.000Z</time>
      </trkpt>
      <trkpt lat="43.62695" lon="1.40043">
        <ele>131</ele>
        <time>2014-04-06T13:53:00.000Z</time>
      </trkpt>
      <trkpt lat="43.62701" lon="1.40041">
        <ele>131</ele>
        <time>2014-04-06T13:53:02.000Z</time>
      </trkpt>
      <trkpt lat="43.62711" lon="1.4004">
        <ele>132</ele>
        <time>2014-04-06T13:53:05.000Z</time>
      </trkpt>
      <trkpt lat="43.62717" lon="1.40041">
        <ele>132</ele>
        <time>2014-04-06T13:53:07.000Z</time>
      </trkpt>
      <trkpt lat="43.62727" lon="1.40043">
        <ele>132</ele>
        <time>2014-04-06T13:53:10.000Z</time>
      </trkpt>
      <trkpt lat="43.62733" lon="1.40044">
        <ele>132</ele>
        <time>2014-04-06T13:53:12.000Z</time>
      </trkpt>
      <trkpt lat="43.6274" lon="1.40046">
        <ele>133</ele>
        <time>2014-04-06T13:53:14.000Z</time>
      </trkpt>
      <trkpt lat="43.62749" lon="1.40047">
        <ele>133</ele>
        <time>2014-04-06T13:53:17.000Z</time>
      </trkpt>
      <trkpt lat="43.62756" lon="1.40048">
        <ele>134</ele>
        <time>2014-04-06T13:53:19.000Z</time>
      </trkpt>
      <trkpt lat="43.62767" lon="1.40048">
        <ele>134</ele>
        <time>2014-04-06T13:53:22.000Z</time>
      </trkpt>
      <trkpt lat="43.62775" lon="1.40046">
        <ele>134</ele>
        <time>2014-04-06T13:53:24.000Z</time>
      </trkpt>
      <trkpt lat="43.62785" lon="1.40043">
        <ele>134</ele>
        <time>2014-04-06T13:53:27.000Z</time>
      </trkpt>
      <trkpt lat="43.62792" lon="1.40043">
        <ele>134</ele>
        <time>2014-04-06T13:53:29.000Z</time>
      </trkpt>
      <trkpt lat="43.62799" lon="1.40044">
        <ele>134</ele>
        <time>2014-04-06T13:53:31.000Z</time>
      </trkpt>
      <trkpt lat="43.6281" lon="1.40047">
        <ele>134</ele>
        <time>2014-04-06T13:53:34.000Z</time>
      </trkpt>
      <trkpt lat="43.62817" lon="1.40048">
        <ele>134</ele>
        <time>2014-04-06T13:53:36.000Z</time>
      </trkpt>
      <trkpt lat="43.62827" lon="1.40052">
        <ele>133</ele>
        <time>2014-04-06T13:53:39.000Z</time>
      </trkpt>
      <trkpt lat="43.62833" lon="1.40053">
        <ele>133</ele>
        <time>2014-04-06T13:53:41.000Z</time>
      </trkpt>
      <trkpt lat="43.6284" lon="1.40054">
        <ele>133</ele>
        <time>2014-04-06T13:53:43.000Z</time>
      </trkpt>
      <trkpt lat="43.62844" lon="1.40055">
        <ele>133</ele>
        <time>2014-04-06T13:53:45.000Z</time>
      </trkpt>
      <trkpt lat="43.6285" lon="1.4006">
        <ele>133</ele>
        <time>2014-04-06T13:53:48.000Z</time>
      </trkpt>
      <trkpt lat="43.62862" lon="1.40061">
        <ele>133</ele>
        <time>2014-04-06T13:53:51.000Z</time>
      </trkpt>
      <trkpt lat="43.62871" lon="1.40062">
        <ele>134</ele>
        <time>2014-04-06T13:53:53.000Z</time>
      </trkpt>
      <trkpt lat="43.62885" lon="1.40065">
        <ele>134</ele>
        <time>2014-04-06T13:53:56.000Z</time>
      </trkpt>
      <trkpt lat="43.62893" lon="1.40068">
        <ele>134</ele>
        <time>2014-04-06T13:53:58.000Z</time>
      </trkpt>
      <trkpt lat="43.62905" lon="1.40071">
        <ele>134</ele>
        <time>2014-04-06T13:54:01.000Z</time>
      </trkpt>
      <trkpt lat="43.62912" lon="1.40072">
        <ele>134</ele>
        <time>2014-04-06T13:54:03.000Z</time>
      </trkpt>
      <trkpt lat="43.62918" lon="1.40074">
        <ele>134</ele>
        <time>2014-04-06T13:54:05.000Z</time>
      </trkpt>
      <trkpt lat="43.62925" lon="1.40077">
        <ele>134</ele>
        <time>2014-04-06T13:54:08.000Z</time>
      </trkpt>
      <trkpt lat="43.62927" lon="1.40075">
        <ele>134</ele>
        <time>2014-04-06T13:54:11.000Z</time>
      </trkpt>
      <trkpt lat="43.62928" lon="1.40075">
        <ele>134</ele>
        <time>2014-04-06T13:54:14.000Z</time>
      </trkpt>
      <trkpt lat="43.62929" lon="1.40076">
        <ele>134</ele>
        <time>2014-04-06T13:54:26.000Z</time>
      </trkpt>
      <trkpt lat="43.62933" lon="1.40079">
        <ele>134</ele>
        <time>2014-04-06T13:54:43.000Z</time>
      </trkpt>
      <trkpt lat="43.62935" lon="1.40077">
        <ele>134</ele>
        <time>2014-04-06T13:54:52.000Z</time>
      </trkpt>
      <trkpt lat="43.62942" lon="1.40081">
        <ele>134</ele>
        <time>2014-04-06T13:54:55.000Z</time>
      </trkpt>
      <trkpt lat="43.62946" lon="1.40085">
        <ele>132</ele>
        <time>2014-04-06T13:54:57.000Z</time>
      </trkpt>
      <trkpt lat="43.62953" lon="1.40089">
        <ele>132</ele>
        <time>2014-04-06T13:55:00.000Z</time>
      </trkpt>
      <trkpt lat="43.62958" lon="1.4009">
        <ele>132</ele>
        <time>2014-04-06T13:55:02.000Z</time>
      </trkpt>
      <trkpt lat="43.62969" lon="1.40096">
        <ele>132</ele>
        <time>2014-04-06T13:55:05.000Z</time>
      </trkpt>
      <trkpt lat="43.62976" lon="1.40099">
        <ele>132</ele>
        <time>2014-04-06T13:55:07.000Z</time>
      </trkpt>
      <trkpt lat="43.62981" lon="1.40101">
        <ele>132</ele>
        <time>2014-04-06T13:55:09.000Z</time>
      </trkpt>
      <trkpt lat="43.62989" lon="1.40103">
        <ele>132</ele>
        <time>2014-04-06T13:55:12.000Z</time>
      </trkpt>
      <trkpt lat="43.62994" lon="1.40103">
        <ele>132</ele>
        <time>2014-04-06T13:55:15.000Z</time>
      </trkpt>
      <trkpt lat="43.62999" lon="1.40102">
        <ele>132</ele>
        <time>2014-04-06T13:55:18.000Z</time>
      </trkpt>
      <trkpt lat="43.63002" lon="1.40102">
        <ele>132</ele>
        <time>2014-04-06T13:55:20.000Z</time>
      </trkpt>
      <trkpt lat="43.63005" lon="1.40103">
        <ele>132</ele>
        <time>2014-04-06T13:55:22.000Z</time>
      </trkpt>
      <trkpt lat="43.63012" lon="1.40104">
        <ele>132</ele>
        <time>2014-04-06T13:55:25.000Z</time>
      </trkpt>
      <trkpt lat="43.6302" lon="1.40105">
        <ele>132</ele>
        <time>2014-04-06T13:55:27.000Z</time>
      </trkpt>
      <trkpt lat="43.63025" lon="1.40107">
        <ele>132</ele>
        <time>2014-04-06T13:55:29.000Z</time>
      </trkpt>
      <trkpt lat="43.63032" lon="1.40109">
        <ele>132</ele>
        <time>2014-04-06T13:55:31.000Z</time>
      </trkpt>
      <trkpt lat="43.63041" lon="1.4011">
        <ele>132</ele>
        <time>2014-04-06T13:55:34.000Z</time>
      </trkpt>
      <trkpt lat="43.63044" lon="1.4011">
        <ele>132</ele>
        <time>2014-04-06T13:55:37.000Z</time>
      </trkpt>
      <trkpt lat="43.63046" lon="1.40108">
        <ele>132</ele>
        <time>2014-04-06T13:55:39.000Z</time>
      </trkpt>
      <trkpt lat="43.63047" lon="1.40108">
        <ele>132</ele>
        <time>2014-04-06T13:55:41.000Z</time>
      </trkpt>
      <trkpt lat="43.63052" lon="1.40111">
        <ele>132</ele>
        <time>2014-04-06T13:55:44.000Z</time>
      </trkpt>
      <trkpt lat="43.6306" lon="1.40112">
        <ele>131</ele>
        <time>2014-04-06T13:55:47.000Z</time>
      </trkpt>
      <trkpt lat="43.63066" lon="1.40114">
        <ele>131</ele>
        <time>2014-04-06T13:55:49.000Z</time>
      </trkpt>
      <trkpt lat="43.63074" lon="1.40116">
        <ele>131</ele>
        <time>2014-04-06T13:55:52.000Z</time>
      </trkpt>
      <trkpt lat="43.63077" lon="1.40117">
        <ele>131</ele>
        <time>2014-04-06T13:55:54.000Z</time>
      </trkpt>
      <trkpt lat="43.63081" lon="1.40119">
        <ele>131</ele>
        <time>2014-04-06T13:55:57.000Z</time>
      </trkpt>
      <trkpt lat="43.63083" lon="1.40121">
        <ele>131</ele>
        <time>2014-04-06T13:55:59.000Z</time>
      </trkpt>
      <trkpt lat="43.63084" lon="1.40121">
        <ele>129</ele>
        <time>2014-04-06T13:56:02.000Z</time>
      </trkpt>
      <trkpt lat="43.63084" lon="1.4012">
        <ele>129</ele>
        <time>2014-04-06T13:56:05.000Z</time>
      </trkpt>
      <trkpt lat="43.63083" lon="1.40118">
        <ele>131</ele>
        <time>2014-04-06T13:56:12.000Z</time>
      </trkpt>
      <trkpt lat="43.63079" lon="1.40114">
        <ele>131</ele>
        <time>2014-04-06T13:56:15.000Z</time>
      </trkpt>
      <trkpt lat="43.63076" lon="1.40111">
        <ele>131</ele>
        <time>2014-04-06T13:56:17.000Z</time>
      </trkpt>
      <trkpt lat="43.63073" lon="1.40108">
        <ele>131</ele>
        <time>2014-04-06T13:56:20.000Z</time>
      </trkpt>
      <trkpt lat="43.63068" lon="1.40107">
        <ele>131</ele>
        <time>2014-04-06T13:56:23.000Z</time>
      </trkpt>
      <trkpt lat="43.63067" lon="1.40107">
        <ele>131</ele>
        <time>2014-04-06T13:56:25.000Z</time>
      </trkpt>
      <trkpt lat="43.63065" lon="1.40107">
        <ele>131</ele>
        <time>2014-04-06T13:56:27.000Z</time>
      </trkpt>
      <trkpt lat="43.63064" lon="1.40107">
        <ele>131</ele>
        <time>2014-04-06T13:56:29.000Z</time>
      </trkpt>
      <trkpt lat="43.63064" lon="1.40107">
        <ele>131</ele>
        <time>2014-04-06T13:56:49.000Z</time>
      </trkpt>
      <trkpt lat="43.63063" lon="1.40107">
        <ele>131</ele>
        <time>2014-04-06T13:56:58.000Z</time>
      </trkpt>
      <trkpt lat="43.63062" lon="1.40109">
        <ele>131</ele>
        <time>2014-04-06T13:57:02.000Z</time>
      </trkpt>
      <trkpt lat="43.63061" lon="1.40108">
        <ele>131</ele>
        <time>2014-04-06T13:57:04.000Z</time>
      </trkpt>
      <trkpt lat="43.63058" lon="1.40107">
        <ele>131</ele>
        <time>2014-04-06T13:57:24.000Z</time>
      </trkpt>
      <trkpt lat="43.6306" lon="1.40108">
        <ele>131</ele>
        <time>2014-04-06T13:57:33.000Z</time>
      </trkpt>
      <trkpt lat="43.63062" lon="1.40109">
        <ele>131</ele>
        <time>2014-04-06T13:57:35.000Z</time>
      </trkpt>
      <trkpt lat="43.63066" lon="1.40111">
        <ele>131</ele>
        <time>2014-04-06T13:57:38.000Z</time>
      </trkpt>
      <trkpt lat="43.63072" lon="1.40115">
        <ele>131</ele>
        <time>2014-04-06T13:57:41.000Z</time>
      </trkpt>
      <trkpt lat="43.63078" lon="1.40119">
        <ele>131</ele>
        <time>2014-04-06T13:57:44.000Z</time>
      </trkpt>
      <trkpt lat="43.63086" lon="1.40123">
        <ele>129</ele>
        <time>2014-04-06T13:57:47.000Z</time>
      </trkpt>
      <trkpt lat="43.63092" lon="1.40127">
        <ele>129</ele>
        <time>2014-04-06T13:57:50.000Z</time>
      </trkpt>
      <trkpt lat="43.63097" lon="1.4013">
        <ele>129</ele>
        <time>2014-04-06T13:57:52.000Z</time>
      </trkpt>
      <trkpt lat="43.63103" lon="1.40134">
        <ele>129</ele>
        <time>2014-04-06T13:57:55.000Z</time>
      </trkpt>
      <trkpt lat="43.63107" lon="1.40136">
        <ele>129</ele>
        <time>2014-04-06T13:57:57.000Z</time>
      </trkpt>
      <trkpt lat="43.63112" lon="1.40138">
        <ele>129</ele>
        <time>2014-04-06T13:58:00.000Z</time>
      </trkpt>
      <trkpt lat="43.63117" lon="1.40138">
        <ele>129</ele>
        <time>2014-04-06T13:58:02.000Z</time>
      </trkpt>
      <trkpt lat="43.63122" lon="1.40138">
        <ele>129</ele>
        <time>2014-04-06T13:58:05.000Z</time>
      </trkpt>
      <trkpt lat="43.63127" lon="1.40138">
        <ele>130</ele>
        <time>2014-04-06T13:58:08.000Z</time>
      </trkpt>
      <trkpt lat="43.63131" lon="1.40137">
        <ele>130</ele>
        <time>2014-04-06T13:58:10.000Z</time>
      </trkpt>
      <trkpt lat="43.63137" lon="1.40137">
        <ele>130</ele>
        <time>2014-04-06T13:58:13.000Z</time>
      </trkpt>
      <trkpt lat="43.63141" lon="1.40139">
        <ele>130</ele>
        <time>2014-04-06T13:58:16.000Z</time>
      </trkpt>
      <trkpt lat="43.63144" lon="1.40144">
        <ele>130</ele>
        <time>2014-04-06T13:58:19.000Z</time>
      </trkpt>
      <trkpt lat="43.63152" lon="1.40148">
        <ele>131</ele>
        <time>2014-04-06T13:58:22.000Z</time>
      </trkpt>
      <trkpt lat="43.6316" lon="1.40153">
        <ele>131</ele>
        <time>2014-04-06T13:58:25.000Z</time>
      </trkpt>
      <trkpt lat="43.63165" lon="1.40156">
        <ele>132</ele>
        <time>2014-04-06T13:58:27.000Z</time>
      </trkpt>
      <trkpt lat="43.63171" lon="1.4016">
        <ele>131</ele>
        <time>2014-04-06T13:58:30.000Z</time>
      </trkpt>
      <trkpt lat="43.63174" lon="1.40164">
        <ele>132</ele>
        <time>2014-04-06T13:58:33.000Z</time>
      </trkpt>
      <trkpt lat="43.63177" lon="1.40167">
        <ele>131</ele>
        <time>2014-04-06T13:58:35.000Z</time>
      </trkpt>
      <trkpt lat="43.63182" lon="1.40167">
        <ele>130</ele>
        <time>2014-04-06T13:58:37.000Z</time>
      </trkpt>
      <trkpt lat="43.63187" lon="1.40167">
        <ele>130</ele>
        <time>2014-04-06T13:58:39.000Z</time>
      </trkpt>
      <trkpt lat="43.63192" lon="1.40164">
        <ele>130</ele>
        <time>2014-04-06T13:58:42.000Z</time>
      </trkpt>
      <trkpt lat="43.63193" lon="1.40163">
        <ele>130</ele>
        <time>2014-04-06T13:58:45.000Z</time>
      </trkpt>
      <trkpt lat="43.63194" lon="1.40162">
        <ele>129</ele>
        <time>2014-04-06T13:58:48.000Z</time>
      </trkpt>
      <trkpt lat="43.63195" lon="1.40161">
        <ele>129</ele>
        <time>2014-04-06T13:58:51.000Z</time>
      </trkpt>
      <trkpt lat="43.63196" lon="1.40162">
        <ele>129</ele>
        <time>2014-04-06T13:58:53.000Z</time>
      </trkpt>
      <trkpt lat="43.63201" lon="1.40167">
        <ele>128</ele>
        <time>2014-04-06T13:58:56.000Z</time>
      </trkpt>
      <trkpt lat="43.63206" lon="1.4017">
        <ele>128</ele>
        <time>2014-04-06T13:58:59.000Z</time>
      </trkpt>
      <trkpt lat="43.63211" lon="1.40172">
        <ele>128</ele>
        <time>2014-04-06T13:59:02.000Z</time>
      </trkpt>
      <trkpt lat="43.63217" lon="1.40174">
        <ele>127</ele>
        <time>2014-04-06T13:59:05.000Z</time>
      </trkpt>
      <trkpt lat="43.63223" lon="1.40174">
        <ele>127</ele>
        <time>2014-04-06T13:59:08.000Z</time>
      </trkpt>
      <trkpt lat="43.63228" lon="1.40175">
        <ele>127</ele>
        <time>2014-04-06T13:59:11.000Z</time>
      </trkpt>
      <trkpt lat="43.63231" lon="1.40178">
        <ele>127</ele>
        <time>2014-04-06T13:59:14.000Z</time>
      </trkpt>
      <trkpt lat="43.63233" lon="1.40182">
        <ele>127</ele>
        <time>2014-04-06T13:59:17.000Z</time>
      </trkpt>
      <trkpt lat="43.63238" lon="1.40183">
        <ele>127</ele>
        <time>2014-04-06T13:59:19.000Z</time>
      </trkpt>
      <trkpt lat="43.63246" lon="1.40186">
        <ele>127</ele>
        <time>2014-04-06T13:59:22.000Z</time>
      </trkpt>
      <trkpt lat="43.63249" lon="1.40188">
        <ele>127</ele>
        <time>2014-04-06T13:59:24.000Z</time>
      </trkpt>
      <trkpt lat="43.63253" lon="1.40192">
        <ele>127</ele>
        <time>2014-04-06T13:59:27.000Z</time>
      </trkpt>
      <trkpt lat="43.6326" lon="1.40196">
        <ele>127</ele>
        <time>2014-04-06T13:59:30.000Z</time>
      </trkpt>
      <trkpt lat="43.63264" lon="1.40197">
        <ele>127</ele>
        <time>2014-04-06T13:59:32.000Z</time>
      </trkpt>
      <trkpt lat="43.63271" lon="1.402">
        <ele>127</ele>
        <time>2014-04-06T13:59:35.000Z</time>
      </trkpt>
      <trkpt lat="43.63275" lon="1.40201">
        <ele>127</ele>
        <time>2014-04-06T13:59:37.000Z</time>
      </trkpt>
      <trkpt lat="43.63281" lon="1.40201">
        <ele>127</ele>
        <time>2014-04-06T13:59:40.000Z</time>
      </trkpt>
      <trkpt lat="43.63287" lon="1.40202">
        <ele>127</ele>
        <time>2014-04-06T13:59:42.000Z</time>
      </trkpt>
      <trkpt lat="43.63293" lon="1.40207">
        <ele>127</ele>
        <time>2014-04-06T13:59:45.000Z</time>
      </trkpt>
      <trkpt lat="43.63297" lon="1.4021">
        <ele>127</ele>
        <time>2014-04-06T13:59:47.000Z</time>
      </trkpt>
      <trkpt lat="43.63305" lon="1.40215">
        <ele>127</ele>
        <time>2014-04-06T13:59:50.000Z</time>
      </trkpt>
      <trkpt lat="43.63311" lon="1.40221">
        <ele>127</ele>
        <time>2014-04-06T13:59:53.000Z</time>
      </trkpt>
      <trkpt lat="43.63315" lon="1.40224">
        <ele>127</ele>
        <time>2014-04-06T13:59:55.000Z</time>
      </trkpt>
      <trkpt lat="43.63322" lon="1.40224">
        <ele>127</ele>
        <time>2014-04-06T13:59:58.000Z</time>
      </trkpt>
      <trkpt lat="43.63328" lon="1.40226">
        <ele>127</ele>
        <time>2014-04-06T14:00:01.000Z</time>
      </trkpt>
      <trkpt lat="43.6333" lon="1.40228">
        <ele>127</ele>
        <time>2014-04-06T14:00:03.000Z</time>
      </trkpt>
      <trkpt lat="43.63332" lon="1.40226">
        <ele>127</ele>
        <time>2014-04-06T14:00:11.000Z</time>
      </trkpt>
      <trkpt lat="43.63333" lon="1.40225">
        <ele>127</ele>
        <time>2014-04-06T14:00:13.000Z</time>
      </trkpt>
      <trkpt lat="43.63337" lon="1.40221">
        <ele>128</ele>
        <time>2014-04-06T14:00:19.000Z</time>
      </trkpt>
      <trkpt lat="43.63336" lon="1.40221">
        <ele>128</ele>
        <time>2014-04-06T14:00:23.000Z</time>
      </trkpt>
      <trkpt lat="43.63335" lon="1.40221">
        <ele>128</ele>
        <time>2014-04-06T14:00:26.000Z</time>
      </trkpt>
      <trkpt lat="43.63336" lon="1.40219">
        <ele>128</ele>
        <time>2014-04-06T14:00:29.000Z</time>
      </trkpt>
      <trkpt lat="43.63337" lon="1.40219">
        <ele>128</ele>
        <time>2014-04-06T14:00:31.000Z</time>
      </trkpt>
      <trkpt lat="43.63338" lon="1.40218">
        <ele>128</ele>
        <time>2014-04-06T14:00:34.000Z</time>
      </trkpt>
      <trkpt lat="43.63338" lon="1.40216">
        <ele>128</ele>
        <time>2014-04-06T14:00:37.000Z</time>
      </trkpt>
      <trkpt lat="43.6334" lon="1.40217">
        <ele>128</ele>
        <time>2014-04-06T14:00:48.000Z</time>
      </trkpt>
      <trkpt lat="43.63337" lon="1.40216">
        <ele>128</ele>
        <time>2014-04-06T14:00:51.000Z</time>
      </trkpt>
      <trkpt lat="43.63334" lon="1.40215">
        <ele>128</ele>
        <time>2014-04-06T14:00:54.000Z</time>
      </trkpt>
      <trkpt lat="43.63332" lon="1.40214">
        <ele>127</ele>
        <time>2014-04-06T14:00:56.000Z</time>
      </trkpt>
      <trkpt lat="43.63329" lon="1.40214">
        <ele>127</ele>
        <time>2014-04-06T14:00:59.000Z</time>
      </trkpt>
      <trkpt lat="43.63327" lon="1.40214">
        <ele>127</ele>
        <time>2014-04-06T14:01:02.000Z</time>
      </trkpt>
      <trkpt lat="43.63326" lon="1.40214">
        <ele>127</ele>
        <time>2014-04-06T14:01:05.000Z</time>
      </trkpt>
      <trkpt lat="43.63327" lon="1.40214">
        <ele>127</ele>
        <time>2014-04-06T14:01:17.000Z</time>
      </trkpt>
      <trkpt lat="43.63327" lon="1.40214">
        <ele>127</ele>
        <time>2014-04-06T14:01:37.000Z</time>
      </trkpt>
      <trkpt lat="43.63326" lon="1.40214">
        <ele>127</ele>
        <time>2014-04-06T14:01:46.000Z</time>
      </trkpt>
      <trkpt lat="43.63326" lon="1.40213">
        <ele>127</ele>
        <time>2014-04-06T14:01:48.000Z</time>
      </trkpt>
      <trkpt lat="43.63326" lon="1.40212">
        <ele>127</ele>
        <time>2014-04-06T14:01:52.000Z</time>
      </trkpt>
      <trkpt lat="43.63327" lon="1.40211">
        <ele>127</ele>
        <time>2014-04-06T14:01:55.000Z</time>
      </trkpt>
      <trkpt lat="43.63327" lon="1.4021">
        <ele>127</ele>
        <time>2014-04-06T14:01:57.000Z</time>
      </trkpt>
      <trkpt lat="43.63329" lon="1.40209">
        <ele>127</ele>
        <time>2014-04-06T14:02:00.000Z</time>
      </trkpt>
      <trkpt lat="43.63329" lon="1.40207">
        <ele>127</ele>
        <time>2014-04-06T14:02:03.000Z</time>
      </trkpt>
      <trkpt lat="43.63328" lon="1.40206">
        <ele>127</ele>
        <time>2014-04-06T14:02:05.000Z</time>
      </trkpt>
      <trkpt lat="43.63326" lon="1.40204">
        <ele>127</ele>
        <time>2014-04-06T14:02:08.000Z</time>
      </trkpt>
      <trkpt lat="43.63325" lon="1.40203">
        <ele>127</ele>
        <time>2014-04-06T14:02:11.000Z</time>
      </trkpt>
      <trkpt lat="43.63324" lon="1.40204">
        <ele>127</ele>
        <time>2014-04-06T14:02:14.000Z</time>
      </trkpt>
      <trkpt lat="43.63324" lon="1.40205">
        <ele>127</ele>
        <time>2014-04-06T14:02:18.000Z</time>
      </trkpt>
      <trkpt lat="43.63326" lon="1.40205">
        <ele>127</ele>
        <time>2014-04-06T14:02:20.000Z</time>
      </trkpt>
      <trkpt lat="43.63327" lon="1.40205">
        <ele>127</ele>
        <time>2014-04-06T14:02:22.000Z</time>
      </trkpt>
      <trkpt lat="43.63329" lon="1.40204">
        <ele>127</ele>
        <time>2014-04-06T14:02:25.000Z</time>
      </trkpt>
      <trkpt lat="43.6333" lon="1.40202">
        <ele>127</ele>
        <time>2014-04-06T14:02:27.000Z</time>
      </trkpt>
      <trkpt lat="43.63329" lon="1.40201">
        <ele>127</ele>
        <time>2014-04-06T14:02:31.000Z</time>
      </trkpt>
      <trkpt lat="43.63328" lon="1.402">
        <ele>127</ele>
        <time>2014-04-06T14:02:33.000Z</time>
      </trkpt>
      <trkpt lat="43.63327" lon="1.40199">
        <ele>127</ele>
        <time>2014-04-06T14:02:35.000Z</time>
      </trkpt>
      <trkpt lat="43.63324" lon="1.40198">
        <ele>127</ele>
        <time>2014-04-06T14:02:38.000Z</time>
      </trkpt>
      <trkpt lat="43.63324" lon="1.40197">
        <ele>127</ele>
        <time>2014-04-06T14:02:42.000Z</time>
      </trkpt>
      <trkpt lat="43.63324" lon="1.40196">
        <ele>127</ele>
        <time>2014-04-06T14:02:44.000Z</time>
      </trkpt>
      <trkpt lat="43.63322" lon="1.40195">
        <ele>127</ele>
        <time>2014-04-06T14:02:46.000Z</time>
      </trkpt>
      <trkpt lat="43.63321" lon="1.40197">
        <ele>127</ele>
        <time>2014-04-06T14:02:48.000Z</time>
      </trkpt>
      <trkpt lat="43.63321" lon="1.40195">
        <ele>127</ele>
        <time>2014-04-06T14:02:52.000Z</time>
      </trkpt>
      <trkpt lat="43.63321" lon="1.40195">
        <ele>127</ele>
        <time>2014-04-06T14:03:12.000Z</time>
      </trkpt>
      <trkpt lat="43.63322" lon="1.40193">
        <ele>127</ele>
        <time>2014-04-06T14:03:38.000Z</time>
      </trkpt>
      <trkpt lat="43.63324" lon="1.40195">
        <ele>127</ele>
        <time>2014-04-06T14:03:41.000Z</time>
      </trkpt>
      <trkpt lat="43.63325" lon="1.40197">
        <ele>127</ele>
        <time>2014-04-06T14:03:43.000Z</time>
      </trkpt>
      <trkpt lat="43.63327" lon="1.402">
        <ele>127</ele>
        <time>2014-04-06T14:03:45.000Z</time>
      </trkpt>
      <trkpt lat="43.63327" lon="1.40201">
        <ele>127</ele>
        <time>2014-04-06T14:03:48.000Z</time>
      </trkpt>
      <trkpt lat="43.63329" lon="1.40206">
        <ele>127</ele>
        <time>2014-04-06T14:04:07.000Z</time>
      </trkpt>
      <trkpt lat="43.63326" lon="1.40203">
        <ele>127</ele>
        <time>2014-04-06T14:04:09.000Z</time>
      </trkpt>
      <trkpt lat="43.63318" lon="1.40199">
        <ele>127</ele>
        <time>2014-04-06T14:04:12.000Z</time>
      </trkpt>
      <trkpt lat="43.63315" lon="1.402">
        <ele>127</ele>
        <time>2014-04-06T14:04:14.000Z</time>
      </trkpt>
      <trkpt lat="43.63313" lon="1.40198">
        <ele>127</ele>
        <time>2014-04-06T14:04:16.000Z</time>
      </trkpt>
      <trkpt lat="43.63313" lon="1.40199">
        <ele>127</ele>
        <time>2014-04-06T14:04:20.000Z</time>
      </trkpt>
      <trkpt lat="43.63317" lon="1.40202">
        <ele>127</ele>
        <time>2014-04-06T14:04:23.000Z</time>
      </trkpt>
      <trkpt lat="43.63317" lon="1.40202">
        <ele>127</ele>
        <time>2014-04-06T14:04:43.000Z</time>
      </trkpt>
      <trkpt lat="43.63316" lon="1.40201">
        <ele>127</ele>
        <time>2014-04-06T14:05:12.000Z</time>
      </trkpt>
      <trkpt lat="43.63317" lon="1.40202">
        <ele>127</ele>
        <time>2014-04-06T14:05:17.000Z</time>
      </trkpt>
      <trkpt lat="43.63317" lon="1.40203">
        <ele>127</ele>
        <time>2014-04-06T14:05:22.000Z</time>
      </trkpt>
      <trkpt lat="43.63317" lon="1.40203">
        <ele>127</ele>
        <time>2014-04-06T14:05:42.000Z</time>
      </trkpt>
      <trkpt lat="43.63319" lon="1.40205">
        <ele>127</ele>
        <time>2014-04-06T14:05:50.000Z</time>
      </trkpt>
      <trkpt lat="43.63317" lon="1.40203">
        <ele>127</ele>
        <time>2014-04-06T14:05:52.000Z</time>
      </trkpt>
      <trkpt lat="43.63317" lon="1.40205">
        <ele>127</ele>
        <time>2014-04-06T14:05:55.000Z</time>
      </trkpt>
      <trkpt lat="43.63317" lon="1.40206">
        <ele>127</ele>
        <time>2014-04-06T14:05:57.000Z</time>
      </trkpt>
      <trkpt lat="43.63319" lon="1.40205">
        <ele>127</ele>
        <time>2014-04-06T14:06:00.000Z</time>
      </trkpt>
      <trkpt lat="43.6332" lon="1.40205">
        <ele>127</ele>
        <time>2014-04-06T14:06:04.000Z</time>
      </trkpt>
      <trkpt lat="43.6332" lon="1.40204">
        <ele>127</ele>
        <time>2014-04-06T14:06:07.000Z</time>
      </trkpt>
      <trkpt lat="43.63324" lon="1.40201">
        <ele>127</ele>
        <time>2014-04-06T14:06:13.000Z</time>
      </trkpt>
      <trkpt lat="43.63324" lon="1.40201">
        <ele>127</ele>
        <time>2014-04-06T14:06:33.000Z</time>
      </trkpt>
      <trkpt lat="43.63326" lon="1.40203">
        <ele>127</ele>
        <time>2014-04-06T14:06:38.000Z</time>
      </trkpt>
      <trkpt lat="43.63329" lon="1.40205">
        <ele>127</ele>
        <time>2014-04-06T14:06:40.000Z</time>
      </trkpt>
      <trkpt lat="43.63336" lon="1.40206">
        <ele>128</ele>
        <time>2014-04-06T14:06:43.000Z</time>
      </trkpt>
      <trkpt lat="43.63341" lon="1.40209">
        <ele>128</ele>
        <time>2014-04-06T14:06:46.000Z</time>
      </trkpt>
      <trkpt lat="43.63346" lon="1.40211">
        <ele>128</ele>
        <time>2014-04-06T14:06:49.000Z</time>
      </trkpt>
      <trkpt lat="43.63351" lon="1.40214">
        <ele>128</ele>
        <time>2014-04-06T14:06:51.000Z</time>
      </trkpt>
      <trkpt lat="43.63355" lon="1.40218">
        <ele>128</ele>
        <time>2014-04-06T14:06:53.000Z</time>
      </trkpt>
      <trkpt lat="43.63359" lon="1.40222">
        <ele>128</ele>
        <time>2014-04-06T14:06:56.000Z</time>
      </trkpt>
      <trkpt lat="43.63362" lon="1.40224">
        <ele>128</ele>
        <time>2014-04-06T14:06:58.000Z</time>
      </trkpt>
      <trkpt lat="43.63367" lon="1.40226">
        <ele>128</ele>
        <time>2014-04-06T14:07:01.000Z</time>
      </trkpt>
      <trkpt lat="43.63369" lon="1.40225">
        <ele>128</ele>
        <time>2014-04-06T14:07:04.000Z</time>
      </trkpt>
      <trkpt lat="43.63367" lon="1.40221">
        <ele>128</ele>
        <time>2014-04-06T14:07:14.000Z</time>
      </trkpt>
      <trkpt lat="43.63369" lon="1.40223">
        <ele>128</ele>
        <time>2014-04-06T14:07:16.000Z</time>
      </trkpt>
      <trkpt lat="43.63374" lon="1.40227">
        <ele>128</ele>
        <time>2014-04-06T14:07:19.000Z</time>
      </trkpt>
      <trkpt lat="43.63378" lon="1.40229">
        <ele>128</ele>
        <time>2014-04-06T14:07:21.000Z</time>
      </trkpt>
      <trkpt lat="43.63384" lon="1.40232">
        <ele>128</ele>
        <time>2014-04-06T14:07:24.000Z</time>
      </trkpt>
      <trkpt lat="43.63387" lon="1.40234">
        <ele>128</ele>
        <time>2014-04-06T14:07:26.000Z</time>
      </trkpt>
      <trkpt lat="43.63393" lon="1.40238">
        <ele>128</ele>
        <time>2014-04-06T14:07:29.000Z</time>
      </trkpt>
      <trkpt lat="43.634" lon="1.40241">
        <ele>128</ele>
        <time>2014-04-06T14:07:32.000Z</time>
      </trkpt>
      <trkpt lat="43.63405" lon="1.40243">
        <ele>128</ele>
        <time>2014-04-06T14:07:34.000Z</time>
      </trkpt>
      <trkpt lat="43.63413" lon="1.40245">
        <ele>127</ele>
        <time>2014-04-06T14:07:37.000Z</time>
      </trkpt>
      <trkpt lat="43.63421" lon="1.40247">
        <ele>128</ele>
        <time>2014-04-06T14:07:40.000Z</time>
      </trkpt>
      <trkpt lat="43.6343" lon="1.4025">
        <ele>129</ele>
        <time>2014-04-06T14:07:43.000Z</time>
      </trkpt>
      <trkpt lat="43.63435" lon="1.40251">
        <ele>126</ele>
        <time>2014-04-06T14:07:45.000Z</time>
      </trkpt>
      <trkpt lat="43.63443" lon="1.40253">
        <ele>126</ele>
        <time>2014-04-06T14:07:48.000Z</time>
      </trkpt>
      <trkpt lat="43.63448" lon="1.40253">
        <ele>126</ele>
        <time>2014-04-06T14:07:50.000Z</time>
      </trkpt>
      <trkpt lat="43.63453" lon="1.40252">
        <ele>126</ele>
        <time>2014-04-06T14:07:52.000Z</time>
      </trkpt>
      <trkpt lat="43.63458" lon="1.40252">
        <ele>126</ele>
        <time>2014-04-06T14:07:54.000Z</time>
      </trkpt>
      <trkpt lat="43.63464" lon="1.40254">
        <ele>126</ele>
        <time>2014-04-06T14:07:57.000Z</time>
      </trkpt>
      <trkpt lat="43.63469" lon="1.40256">
        <ele>127</ele>
        <time>2014-04-06T14:07:59.000Z</time>
      </trkpt>
      <trkpt lat="43.63476" lon="1.4026">
        <ele>127</ele>
        <time>2014-04-06T14:08:02.000Z</time>
      </trkpt>
      <trkpt lat="43.63485" lon="1.4026">
        <ele>128</ele>
        <time>2014-04-06T14:08:05.000Z</time>
      </trkpt>
      <trkpt lat="43.63493" lon="1.40264">
        <ele>128</ele>
        <time>2014-04-06T14:08:08.000Z</time>
      </trkpt>
      <trkpt lat="43.63499" lon="1.40266">
        <ele>128</ele>
        <time>2014-04-06T14:08:10.000Z</time>
      </trkpt>
      <trkpt lat="43.63505" lon="1.40267">
        <ele>129</ele>
        <time>2014-04-06T14:08:12.000Z</time>
      </trkpt>
      <trkpt lat="43.63512" lon="1.40268">
        <ele>129</ele>
        <time>2014-04-06T14:08:14.000Z</time>
      </trkpt>
      <trkpt lat="43.63521" lon="1.40271">
        <ele>128</ele>
        <time>2014-04-06T14:08:17.000Z</time>
      </trkpt>
      <trkpt lat="43.63527" lon="1.40271">
        <ele>128</ele>
        <time>2014-04-06T14:08:19.000Z</time>
      </trkpt>
      <trkpt lat="43.63535" lon="1.40272">
        <ele>128</ele>
        <time>2014-04-06T14:08:21.000Z</time>
      </trkpt>
      <trkpt lat="43.63541" lon="1.40274">
        <ele>128</ele>
        <time>2014-04-06T14:08:23.000Z</time>
      </trkpt>
      <trkpt lat="43.63551" lon="1.40276">
        <ele>128</ele>
        <time>2014-04-06T14:08:26.000Z</time>
      </trkpt>
      <trkpt lat="43.63557" lon="1.40278">
        <ele>128</ele>
        <time>2014-04-06T14:08:28.000Z</time>
      </trkpt>
      <trkpt lat="43.63566" lon="1.40281">
        <ele>128</ele>
        <time>2014-04-06T14:08:31.000Z</time>
      </trkpt>
      <trkpt lat="43.63572" lon="1.40283">
        <ele>128</ele>
        <time>2014-04-06T14:08:33.000Z</time>
      </trkpt>
      <trkpt lat="43.63577" lon="1.40284">
        <ele>128</ele>
        <time>2014-04-06T14:08:36.000Z</time>
      </trkpt>
      <trkpt lat="43.63581" lon="1.40287">
        <ele>128</ele>
        <time>2014-04-06T14:08:38.000Z</time>
      </trkpt>
      <trkpt lat="43.63585" lon="1.4029">
        <ele>130</ele>
        <time>2014-04-06T14:08:40.000Z</time>
      </trkpt>
      <trkpt lat="43.63589" lon="1.4029">
        <ele>130</ele>
        <time>2014-04-06T14:08:42.000Z</time>
      </trkpt>
      <trkpt lat="43.63594" lon="1.40291">
        <ele>130</ele>
        <time>2014-04-06T14:08:44.000Z</time>
      </trkpt>
      <trkpt lat="43.63599" lon="1.4029">
        <ele>130</ele>
        <time>2014-04-06T14:08:46.000Z</time>
      </trkpt>
      <trkpt lat="43.63608" lon="1.4029">
        <ele>130</ele>
        <time>2014-04-06T14:08:49.000Z</time>
      </trkpt>
      <trkpt lat="43.63617" lon="1.40288">
        <ele>130</ele>
        <time>2014-04-06T14:08:52.000Z</time>
      </trkpt>
      <trkpt lat="43.63623" lon="1.40288">
        <ele>130</ele>
        <time>2014-04-06T14:08:54.000Z</time>
      </trkpt>
      <trkpt lat="43.63629" lon="1.40287">
        <ele>130</ele>
        <time>2014-04-06T14:08:56.000Z</time>
      </trkpt>
      <trkpt lat="43.63638" lon="1.40285">
        <ele>130</ele>
        <time>2014-04-06T14:08:59.000Z</time>
      </trkpt>
      <trkpt lat="43.63647" lon="1.40286">
        <ele>130</ele>
        <time>2014-04-06T14:09:02.000Z</time>
      </trkpt>
      <trkpt lat="43.63656" lon="1.40287">
        <ele>130</ele>
        <time>2014-04-06T14:09:05.000Z</time>
      </trkpt>
      <trkpt lat="43.63664" lon="1.40284">
        <ele>130</ele>
        <time>2014-04-06T14:09:08.000Z</time>
      </trkpt>
      <trkpt lat="43.63663" lon="1.40283">
        <ele>130</ele>
        <time>2014-04-06T14:09:11.000Z</time>
      </trkpt>
      <trkpt lat="43.6366" lon="1.40283">
        <ele>130</ele>
        <time>2014-04-06T14:09:21.000Z</time>
      </trkpt>
      <trkpt lat="43.6366" lon="1.40283">
        <ele>130</ele>
        <time>2014-04-06T14:09:41.000Z</time>
      </trkpt>
      <trkpt lat="43.63657" lon="1.40279">
        <ele>130</ele>
        <time>2014-04-06T14:09:46.000Z</time>
      </trkpt>
      <trkpt lat="43.63656" lon="1.40279">
        <ele>130</ele>
        <time>2014-04-06T14:09:48.000Z</time>
      </trkpt>
      <trkpt lat="43.63653" lon="1.40279">
        <ele>130</ele>
        <time>2014-04-06T14:09:51.000Z</time>
      </trkpt>
      <trkpt lat="43.63651" lon="1.40278">
        <ele>130</ele>
        <time>2014-04-06T14:09:53.000Z</time>
      </trkpt>
      <trkpt lat="43.63648" lon="1.40277">
        <ele>130</ele>
        <time>2014-04-06T14:09:56.000Z</time>
      </trkpt>
      <trkpt lat="43.6365" lon="1.40277">
        <ele>130</ele>
        <time>2014-04-06T14:10:00.000Z</time>
      </trkpt>
      <trkpt lat="43.63652" lon="1.40276">
        <ele>130</ele>
        <time>2014-04-06T14:10:02.000Z</time>
      </trkpt>
      <trkpt lat="43.63652" lon="1.40277">
        <ele>130</ele>
        <time>2014-04-06T14:10:08.000Z</time>
      </trkpt>
      <trkpt lat="43.63651" lon="1.40278">
        <ele>130</ele>
        <time>2014-04-06T14:10:12.000Z</time>
      </trkpt>
      <trkpt lat="43.6365" lon="1.40277">
        <ele>130</ele>
        <time>2014-04-06T14:10:16.000Z</time>
      </trkpt>
      <trkpt lat="43.63651" lon="1.40277">
        <ele>130</ele>
        <time>2014-04-06T14:10:20.000Z</time>
      </trkpt>
      <trkpt lat="43.63651" lon="1.40274">
        <ele>130</ele>
        <time>2014-04-06T14:10:23.000Z</time>
      </trkpt>
      <trkpt lat="43.63654" lon="1.40275">
        <ele>130</ele>
        <time>2014-04-06T14:10:26.000Z</time>
      </trkpt>
      <trkpt lat="43.63654" lon="1.40276">
        <ele>130</ele>
        <time>2014-04-06T14:10:28.000Z</time>
      </trkpt>
      <trkpt lat="43.63655" lon="1.40276">
        <ele>130</ele>
        <time>2014-04-06T14:10:34.000Z</time>
      </trkpt>
      <trkpt lat="43.63656" lon="1.40277">
        <ele>130</ele>
        <time>2014-04-06T14:10:37.000Z</time>
      </trkpt>
      <trkpt lat="43.63656" lon="1.40278">
        <ele>130</ele>
        <time>2014-04-06T14:10:39.000Z</time>
      </trkpt>
      <trkpt lat="43.63658" lon="1.40278">
        <ele>130</ele>
        <time>2014-04-06T14:10:43.000Z</time>
      </trkpt>
      <trkpt lat="43.63662" lon="1.40279">
        <ele>130</ele>
        <time>2014-04-06T14:10:46.000Z</time>
      </trkpt>
      <trkpt lat="43.63666" lon="1.4028">
        <ele>130</ele>
        <time>2014-04-06T14:10:48.000Z</time>
      </trkpt>
      <trkpt lat="43.6367" lon="1.4028">
        <ele>128</ele>
        <time>2014-04-06T14:10:50.000Z</time>
      </trkpt>
      <trkpt lat="43.63677" lon="1.40281">
        <ele>128</ele>
        <time>2014-04-06T14:10:53.000Z</time>
      </trkpt>
      <trkpt lat="43.63684" lon="1.40281">
        <ele>128</ele>
        <time>2014-04-06T14:10:56.000Z</time>
      </trkpt>
      <trkpt lat="43.63689" lon="1.40281">
        <ele>128</ele>
        <time>2014-04-06T14:10:58.000Z</time>
      </trkpt>
      <trkpt lat="43.63694" lon="1.40279">
        <ele>128</ele>
        <time>2014-04-06T14:11:00.000Z</time>
      </trkpt>
      <trkpt lat="43.63699" lon="1.40277">
        <ele>128</ele>
        <time>2014-04-06T14:11:02.000Z</time>
      </trkpt>
      <trkpt lat="43.63707" lon="1.40272">
        <ele>128</ele>
        <time>2014-04-06T14:11:05.000Z</time>
      </trkpt>
      <trkpt lat="43.63712" lon="1.40271">
        <ele>128</ele>
        <time>2014-04-06T14:11:07.000Z</time>
      </trkpt>
      <trkpt lat="43.6372" lon="1.40268">
        <ele>127</ele>
        <time>2014-04-06T14:11:10.000Z</time>
      </trkpt>
      <trkpt lat="43.63729" lon="1.40267">
        <ele>128</ele>
        <time>2014-04-06T14:11:13.000Z</time>
      </trkpt>
      <trkpt lat="43.63737" lon="1.40265">
        <ele>128</ele>
        <time>2014-04-06T14:11:16.000Z</time>
      </trkpt>
      <trkpt lat="43.63746" lon="1.40264">
        <ele>128</ele>
        <time>2014-04-06T14:11:19.000Z</time>
      </trkpt>
      <trkpt lat="43.63754" lon="1.40263">
        <ele>127</ele>
        <time>2014-04-06T14:11:22.000Z</time>
      </trkpt>
      <trkpt lat="43.63764" lon="1.40261">
        <ele>127</ele>
        <time>2014-04-06T14:11:25.000Z</time>
      </trkpt>
      <trkpt lat="43.63774" lon="1.40259">
        <ele>126</ele>
        <time>2014-04-06T14:11:28.000Z</time>
      </trkpt>
      <trkpt lat="43.63784" lon="1.40257">
        <ele>126</ele>
        <time>2014-04-06T14:11:31.000Z</time>
      </trkpt>
      <trkpt lat="43.6379" lon="1.40256">
        <ele>126</ele>
        <time>2014-04-06T14:11:33.000Z</time>
      </trkpt>
      <trkpt lat="43.63795" lon="1.40255">
        <ele>126</ele>
        <time>2014-04-06T14:11:35.000Z</time>
      </trkpt>
      <trkpt lat="43.63803" lon="1.40253">
        <ele>126</ele>
        <time>2014-04-06T14:11:38.000Z</time>
      </trkpt>
      <trkpt lat="43.63812" lon="1.4025">
        <ele>127</ele>
        <time>2014-04-06T14:11:41.000Z</time>
      </trkpt>
      <trkpt lat="43.63821" lon="1.4025">
        <ele>130</ele>
        <time>2014-04-06T14:11:44.000Z</time>
      </trkpt>
      <trkpt lat="43.63827" lon="1.4025">
        <ele>129</ele>
        <time>2014-04-06T14:11:46.000Z</time>
      </trkpt>
      <trkpt lat="43.63835" lon="1.4025">
        <ele>130</ele>
        <time>2014-04-06T14:11:49.000Z</time>
      </trkpt>
      <trkpt lat="43.6384" lon="1.40249">
        <ele>130</ele>
        <time>2014-04-06T14:11:51.000Z</time>
      </trkpt>
      <trkpt lat="43.63847" lon="1.40248">
        <ele>130</ele>
        <time>2014-04-06T14:11:54.000Z</time>
      </trkpt>
      <trkpt lat="43.63852" lon="1.40245">
        <ele>130</ele>
        <time>2014-04-06T14:11:56.000Z</time>
      </trkpt>
      <trkpt lat="43.63858" lon="1.40242">
        <ele>130</ele>
        <time>2014-04-06T14:11:58.000Z</time>
      </trkpt>
      <trkpt lat="43.63866" lon="1.40241">
        <ele>130</ele>
        <time>2014-04-06T14:12:01.000Z</time>
      </trkpt>
      <trkpt lat="43.63871" lon="1.40243">
        <ele>130</ele>
        <time>2014-04-06T14:12:03.000Z</time>
      </trkpt>
      <trkpt lat="43.63879" lon="1.40243">
        <ele>130</ele>
        <time>2014-04-06T14:12:06.000Z</time>
      </trkpt>
      <trkpt lat="43.63884" lon="1.40239">
        <ele>130</ele>
        <time>2014-04-06T14:12:08.000Z</time>
      </trkpt>
      <trkpt lat="43.63889" lon="1.40235">
        <ele>130</ele>
        <time>2014-04-06T14:12:10.000Z</time>
      </trkpt>
      <trkpt lat="43.63894" lon="1.40232">
        <ele>130</ele>
        <time>2014-04-06T14:12:12.000Z</time>
      </trkpt>
      <trkpt lat="43.63902" lon="1.40229">
        <ele>130</ele>
        <time>2014-04-06T14:12:15.000Z</time>
      </trkpt>
      <trkpt lat="43.63909" lon="1.40226">
        <ele>130</ele>
        <time>2014-04-06T14:12:18.000Z</time>
      </trkpt>
      <trkpt lat="43.63914" lon="1.40224">
        <ele>130</ele>
        <time>2014-04-06T14:12:20.000Z</time>
      </trkpt>
      <trkpt lat="43.63922" lon="1.40218">
        <ele>130</ele>
        <time>2014-04-06T14:12:23.000Z</time>
      </trkpt>
      <trkpt lat="43.63929" lon="1.40215">
        <ele>130</ele>
        <time>2014-04-06T14:12:25.000Z</time>
      </trkpt>
      <trkpt lat="43.63937" lon="1.40211">
        <ele>130</ele>
        <time>2014-04-06T14:12:28.000Z</time>
      </trkpt>
      <trkpt lat="43.63945" lon="1.40206">
        <ele>130</ele>
        <time>2014-04-06T14:12:30.000Z</time>
      </trkpt>
      <trkpt lat="43.63951" lon="1.40202">
        <ele>130</ele>
        <time>2014-04-06T14:12:32.000Z</time>
      </trkpt>
      <trkpt lat="43.63961" lon="1.40195">
        <ele>130</ele>
        <time>2014-04-06T14:12:35.000Z</time>
      </trkpt>
      <trkpt lat="43.63966" lon="1.40191">
        <ele>130</ele>
        <time>2014-04-06T14:12:37.000Z</time>
      </trkpt>
      <trkpt lat="43.63972" lon="1.40185">
        <ele>130</ele>
        <time>2014-04-06T14:12:39.000Z</time>
      </trkpt>
      <trkpt lat="43.6398" lon="1.40177">
        <ele>131</ele>
        <time>2014-04-06T14:12:42.000Z</time>
      </trkpt>
      <trkpt lat="43.63987" lon="1.40172">
        <ele>131</ele>
        <time>2014-04-06T14:12:44.000Z</time>
      </trkpt>
      <trkpt lat="43.63995" lon="1.40166">
        <ele>131</ele>
        <time>2014-04-06T14:12:47.000Z</time>
      </trkpt>
      <trkpt lat="43.64" lon="1.40162">
        <ele>132</ele>
        <time>2014-04-06T14:12:49.000Z</time>
      </trkpt>
      <trkpt lat="43.64008" lon="1.40155">
        <ele>131</ele>
        <time>2014-04-06T14:12:52.000Z</time>
      </trkpt>
      <trkpt lat="43.64013" lon="1.4015">
        <ele>131</ele>
        <time>2014-04-06T14:12:54.000Z</time>
      </trkpt>
      <trkpt lat="43.64021" lon="1.40142">
        <ele>131</ele>
        <time>2014-04-06T14:12:57.000Z</time>
      </trkpt>
      <trkpt lat="43.64029" lon="1.40137">
        <ele>130</ele>
        <time>2014-04-06T14:13:00.000Z</time>
      </trkpt>
      <trkpt lat="43.64034" lon="1.40134">
        <ele>130</ele>
        <time>2014-04-06T14:13:02.000Z</time>
      </trkpt>
      <trkpt lat="43.64042" lon="1.40126">
        <ele>130</ele>
        <time>2014-04-06T14:13:05.000Z</time>
      </trkpt>
      <trkpt lat="43.6405" lon="1.40115">
        <ele>130</ele>
        <time>2014-04-06T14:13:08.000Z</time>
      </trkpt>
      <trkpt lat="43.64056" lon="1.40106">
        <ele>130</ele>
        <time>2014-04-06T14:13:10.000Z</time>
      </trkpt>
      <trkpt lat="43.64063" lon="1.40098">
        <ele>130</ele>
        <time>2014-04-06T14:13:12.000Z</time>
      </trkpt>
      <trkpt lat="43.64069" lon="1.4009">
        <ele>131</ele>
        <time>2014-04-06T14:13:14.000Z</time>
      </trkpt>
      <trkpt lat="43.64078" lon="1.4008">
        <ele>131</ele>
        <time>2014-04-06T14:13:17.000Z</time>
      </trkpt>
      <trkpt lat="43.64086" lon="1.40069">
        <ele>131</ele>
        <time>2014-04-06T14:13:20.000Z</time>
      </trkpt>
      <trkpt lat="43.6409" lon="1.40061">
        <ele>132</ele>
        <time>2014-04-06T14:13:22.000Z</time>
      </trkpt>
      <trkpt lat="43.64097" lon="1.40049">
        <ele>132</ele>
        <time>2014-04-06T14:13:25.000Z</time>
      </trkpt>
      <trkpt lat="43.64103" lon="1.40036">
        <ele>132</ele>
        <time>2014-04-06T14:13:28.000Z</time>
      </trkpt>
      <trkpt lat="43.64106" lon="1.40027">
        <ele>132</ele>
        <time>2014-04-06T14:13:30.000Z</time>
      </trkpt>
      <trkpt lat="43.64111" lon="1.40016">
        <ele>132</ele>
        <time>2014-04-06T14:13:33.000Z</time>
      </trkpt>
      <trkpt lat="43.64113" lon="1.40006">
        <ele>132</ele>
        <time>2014-04-06T14:13:36.000Z</time>
      </trkpt>
      <trkpt lat="43.64116" lon="1.39998">
        <ele>132</ele>
        <time>2014-04-06T14:13:39.000Z</time>
      </trkpt>
      <trkpt lat="43.64119" lon="1.39988">
        <ele>132</ele>
        <time>2014-04-06T14:13:42.000Z</time>
      </trkpt>
      <trkpt lat="43.64125" lon="1.39984">
        <ele>132</ele>
        <time>2014-04-06T14:13:45.000Z</time>
      </trkpt>
      <trkpt lat="43.64132" lon="1.39985">
        <ele>132</ele>
        <time>2014-04-06T14:13:48.000Z</time>
      </trkpt>
      <trkpt lat="43.6414" lon="1.39986">
        <ele>132</ele>
        <time>2014-04-06T14:13:51.000Z</time>
      </trkpt>
      <trkpt lat="43.64145" lon="1.39984">
        <ele>132</ele>
        <time>2014-04-06T14:13:53.000Z</time>
      </trkpt>
      <trkpt lat="43.64153" lon="1.39983">
        <ele>132</ele>
        <time>2014-04-06T14:13:56.000Z</time>
      </trkpt>
      <trkpt lat="43.64162" lon="1.39979">
        <ele>132</ele>
        <time>2014-04-06T14:13:58.000Z</time>
      </trkpt>
      <trkpt lat="43.64173" lon="1.39977">
        <ele>132</ele>
        <time>2014-04-06T14:14:01.000Z</time>
      </trkpt>
      <trkpt lat="43.6418" lon="1.39976">
        <ele>132</ele>
        <time>2014-04-06T14:14:03.000Z</time>
      </trkpt>
      <trkpt lat="43.6419" lon="1.39973">
        <ele>131</ele>
        <time>2014-04-06T14:14:06.000Z</time>
      </trkpt>
      <trkpt lat="43.64196" lon="1.3997">
        <ele>131</ele>
        <time>2014-04-06T14:14:08.000Z</time>
      </trkpt>
      <trkpt lat="43.64203" lon="1.39966">
        <ele>131</ele>
        <time>2014-04-06T14:14:11.000Z</time>
      </trkpt>
      <trkpt lat="43.64208" lon="1.39961">
        <ele>131</ele>
        <time>2014-04-06T14:14:13.000Z</time>
      </trkpt>
      <trkpt lat="43.64214" lon="1.39953">
        <ele>131</ele>
        <time>2014-04-06T14:14:16.000Z</time>
      </trkpt>
      <trkpt lat="43.6422" lon="1.39948">
        <ele>131</ele>
        <time>2014-04-06T14:14:19.000Z</time>
      </trkpt>
      <trkpt lat="43.64224" lon="1.39947">
        <ele>131</ele>
        <time>2014-04-06T14:14:22.000Z</time>
      </trkpt>
      <trkpt lat="43.64231" lon="1.39942">
        <ele>131</ele>
        <time>2014-04-06T14:14:25.000Z</time>
      </trkpt>
      <trkpt lat="43.64237" lon="1.39939">
        <ele>131</ele>
        <time>2014-04-06T14:14:27.000Z</time>
      </trkpt>
      <trkpt lat="43.64246" lon="1.39935">
        <ele>131</ele>
        <time>2014-04-06T14:14:30.000Z</time>
      </trkpt>
      <trkpt lat="43.64255" lon="1.39934">
        <ele>130</ele>
        <time>2014-04-06T14:14:33.000Z</time>
      </trkpt>
      <trkpt lat="43.64261" lon="1.39933">
        <ele>130</ele>
        <time>2014-04-06T14:14:35.000Z</time>
      </trkpt>
      <trkpt lat="43.64268" lon="1.39933">
        <ele>130</ele>
        <time>2014-04-06T14:14:37.000Z</time>
      </trkpt>
      <trkpt lat="43.64274" lon="1.39933">
        <ele>130</ele>
        <time>2014-04-06T14:14:39.000Z</time>
      </trkpt>
      <trkpt lat="43.64283" lon="1.39935">
        <ele>130</ele>
        <time>2014-04-06T14:14:42.000Z</time>
      </trkpt>
      <trkpt lat="43.6429" lon="1.39937">
        <ele>130</ele>
        <time>2014-04-06T14:14:44.000Z</time>
      </trkpt>
      <trkpt lat="43.64301" lon="1.39939">
        <ele>130</ele>
        <time>2014-04-06T14:14:47.000Z</time>
      </trkpt>
      <trkpt lat="43.6431" lon="1.39943">
        <ele>130</ele>
        <time>2014-04-06T14:14:50.000Z</time>
      </trkpt>
      <trkpt lat="43.64316" lon="1.39945">
        <ele>130</ele>
        <time>2014-04-06T14:14:52.000Z</time>
      </trkpt>
      <trkpt lat="43.64322" lon="1.39948">
        <ele>130</ele>
        <time>2014-04-06T14:14:55.000Z</time>
      </trkpt>
      <trkpt lat="43.64325" lon="1.3995">
        <ele>130</ele>
        <time>2014-04-06T14:14:58.000Z</time>
      </trkpt>
      <trkpt lat="43.64329" lon="1.39952">
        <ele>130</ele>
        <time>2014-04-06T14:15:01.000Z</time>
      </trkpt>
      <trkpt lat="43.64333" lon="1.39952">
        <ele>130</ele>
        <time>2014-04-06T14:15:03.000Z</time>
      </trkpt>
      <trkpt lat="43.64337" lon="1.39951">
        <ele>128</ele>
        <time>2014-04-06T14:15:06.000Z</time>
      </trkpt>
      <trkpt lat="43.64336" lon="1.39945">
        <ele>128</ele>
        <time>2014-04-06T14:15:14.000Z</time>
      </trkpt>
      <trkpt lat="43.64334" lon="1.39945">
        <ele>128</ele>
        <time>2014-04-06T14:15:22.000Z</time>
      </trkpt>
      <trkpt lat="43.64334" lon="1.39945">
        <ele>128</ele>
        <time>2014-04-06T14:15:42.000Z</time>
      </trkpt>
      <trkpt lat="43.64338" lon="1.39946">
        <ele>128</ele>
        <time>2014-04-06T14:15:44.000Z</time>
      </trkpt>
      <trkpt lat="43.64344" lon="1.39948">
        <ele>128</ele>
        <time>2014-04-06T14:15:47.000Z</time>
      </trkpt>
      <trkpt lat="43.64348" lon="1.39949">
        <ele>128</ele>
        <time>2014-04-06T14:15:49.000Z</time>
      </trkpt>
      <trkpt lat="43.64354" lon="1.39952">
        <ele>128</ele>
        <time>2014-04-06T14:15:52.000Z</time>
      </trkpt>
      <trkpt lat="43.6436" lon="1.39955">
        <ele>128</ele>
        <time>2014-04-06T14:15:55.000Z</time>
      </trkpt>
      <trkpt lat="43.64366" lon="1.39957">
        <ele>128</ele>
        <time>2014-04-06T14:15:58.000Z</time>
      </trkpt>
      <trkpt lat="43.6437" lon="1.39957">
        <ele>128</ele>
        <time>2014-04-06T14:16:01.000Z</time>
      </trkpt>
      <trkpt lat="43.64374" lon="1.39961">
        <ele>128</ele>
        <time>2014-04-06T14:16:04.000Z</time>
      </trkpt>
      <trkpt lat="43.64377" lon="1.39963">
        <ele>128</ele>
        <time>2014-04-06T14:16:06.000Z</time>
      </trkpt>
      <trkpt lat="43.6438" lon="1.39964">
        <ele>128</ele>
        <time>2014-04-06T14:16:08.000Z</time>
      </trkpt>
      <trkpt lat="43.64383" lon="1.39966">
        <ele>128</ele>
        <time>2014-04-06T14:16:10.000Z</time>
      </trkpt>
      <trkpt lat="43.64385" lon="1.39967">
        <ele>128</ele>
        <time>2014-04-06T14:16:12.000Z</time>
      </trkpt>
      <trkpt lat="43.6439" lon="1.39967">
        <ele>128</ele>
        <time>2014-04-06T14:16:15.000Z</time>
      </trkpt>
      <trkpt lat="43.64393" lon="1.39967">
        <ele>128</ele>
        <time>2014-04-06T14:16:17.000Z</time>
      </trkpt>
      <trkpt lat="43.64397" lon="1.39967">
        <ele>128</ele>
        <time>2014-04-06T14:16:20.000Z</time>
      </trkpt>
      <trkpt lat="43.64404" lon="1.39967">
        <ele>128</ele>
        <time>2014-04-06T14:16:23.000Z</time>
      </trkpt>
      <trkpt lat="43.64409" lon="1.39966">
        <ele>128</ele>
        <time>2014-04-06T14:16:25.000Z</time>
      </trkpt>
      <trkpt lat="43.64417" lon="1.39966">
        <ele>127</ele>
        <time>2014-04-06T14:16:28.000Z</time>
      </trkpt>
      <trkpt lat="43.64425" lon="1.39965">
        <ele>127</ele>
        <time>2014-04-06T14:16:31.000Z</time>
      </trkpt>
      <trkpt lat="43.6443" lon="1.39966">
        <ele>127</ele>
        <time>2014-04-06T14:16:33.000Z</time>
      </trkpt>
      <trkpt lat="43.64438" lon="1.39967">
        <ele>127</ele>
        <time>2014-04-06T14:16:36.000Z</time>
      </trkpt>
      <trkpt lat="43.64448" lon="1.39966">
        <ele>127</ele>
        <time>2014-04-06T14:16:39.000Z</time>
      </trkpt>
      <trkpt lat="43.64457" lon="1.39967">
        <ele>127</ele>
        <time>2014-04-06T14:16:42.000Z</time>
      </trkpt>
      <trkpt lat="43.64463" lon="1.39966">
        <ele>127</ele>
        <time>2014-04-06T14:16:44.000Z</time>
      </trkpt>
      <trkpt lat="43.64471" lon="1.39965">
        <ele>127</ele>
        <time>2014-04-06T14:16:47.000Z</time>
      </trkpt>
      <trkpt lat="43.64477" lon="1.39964">
        <ele>127</ele>
        <time>2014-04-06T14:16:49.000Z</time>
      </trkpt>
      <trkpt lat="43.64485" lon="1.39961">
        <ele>127</ele>
        <time>2014-04-06T14:16:52.000Z</time>
      </trkpt>
      <trkpt lat="43.64489" lon="1.39959">
        <ele>127</ele>
        <time>2014-04-06T14:16:54.000Z</time>
      </trkpt>
      <trkpt lat="43.64495" lon="1.39958">
        <ele>127</ele>
        <time>2014-04-06T14:16:57.000Z</time>
      </trkpt>
      <trkpt lat="43.64502" lon="1.3996">
        <ele>128</ele>
        <time>2014-04-06T14:17:00.000Z</time>
      </trkpt>
      <trkpt lat="43.64507" lon="1.39963">
        <ele>129</ele>
        <time>2014-04-06T14:17:02.000Z</time>
      </trkpt>
      <trkpt lat="43.64516" lon="1.39966">
        <ele>129</ele>
        <time>2014-04-06T14:17:05.000Z</time>
      </trkpt>
      <trkpt lat="43.64524" lon="1.39967">
        <ele>129</ele>
        <time>2014-04-06T14:17:08.000Z</time>
      </trkpt>
      <trkpt lat="43.64529" lon="1.39969">
        <ele>129</ele>
        <time>2014-04-06T14:17:11.000Z</time>
      </trkpt>
      <trkpt lat="43.64532" lon="1.39971">
        <ele>129</ele>
        <time>2014-04-06T14:17:14.000Z</time>
      </trkpt>
      <trkpt lat="43.64535" lon="1.39971">
        <ele>129</ele>
        <time>2014-04-06T14:17:16.000Z</time>
      </trkpt>
      <trkpt lat="43.64541" lon="1.39973">
        <ele>129</ele>
        <time>2014-04-06T14:17:19.000Z</time>
      </trkpt>
      <trkpt lat="43.64545" lon="1.39973">
        <ele>129</ele>
        <time>2014-04-06T14:17:21.000Z</time>
      </trkpt>
      <trkpt lat="43.64551" lon="1.39974">
        <ele>129</ele>
        <time>2014-04-06T14:17:24.000Z</time>
      </trkpt>
      <trkpt lat="43.64553" lon="1.39975">
        <ele>129</ele>
        <time>2014-04-06T14:17:26.000Z</time>
      </trkpt>
      <trkpt lat="43.64557" lon="1.39973">
        <ele>129</ele>
        <time>2014-04-06T14:17:29.000Z</time>
      </trkpt>
      <trkpt lat="43.64561" lon="1.39971">
        <ele>129</ele>
        <time>2014-04-06T14:17:31.000Z</time>
      </trkpt>
      <trkpt lat="43.64563" lon="1.39969">
        <ele>129</ele>
        <time>2014-04-06T14:17:33.000Z</time>
      </trkpt>
      <trkpt lat="43.64563" lon="1.39968">
        <ele>129</ele>
        <time>2014-04-06T14:17:36.000Z</time>
      </trkpt>
      <trkpt lat="43.64564" lon="1.39966">
        <ele>129</ele>
        <time>2014-04-06T14:17:38.000Z</time>
      </trkpt>
      <trkpt lat="43.64565" lon="1.39965">
        <ele>129</ele>
        <time>2014-04-06T14:17:46.000Z</time>
      </trkpt>
      <trkpt lat="43.64567" lon="1.39962">
        <ele>129</ele>
        <time>2014-04-06T14:18:01.000Z</time>
      </trkpt>
      <trkpt lat="43.64571" lon="1.39962">
        <ele>129</ele>
        <time>2014-04-06T14:18:04.000Z</time>
      </trkpt>
      <trkpt lat="43.64575" lon="1.39962">
        <ele>129</ele>
        <time>2014-04-06T14:18:07.000Z</time>
      </trkpt>
      <trkpt lat="43.64582" lon="1.39961">
        <ele>130</ele>
        <time>2014-04-06T14:18:10.000Z</time>
      </trkpt>
      <trkpt lat="43.64586" lon="1.39959">
        <ele>130</ele>
        <time>2014-04-06T14:18:12.000Z</time>
      </trkpt>
      <trkpt lat="43.64589" lon="1.39957">
        <ele>130</ele>
        <time>2014-04-06T14:18:14.000Z</time>
      </trkpt>
      <trkpt lat="43.64594" lon="1.39952">
        <ele>130</ele>
        <time>2014-04-06T14:18:17.000Z</time>
      </trkpt>
      <trkpt lat="43.64598" lon="1.39951">
        <ele>130</ele>
        <time>2014-04-06T14:18:19.000Z</time>
      </trkpt>
      <trkpt lat="43.64602" lon="1.39952">
        <ele>130</ele>
        <time>2014-04-06T14:18:21.000Z</time>
      </trkpt>
      <trkpt lat="43.64606" lon="1.39952">
        <ele>130</ele>
        <time>2014-04-06T14:18:24.000Z</time>
      </trkpt>
      <trkpt lat="43.64611" lon="1.39951">
        <ele>130</ele>
        <time>2014-04-06T14:18:27.000Z</time>
      </trkpt>
      <trkpt lat="43.64613" lon="1.39951">
        <ele>130</ele>
        <time>2014-04-06T14:18:29.000Z</time>
      </trkpt>
      <trkpt lat="43.64618" lon="1.3995">
        <ele>130</ele>
        <time>2014-04-06T14:18:32.000Z</time>
      </trkpt>
      <trkpt lat="43.64621" lon="1.39948">
        <ele>130</ele>
        <time>2014-04-06T14:18:34.000Z</time>
      </trkpt>
      <trkpt lat="43.64627" lon="1.39948">
        <ele>130</ele>
        <time>2014-04-06T14:18:37.000Z</time>
      </trkpt>
      <trkpt lat="43.64631" lon="1.39948">
        <ele>130</ele>
        <time>2014-04-06T14:18:39.000Z</time>
      </trkpt>
      <trkpt lat="43.64637" lon="1.39947">
        <ele>130</ele>
        <time>2014-04-06T14:18:42.000Z</time>
      </trkpt>
      <trkpt lat="43.64645" lon="1.39946">
        <ele>130</ele>
        <time>2014-04-06T14:18:45.000Z</time>
      </trkpt>
      <trkpt lat="43.64652" lon="1.39946">
        <ele>130</ele>
        <time>2014-04-06T14:18:48.000Z</time>
      </trkpt>
      <trkpt lat="43.64656" lon="1.39947">
        <ele>130</ele>
        <time>2014-04-06T14:18:51.000Z</time>
      </trkpt>
      <trkpt lat="43.6466" lon="1.39947">
        <ele>130</ele>
        <time>2014-04-06T14:18:53.000Z</time>
      </trkpt>
      <trkpt lat="43.64667" lon="1.39947">
        <ele>130</ele>
        <time>2014-04-06T14:18:56.000Z</time>
      </trkpt>
      <trkpt lat="43.64675" lon="1.39945">
        <ele>130</ele>
        <time>2014-04-06T14:18:59.000Z</time>
      </trkpt>
      <trkpt lat="43.64681" lon="1.3994">
        <ele>130</ele>
        <time>2014-04-06T14:19:02.000Z</time>
      </trkpt>
      <trkpt lat="43.64683" lon="1.39937">
        <ele>131</ele>
        <time>2014-04-06T14:19:05.000Z</time>
      </trkpt>
      <trkpt lat="43.64683" lon="1.39937">
        <ele>131</ele>
        <time>2014-04-06T14:19:25.000Z</time>
      </trkpt>
      <trkpt lat="43.64682" lon="1.39934">
        <ele>130</ele>
        <time>2014-04-06T14:20:02.000Z</time>
      </trkpt>
      <trkpt lat="43.64682" lon="1.39934">
        <ele>130</ele>
        <time>2014-04-06T14:20:22.000Z</time>
      </trkpt>
      <trkpt lat="43.64681" lon="1.39931">
        <ele>130</ele>
        <time>2014-04-06T14:20:56.000Z</time>
      </trkpt>
      <trkpt lat="43.64676" lon="1.39931">
        <ele>130</ele>
        <time>2014-04-06T14:20:59.000Z</time>
      </trkpt>
      <trkpt lat="43.64669" lon="1.3993">
        <ele>130</ele>
        <time>2014-04-06T14:21:02.000Z</time>
      </trkpt>
      <trkpt lat="43.64665" lon="1.39929">
        <ele>130</ele>
        <time>2014-04-06T14:21:04.000Z</time>
      </trkpt>
      <trkpt lat="43.64659" lon="1.39927">
        <ele>130</ele>
        <time>2014-04-06T14:21:07.000Z</time>
      </trkpt>
      <trkpt lat="43.64653" lon="1.39925">
        <ele>130</ele>
        <time>2014-04-06T14:21:10.000Z</time>
      </trkpt>
      <trkpt lat="43.64648" lon="1.39925">
        <ele>130</ele>
        <time>2014-04-06T14:21:12.000Z</time>
      </trkpt>
      <trkpt lat="43.64642" lon="1.39926">
        <ele>130</ele>
        <time>2014-04-06T14:21:15.000Z</time>
      </trkpt>
      <trkpt lat="43.64636" lon="1.39926">
        <ele>130</ele>
        <time>2014-04-06T14:21:18.000Z</time>
      </trkpt>
      <trkpt lat="43.64629" lon="1.39928">
        <ele>130</ele>
        <time>2014-04-06T14:21:21.000Z</time>
      </trkpt>
      <trkpt lat="43.64624" lon="1.39929">
        <ele>130</ele>
        <time>2014-04-06T14:21:24.000Z</time>
      </trkpt>
      <trkpt lat="43.64622" lon="1.39929">
        <ele>130</ele>
        <time>2014-04-06T14:21:26.000Z</time>
      </trkpt>
      <trkpt lat="43.64621" lon="1.3993">
        <ele>130</ele>
        <time>2014-04-06T14:21:28.000Z</time>
      </trkpt>
      <trkpt lat="43.64619" lon="1.3993">
        <ele>130</ele>
        <time>2014-04-06T14:21:30.000Z</time>
      </trkpt>
      <trkpt lat="43.64616" lon="1.3993">
        <ele>130</ele>
        <time>2014-04-06T14:21:33.000Z</time>
      </trkpt>
      <trkpt lat="43.64615" lon="1.39931">
        <ele>130</ele>
        <time>2014-04-06T14:21:35.000Z</time>
      </trkpt>
      <trkpt lat="43.64613" lon="1.39932">
        <ele>130</ele>
        <time>2014-04-06T14:21:37.000Z</time>
      </trkpt>
      <trkpt lat="43.64612" lon="1.39931">
        <ele>130</ele>
        <time>2014-04-06T14:21:39.000Z</time>
      </trkpt>
      <trkpt lat="43.64613" lon="1.39933">
        <ele>130</ele>
        <time>2014-04-06T14:21:51.000Z</time>
      </trkpt>
      <trkpt lat="43.64607" lon="1.39932">
        <ele>130</ele>
        <time>2014-04-06T14:21:54.000Z</time>
      </trkpt>
      <trkpt lat="43.64599" lon="1.39933">
        <ele>131</ele>
        <time>2014-04-06T14:21:57.000Z</time>
      </trkpt>
      <trkpt lat="43.64593" lon="1.39935">
        <ele>131</ele>
        <time>2014-04-06T14:21:59.000Z</time>
      </trkpt>
      <trkpt lat="43.64585" lon="1.39936">
        <ele>131</ele>
        <time>2014-04-06T14:22:02.000Z</time>
      </trkpt>
      <trkpt lat="43.64579" lon="1.39938">
        <ele>130</ele>
        <time>2014-04-06T14:22:04.000Z</time>
      </trkpt>
      <trkpt lat="43.64572" lon="1.39942">
        <ele>130</ele>
        <time>2014-04-06T14:22:07.000Z</time>
      </trkpt>
      <trkpt lat="43.64568" lon="1.39944">
        <ele>130</ele>
        <time>2014-04-06T14:22:09.000Z</time>
      </trkpt>
      <trkpt lat="43.64561" lon="1.39945">
        <ele>129</ele>
        <time>2014-04-06T14:22:12.000Z</time>
      </trkpt>
      <trkpt lat="43.64555" lon="1.39946">
        <ele>129</ele>
        <time>2014-04-06T14:22:15.000Z</time>
      </trkpt>
      <trkpt lat="43.64551" lon="1.39946">
        <ele>129</ele>
        <time>2014-04-06T14:22:17.000Z</time>
      </trkpt>
      <trkpt lat="43.64545" lon="1.39948">
        <ele>129</ele>
        <time>2014-04-06T14:22:20.000Z</time>
      </trkpt>
      <trkpt lat="43.64541" lon="1.39949">
        <ele>129</ele>
        <time>2014-04-06T14:22:22.000Z</time>
      </trkpt>
      <trkpt lat="43.64536" lon="1.39949">
        <ele>129</ele>
        <time>2014-04-06T14:22:25.000Z</time>
      </trkpt>
      <trkpt lat="43.64534" lon="1.39949">
        <ele>129</ele>
        <time>2014-04-06T14:22:27.000Z</time>
      </trkpt>
      <trkpt lat="43.64536" lon="1.39952">
        <ele>129</ele>
        <time>2014-04-06T14:22:30.000Z</time>
      </trkpt>
      <trkpt lat="43.64537" lon="1.39953">
        <ele>129</ele>
        <time>2014-04-06T14:22:33.000Z</time>
      </trkpt>
      <trkpt lat="43.64537" lon="1.39958">
        <ele>129</ele>
        <time>2014-04-06T14:22:37.000Z</time>
      </trkpt>
      <trkpt lat="43.64534" lon="1.39957">
        <ele>129</ele>
        <time>2014-04-06T14:22:41.000Z</time>
      </trkpt>
      <trkpt lat="43.64528" lon="1.39955">
        <ele>129</ele>
        <time>2014-04-06T14:22:44.000Z</time>
      </trkpt>
      <trkpt lat="43.64523" lon="1.39955">
        <ele>129</ele>
        <time>2014-04-06T14:22:46.000Z</time>
      </trkpt>
      <trkpt lat="43.64516" lon="1.39954">
        <ele>129</ele>
        <time>2014-04-06T14:22:49.000Z</time>
      </trkpt>
      <trkpt lat="43.64511" lon="1.39953">
        <ele>128</ele>
        <time>2014-04-06T14:22:51.000Z</time>
      </trkpt>
      <trkpt lat="43.64505" lon="1.39951">
        <ele>128</ele>
        <time>2014-04-06T14:22:54.000Z</time>
      </trkpt>
      <trkpt lat="43.64502" lon="1.3995">
        <ele>128</ele>
        <time>2014-04-06T14:22:56.000Z</time>
      </trkpt>
      <trkpt lat="43.64495" lon="1.3995">
        <ele>127</ele>
        <time>2014-04-06T14:22:59.000Z</time>
      </trkpt>
      <trkpt lat="43.64489" lon="1.39952">
        <ele>127</ele>
        <time>2014-04-06T14:23:02.000Z</time>
      </trkpt>
      <trkpt lat="43.64486" lon="1.39954">
        <ele>127</ele>
        <time>2014-04-06T14:23:04.000Z</time>
      </trkpt>
      <trkpt lat="43.64479" lon="1.39955">
        <ele>127</ele>
        <time>2014-04-06T14:23:07.000Z</time>
      </trkpt>
      <trkpt lat="43.64475" lon="1.39956">
        <ele>127</ele>
        <time>2014-04-06T14:23:09.000Z</time>
      </trkpt>
      <trkpt lat="43.64469" lon="1.39959">
        <ele>127</ele>
        <time>2014-04-06T14:23:11.000Z</time>
      </trkpt>
      <trkpt lat="43.64458" lon="1.39961">
        <ele>127</ele>
        <time>2014-04-06T14:23:14.000Z</time>
      </trkpt>
      <trkpt lat="43.64453" lon="1.39962">
        <ele>127</ele>
        <time>2014-04-06T14:23:16.000Z</time>
      </trkpt>
      <trkpt lat="43.64448" lon="1.39963">
        <ele>127</ele>
        <time>2014-04-06T14:23:18.000Z</time>
      </trkpt>
      <trkpt lat="43.6444" lon="1.39961">
        <ele>127</ele>
        <time>2014-04-06T14:23:21.000Z</time>
      </trkpt>
      <trkpt lat="43.64432" lon="1.39961">
        <ele>127</ele>
        <time>2014-04-06T14:23:24.000Z</time>
      </trkpt>
      <trkpt lat="43.64427" lon="1.39959">
        <ele>127</ele>
        <time>2014-04-06T14:23:26.000Z</time>
      </trkpt>
      <trkpt lat="43.64418" lon="1.39956">
        <ele>127</ele>
        <time>2014-04-06T14:23:29.000Z</time>
      </trkpt>
      <trkpt lat="43.6441" lon="1.39955">
        <ele>128</ele>
        <time>2014-04-06T14:23:32.000Z</time>
      </trkpt>
      <trkpt lat="43.644" lon="1.39955">
        <ele>128</ele>
        <time>2014-04-06T14:23:35.000Z</time>
      </trkpt>
      <trkpt lat="43.64392" lon="1.39955">
        <ele>128</ele>
        <time>2014-04-06T14:23:38.000Z</time>
      </trkpt>
      <trkpt lat="43.64383" lon="1.39953">
        <ele>128</ele>
        <time>2014-04-06T14:23:41.000Z</time>
      </trkpt>
      <trkpt lat="43.64376" lon="1.39952">
        <ele>128</ele>
        <time>2014-04-06T14:23:43.000Z</time>
      </trkpt>
      <trkpt lat="43.64367" lon="1.3995">
        <ele>128</ele>
        <time>2014-04-06T14:23:46.000Z</time>
      </trkpt>
      <trkpt lat="43.64361" lon="1.39948">
        <ele>128</ele>
        <time>2014-04-06T14:23:48.000Z</time>
      </trkpt>
      <trkpt lat="43.64355" lon="1.39946">
        <ele>128</ele>
        <time>2014-04-06T14:23:50.000Z</time>
      </trkpt>
      <trkpt lat="43.64347" lon="1.39945">
        <ele>128</ele>
        <time>2014-04-06T14:23:53.000Z</time>
      </trkpt>
      <trkpt lat="43.64341" lon="1.39944">
        <ele>128</ele>
        <time>2014-04-06T14:23:55.000Z</time>
      </trkpt>
      <trkpt lat="43.64332" lon="1.39941">
        <ele>130</ele>
        <time>2014-04-06T14:23:58.000Z</time>
      </trkpt>
      <trkpt lat="43.64324" lon="1.39937">
        <ele>130</ele>
        <time>2014-04-06T14:24:01.000Z</time>
      </trkpt>
      <trkpt lat="43.64318" lon="1.39936">
        <ele>130</ele>
        <time>2014-04-06T14:24:03.000Z</time>
      </trkpt>
      <trkpt lat="43.64312" lon="1.39934">
        <ele>130</ele>
        <time>2014-04-06T14:24:05.000Z</time>
      </trkpt>
      <trkpt lat="43.64303" lon="1.39931">
        <ele>130</ele>
        <time>2014-04-06T14:24:08.000Z</time>
      </trkpt>
      <trkpt lat="43.64294" lon="1.39928">
        <ele>130</ele>
        <time>2014-04-06T14:24:11.000Z</time>
      </trkpt>
      <trkpt lat="43.64289" lon="1.39925">
        <ele>130</ele>
        <time>2014-04-06T14:24:13.000Z</time>
      </trkpt>
      <trkpt lat="43.6428" lon="1.39922">
        <ele>130</ele>
        <time>2014-04-06T14:24:16.000Z</time>
      </trkpt>
      <trkpt lat="43.64273" lon="1.39922">
        <ele>130</ele>
        <time>2014-04-06T14:24:18.000Z</time>
      </trkpt>
      <trkpt lat="43.64264" lon="1.39921">
        <ele>130</ele>
        <time>2014-04-06T14:24:21.000Z</time>
      </trkpt>
      <trkpt lat="43.64257" lon="1.39922">
        <ele>130</ele>
        <time>2014-04-06T14:24:23.000Z</time>
      </trkpt>
      <trkpt lat="43.64251" lon="1.39923">
        <ele>130</ele>
        <time>2014-04-06T14:24:25.000Z</time>
      </trkpt>
      <trkpt lat="43.64244" lon="1.39924">
        <ele>130</ele>
        <time>2014-04-06T14:24:27.000Z</time>
      </trkpt>
      <trkpt lat="43.64235" lon="1.39926">
        <ele>131</ele>
        <time>2014-04-06T14:24:30.000Z</time>
      </trkpt>
      <trkpt lat="43.64229" lon="1.39927">
        <ele>131</ele>
        <time>2014-04-06T14:24:32.000Z</time>
      </trkpt>
      <trkpt lat="43.64223" lon="1.3993">
        <ele>131</ele>
        <time>2014-04-06T14:24:34.000Z</time>
      </trkpt>
      <trkpt lat="43.64217" lon="1.39935">
        <ele>131</ele>
        <time>2014-04-06T14:24:36.000Z</time>
      </trkpt>
      <trkpt lat="43.64212" lon="1.39942">
        <ele>131</ele>
        <time>2014-04-06T14:24:38.000Z</time>
      </trkpt>
      <trkpt lat="43.64207" lon="1.39948">
        <ele>131</ele>
        <time>2014-04-06T14:24:40.000Z</time>
      </trkpt>
      <trkpt lat="43.64199" lon="1.39955">
        <ele>131</ele>
        <time>2014-04-06T14:24:43.000Z</time>
      </trkpt>
      <trkpt lat="43.64191" lon="1.39962">
        <ele>131</ele>
        <time>2014-04-06T14:24:46.000Z</time>
      </trkpt>
      <trkpt lat="43.64184" lon="1.39965">
        <ele>131</ele>
        <time>2014-04-06T14:24:48.000Z</time>
      </trkpt>
      <trkpt lat="43.64174" lon="1.39967">
        <ele>131</ele>
        <time>2014-04-06T14:24:51.000Z</time>
      </trkpt>
      <trkpt lat="43.64167" lon="1.39968">
        <ele>131</ele>
        <time>2014-04-06T14:24:53.000Z</time>
      </trkpt>
      <trkpt lat="43.64156" lon="1.39969">
        <ele>132</ele>
        <time>2014-04-06T14:24:56.000Z</time>
      </trkpt>
      <trkpt lat="43.64146" lon="1.39973">
        <ele>132</ele>
        <time>2014-04-06T14:24:59.000Z</time>
      </trkpt>
      <trkpt lat="43.64135" lon="1.39977">
        <ele>132</ele>
        <time>2014-04-06T14:25:02.000Z</time>
      </trkpt>
      <trkpt lat="43.64125" lon="1.39979">
        <ele>132</ele>
        <time>2014-04-06T14:25:05.000Z</time>
      </trkpt>
      <trkpt lat="43.64116" lon="1.39983">
        <ele>132</ele>
        <time>2014-04-06T14:25:08.000Z</time>
      </trkpt>
      <trkpt lat="43.64109" lon="1.39993">
        <ele>132</ele>
        <time>2014-04-06T14:25:11.000Z</time>
      </trkpt>
      <trkpt lat="43.64107" lon="1.40001">
        <ele>132</ele>
        <time>2014-04-06T14:25:13.000Z</time>
      </trkpt>
      <trkpt lat="43.64104" lon="1.40008">
        <ele>132</ele>
        <time>2014-04-06T14:25:15.000Z</time>
      </trkpt>
      <trkpt lat="43.64101" lon="1.40018">
        <ele>132</ele>
        <time>2014-04-06T14:25:18.000Z</time>
      </trkpt>
      <trkpt lat="43.64097" lon="1.40029">
        <ele>132</ele>
        <time>2014-04-06T14:25:21.000Z</time>
      </trkpt>
      <trkpt lat="43.64093" lon="1.40041">
        <ele>132</ele>
        <time>2014-04-06T14:25:24.000Z</time>
      </trkpt>
      <trkpt lat="43.64088" lon="1.40052">
        <ele>132</ele>
        <time>2014-04-06T14:25:27.000Z</time>
      </trkpt>
      <trkpt lat="43.64083" lon="1.40058">
        <ele>132</ele>
        <time>2014-04-06T14:25:29.000Z</time>
      </trkpt>
      <trkpt lat="43.64076" lon="1.40066">
        <ele>130</ele>
        <time>2014-04-06T14:25:32.000Z</time>
      </trkpt>
      <trkpt lat="43.64071" lon="1.4007">
        <ele>130</ele>
        <time>2014-04-06T14:25:34.000Z</time>
      </trkpt>
      <trkpt lat="43.64063" lon="1.40078">
        <ele>130</ele>
        <time>2014-04-06T14:25:37.000Z</time>
      </trkpt>
      <trkpt lat="43.64055" lon="1.40087">
        <ele>130</ele>
        <time>2014-04-06T14:25:40.000Z</time>
      </trkpt>
      <trkpt lat="43.64049" lon="1.40094">
        <ele>130</ele>
        <time>2014-04-06T14:25:42.000Z</time>
      </trkpt>
      <trkpt lat="43.64041" lon="1.40101">
        <ele>130</ele>
        <time>2014-04-06T14:25:45.000Z</time>
      </trkpt>
      <trkpt lat="43.64035" lon="1.40107">
        <ele>130</ele>
        <time>2014-04-06T14:25:47.000Z</time>
      </trkpt>
      <trkpt lat="43.64027" lon="1.40113">
        <ele>130</ele>
        <time>2014-04-06T14:25:50.000Z</time>
      </trkpt>
      <trkpt lat="43.64019" lon="1.4012">
        <ele>130</ele>
        <time>2014-04-06T14:25:53.000Z</time>
      </trkpt>
      <trkpt lat="43.64014" lon="1.40125">
        <ele>130</ele>
        <time>2014-04-06T14:25:55.000Z</time>
      </trkpt>
      <trkpt lat="43.64006" lon="1.40134">
        <ele>130</ele>
        <time>2014-04-06T14:25:58.000Z</time>
      </trkpt>
      <trkpt lat="43.63999" lon="1.40143">
        <ele>130</ele>
        <time>2014-04-06T14:26:01.000Z</time>
      </trkpt>
      <trkpt lat="43.6399" lon="1.40149">
        <ele>130</ele>
        <time>2014-04-06T14:26:04.000Z</time>
      </trkpt>
      <trkpt lat="43.63982" lon="1.40156">
        <ele>130</ele>
        <time>2014-04-06T14:26:07.000Z</time>
      </trkpt>
      <trkpt lat="43.63974" lon="1.40162">
        <ele>130</ele>
        <time>2014-04-06T14:26:10.000Z</time>
      </trkpt>
      <trkpt lat="43.63965" lon="1.40168">
        <ele>130</ele>
        <time>2014-04-06T14:26:13.000Z</time>
      </trkpt>
      <trkpt lat="43.6396" lon="1.40173">
        <ele>130</ele>
        <time>2014-04-06T14:26:15.000Z</time>
      </trkpt>
      <trkpt lat="43.63952" lon="1.40182">
        <ele>130</ele>
        <time>2014-04-06T14:26:18.000Z</time>
      </trkpt>
      <trkpt lat="43.63947" lon="1.40187">
        <ele>130</ele>
        <time>2014-04-06T14:26:20.000Z</time>
      </trkpt>
      <trkpt lat="43.63939" lon="1.40192">
        <ele>130</ele>
        <time>2014-04-06T14:26:23.000Z</time>
      </trkpt>
      <trkpt lat="43.63933" lon="1.40195">
        <ele>130</ele>
        <time>2014-04-06T14:26:25.000Z</time>
      </trkpt>
      <trkpt lat="43.63925" lon="1.402">
        <ele>130</ele>
        <time>2014-04-06T14:26:28.000Z</time>
      </trkpt>
      <trkpt lat="43.63916" lon="1.40206">
        <ele>130</ele>
        <time>2014-04-06T14:26:31.000Z</time>
      </trkpt>
      <trkpt lat="43.6391" lon="1.40209">
        <ele>130</ele>
        <time>2014-04-06T14:26:33.000Z</time>
      </trkpt>
      <trkpt lat="43.63901" lon="1.40212">
        <ele>130</ele>
        <time>2014-04-06T14:26:36.000Z</time>
      </trkpt>
      <trkpt lat="43.63891" lon="1.40216">
        <ele>130</ele>
        <time>2014-04-06T14:26:39.000Z</time>
      </trkpt>
      <trkpt lat="43.63885" lon="1.40219">
        <ele>130</ele>
        <time>2014-04-06T14:26:41.000Z</time>
      </trkpt>
      <trkpt lat="43.63879" lon="1.40222">
        <ele>130</ele>
        <time>2014-04-06T14:26:43.000Z</time>
      </trkpt>
      <trkpt lat="43.63872" lon="1.40225">
        <ele>130</ele>
        <time>2014-04-06T14:26:46.000Z</time>
      </trkpt>
      <trkpt lat="43.63866" lon="1.40227">
        <ele>130</ele>
        <time>2014-04-06T14:26:49.000Z</time>
      </trkpt>
      <trkpt lat="43.63862" lon="1.40225">
        <ele>130</ele>
        <time>2014-04-06T14:26:51.000Z</time>
      </trkpt>
      <trkpt lat="43.63857" lon="1.40225">
        <ele>130</ele>
        <time>2014-04-06T14:26:54.000Z</time>
      </trkpt>
      <trkpt lat="43.63855" lon="1.40226">
        <ele>130</ele>
        <time>2014-04-06T14:26:57.000Z</time>
      </trkpt>
      <trkpt lat="43.63857" lon="1.40233">
        <ele>130</ele>
        <time>2014-04-06T14:27:00.000Z</time>
      </trkpt>
      <trkpt lat="43.63857" lon="1.40233">
        <ele>130</ele>
        <time>2014-04-06T14:27:20.000Z</time>
      </trkpt>
      <trkpt lat="43.63859" lon="1.40237">
        <ele>130</ele>
        <time>2014-04-06T14:27:36.000Z</time>
      </trkpt>
      <trkpt lat="43.63859" lon="1.40237">
        <ele>130</ele>
        <time>2014-04-06T14:27:56.000Z</time>
      </trkpt>
      <trkpt lat="43.63858" lon="1.4024">
        <ele>130</ele>
        <time>2014-04-06T14:28:22.000Z</time>
      </trkpt>
      <trkpt lat="43.63856" lon="1.40239">
        <ele>130</ele>
        <time>2014-04-06T14:28:24.000Z</time>
      </trkpt>
      <trkpt lat="43.63852" lon="1.40239">
        <ele>130</ele>
        <time>2014-04-06T14:28:27.000Z</time>
      </trkpt>
      <trkpt lat="43.63847" lon="1.40238">
        <ele>130</ele>
        <time>2014-04-06T14:28:30.000Z</time>
      </trkpt>
      <trkpt lat="43.63843" lon="1.40236">
        <ele>130</ele>
        <time>2014-04-06T14:28:32.000Z</time>
      </trkpt>
      <trkpt lat="43.63837" lon="1.40235">
        <ele>130</ele>
        <time>2014-04-06T14:28:35.000Z</time>
      </trkpt>
      <trkpt lat="43.63826" lon="1.40236">
        <ele>130</ele>
        <time>2014-04-06T14:28:38.000Z</time>
      </trkpt>
      <trkpt lat="43.63819" lon="1.40237">
        <ele>130</ele>
        <time>2014-04-06T14:28:40.000Z</time>
      </trkpt>
      <trkpt lat="43.63811" lon="1.40238">
        <ele>129</ele>
        <time>2014-04-06T14:28:42.000Z</time>
      </trkpt>
      <trkpt lat="43.63803" lon="1.4024">
        <ele>129</ele>
        <time>2014-04-06T14:28:44.000Z</time>
      </trkpt>
      <trkpt lat="43.63792" lon="1.40243">
        <ele>129</ele>
        <time>2014-04-06T14:28:47.000Z</time>
      </trkpt>
      <trkpt lat="43.63785" lon="1.40245">
        <ele>129</ele>
        <time>2014-04-06T14:28:49.000Z</time>
      </trkpt>
      <trkpt lat="43.63778" lon="1.40246">
        <ele>129</ele>
        <time>2014-04-06T14:28:51.000Z</time>
      </trkpt>
      <trkpt lat="43.63766" lon="1.40247">
        <ele>129</ele>
        <time>2014-04-06T14:28:54.000Z</time>
      </trkpt>
      <trkpt lat="43.63756" lon="1.40249">
        <ele>129</ele>
        <time>2014-04-06T14:28:57.000Z</time>
      </trkpt>
      <trkpt lat="43.63749" lon="1.40251">
        <ele>129</ele>
        <time>2014-04-06T14:28:59.000Z</time>
      </trkpt>
      <trkpt lat="43.63739" lon="1.40254">
        <ele>128</ele>
        <time>2014-04-06T14:29:02.000Z</time>
      </trkpt>
      <trkpt lat="43.63733" lon="1.40255">
        <ele>128</ele>
        <time>2014-04-06T14:29:04.000Z</time>
      </trkpt>
      <trkpt lat="43.63722" lon="1.40257">
        <ele>128</ele>
        <time>2014-04-06T14:29:07.000Z</time>
      </trkpt>
      <trkpt lat="43.63712" lon="1.40258">
        <ele>128</ele>
        <time>2014-04-06T14:29:10.000Z</time>
      </trkpt>
      <trkpt lat="43.63705" lon="1.40258">
        <ele>128</ele>
        <time>2014-04-06T14:29:12.000Z</time>
      </trkpt>
      <trkpt lat="43.63695" lon="1.40259">
        <ele>128</ele>
        <time>2014-04-06T14:29:15.000Z</time>
      </trkpt>
      <trkpt lat="43.63685" lon="1.40262">
        <ele>128</ele>
        <time>2014-04-06T14:29:18.000Z</time>
      </trkpt>
      <trkpt lat="43.63675" lon="1.40263">
        <ele>129</ele>
        <time>2014-04-06T14:29:21.000Z</time>
      </trkpt>
      <trkpt lat="43.63668" lon="1.40265">
        <ele>129</ele>
        <time>2014-04-06T14:29:23.000Z</time>
      </trkpt>
      <trkpt lat="43.63659" lon="1.40264">
        <ele>130</ele>
        <time>2014-04-06T14:29:26.000Z</time>
      </trkpt>
      <trkpt lat="43.63649" lon="1.40263">
        <ele>130</ele>
        <time>2014-04-06T14:29:29.000Z</time>
      </trkpt>
      <trkpt lat="43.63643" lon="1.40263">
        <ele>130</ele>
        <time>2014-04-06T14:29:31.000Z</time>
      </trkpt>
      <trkpt lat="43.63633" lon="1.40264">
        <ele>130</ele>
        <time>2014-04-06T14:29:34.000Z</time>
      </trkpt>
      <trkpt lat="43.63627" lon="1.40267">
        <ele>130</ele>
        <time>2014-04-06T14:29:36.000Z</time>
      </trkpt>
      <trkpt lat="43.63617" lon="1.4027">
        <ele>130</ele>
        <time>2014-04-06T14:29:39.000Z</time>
      </trkpt>
      <trkpt lat="43.63611" lon="1.4027">
        <ele>130</ele>
        <time>2014-04-06T14:29:41.000Z</time>
      </trkpt>
      <trkpt lat="43.63602" lon="1.4027">
        <ele>130</ele>
        <time>2014-04-06T14:29:44.000Z</time>
      </trkpt>
      <trkpt lat="43.63593" lon="1.40264">
        <ele>130</ele>
        <time>2014-04-06T14:29:47.000Z</time>
      </trkpt>
      <trkpt lat="43.63583" lon="1.4026">
        <ele>131</ele>
        <time>2014-04-06T14:29:50.000Z</time>
      </trkpt>
      <trkpt lat="43.63575" lon="1.40257">
        <ele>130</ele>
        <time>2014-04-06T14:29:53.000Z</time>
      </trkpt>
      <trkpt lat="43.63567" lon="1.40256">
        <ele>129</ele>
        <time>2014-04-06T14:29:56.000Z</time>
      </trkpt>
      <trkpt lat="43.63559" lon="1.40257">
        <ele>129</ele>
        <time>2014-04-06T14:29:59.000Z</time>
      </trkpt>
      <trkpt lat="43.6355" lon="1.40256">
        <ele>129</ele>
        <time>2014-04-06T14:30:02.000Z</time>
      </trkpt>
      <trkpt lat="43.63545" lon="1.40255">
        <ele>129</ele>
        <time>2014-04-06T14:30:04.000Z</time>
      </trkpt>
      <trkpt lat="43.63538" lon="1.40253">
        <ele>129</ele>
        <time>2014-04-06T14:30:07.000Z</time>
      </trkpt>
      <trkpt lat="43.63533" lon="1.40251">
        <ele>129</ele>
        <time>2014-04-06T14:30:09.000Z</time>
      </trkpt>
      <trkpt lat="43.63524" lon="1.40248">
        <ele>131</ele>
        <time>2014-04-06T14:30:12.000Z</time>
      </trkpt>
      <trkpt lat="43.63517" lon="1.40245">
        <ele>131</ele>
        <time>2014-04-06T14:30:14.000Z</time>
      </trkpt>
      <trkpt lat="43.6351" lon="1.40243">
        <ele>131</ele>
        <time>2014-04-06T14:30:16.000Z</time>
      </trkpt>
      <trkpt lat="43.635" lon="1.40242">
        <ele>131</ele>
        <time>2014-04-06T14:30:19.000Z</time>
      </trkpt>
      <trkpt lat="43.63493" lon="1.4024">
        <ele>131</ele>
        <time>2014-04-06T14:30:21.000Z</time>
      </trkpt>
      <trkpt lat="43.63485" lon="1.40239">
        <ele>131</ele>
        <time>2014-04-06T14:30:23.000Z</time>
      </trkpt>
      <trkpt lat="43.63472" lon="1.40237">
        <ele>131</ele>
        <time>2014-04-06T14:30:26.000Z</time>
      </trkpt>
      <trkpt lat="43.63462" lon="1.40236">
        <ele>130</ele>
        <time>2014-04-06T14:30:29.000Z</time>
      </trkpt>
      <trkpt lat="43.63456" lon="1.40235">
        <ele>130</ele>
        <time>2014-04-06T14:30:31.000Z</time>
      </trkpt>
      <trkpt lat="43.63451" lon="1.40233">
        <ele>130</ele>
        <time>2014-04-06T14:30:34.000Z</time>
      </trkpt>
      <trkpt lat="43.63446" lon="1.40231">
        <ele>130</ele>
        <time>2014-04-06T14:30:37.000Z</time>
      </trkpt>
      <trkpt lat="43.63441" lon="1.4023">
        <ele>130</ele>
        <time>2014-04-06T14:30:39.000Z</time>
      </trkpt>
      <trkpt lat="43.63437" lon="1.4023">
        <ele>130</ele>
        <time>2014-04-06T14:30:41.000Z</time>
      </trkpt>
      <trkpt lat="43.63429" lon="1.40227">
        <ele>130</ele>
        <time>2014-04-06T14:30:44.000Z</time>
      </trkpt>
      <trkpt lat="43.63424" lon="1.40223">
        <ele>130</ele>
        <time>2014-04-06T14:30:46.000Z</time>
      </trkpt>
      <trkpt lat="43.63418" lon="1.40221">
        <ele>130</ele>
        <time>2014-04-06T14:30:48.000Z</time>
      </trkpt>
      <trkpt lat="43.63409" lon="1.40217">
        <ele>129</ele>
        <time>2014-04-06T14:30:51.000Z</time>
      </trkpt>
      <trkpt lat="43.63403" lon="1.40214">
        <ele>129</ele>
        <time>2014-04-06T14:30:53.000Z</time>
      </trkpt>
      <trkpt lat="43.63394" lon="1.40211">
        <ele>129</ele>
        <time>2014-04-06T14:30:56.000Z</time>
      </trkpt>
      <trkpt lat="43.63389" lon="1.40209">
        <ele>129</ele>
        <time>2014-04-06T14:30:58.000Z</time>
      </trkpt>
      <trkpt lat="43.63384" lon="1.40208">
        <ele>129</ele>
        <time>2014-04-06T14:31:00.000Z</time>
      </trkpt>
      <trkpt lat="43.63376" lon="1.40205">
        <ele>129</ele>
        <time>2014-04-06T14:31:03.000Z</time>
      </trkpt>
      <trkpt lat="43.63367" lon="1.402">
        <ele>129</ele>
        <time>2014-04-06T14:31:06.000Z</time>
      </trkpt>
      <trkpt lat="43.63361" lon="1.40197">
        <ele>128</ele>
        <time>2014-04-06T14:31:08.000Z</time>
      </trkpt>
      <trkpt lat="43.63351" lon="1.40193">
        <ele>128</ele>
        <time>2014-04-06T14:31:11.000Z</time>
      </trkpt>
      <trkpt lat="43.63339" lon="1.40189">
        <ele>128</ele>
        <time>2014-04-06T14:31:14.000Z</time>
      </trkpt>
      <trkpt lat="43.63332" lon="1.40186">
        <ele>127</ele>
        <time>2014-04-06T14:31:16.000Z</time>
      </trkpt>
      <trkpt lat="43.63321" lon="1.40181">
        <ele>127</ele>
        <time>2014-04-06T14:31:19.000Z</time>
      </trkpt>
      <trkpt lat="43.63314" lon="1.40177">
        <ele>127</ele>
        <time>2014-04-06T14:31:21.000Z</time>
      </trkpt>
      <trkpt lat="43.63304" lon="1.40173">
        <ele>127</ele>
        <time>2014-04-06T14:31:24.000Z</time>
      </trkpt>
      <trkpt lat="43.63294" lon="1.40169">
        <ele>127</ele>
        <time>2014-04-06T14:31:27.000Z</time>
      </trkpt>
      <trkpt lat="43.63287" lon="1.40167">
        <ele>127</ele>
        <time>2014-04-06T14:31:29.000Z</time>
      </trkpt>
      <trkpt lat="43.6328" lon="1.40166">
        <ele>127</ele>
        <time>2014-04-06T14:31:31.000Z</time>
      </trkpt>
      <trkpt lat="43.63269" lon="1.40163">
        <ele>127</ele>
        <time>2014-04-06T14:31:34.000Z</time>
      </trkpt>
      <trkpt lat="43.63259" lon="1.40159">
        <ele>127</ele>
        <time>2014-04-06T14:31:37.000Z</time>
      </trkpt>
      <trkpt lat="43.63252" lon="1.40155">
        <ele>127</ele>
        <time>2014-04-06T14:31:39.000Z</time>
      </trkpt>
      <trkpt lat="43.63245" lon="1.40152">
        <ele>127</ele>
        <time>2014-04-06T14:31:41.000Z</time>
      </trkpt>
      <trkpt lat="43.63235" lon="1.40145">
        <ele>127</ele>
        <time>2014-04-06T14:31:44.000Z</time>
      </trkpt>
      <trkpt lat="43.63224" lon="1.40142">
        <ele>128</ele>
        <time>2014-04-06T14:31:47.000Z</time>
      </trkpt>
      <trkpt lat="43.63214" lon="1.40139">
        <ele>128</ele>
        <time>2014-04-06T14:31:50.000Z</time>
      </trkpt>
      <trkpt lat="43.63207" lon="1.40137">
        <ele>128</ele>
        <time>2014-04-06T14:31:52.000Z</time>
      </trkpt>
      <trkpt lat="43.63198" lon="1.40134">
        <ele>128</ele>
        <time>2014-04-06T14:31:55.000Z</time>
      </trkpt>
      <trkpt lat="43.63191" lon="1.40133">
        <ele>129</ele>
        <time>2014-04-06T14:31:57.000Z</time>
      </trkpt>
      <trkpt lat="43.63181" lon="1.4013">
        <ele>129</ele>
        <time>2014-04-06T14:32:00.000Z</time>
      </trkpt>
      <trkpt lat="43.63174" lon="1.40128">
        <ele>129</ele>
        <time>2014-04-06T14:32:02.000Z</time>
      </trkpt>
      <trkpt lat="43.63164" lon="1.40124">
        <ele>129</ele>
        <time>2014-04-06T14:32:05.000Z</time>
      </trkpt>
      <trkpt lat="43.63157" lon="1.40122">
        <ele>129</ele>
        <time>2014-04-06T14:32:07.000Z</time>
      </trkpt>
      <trkpt lat="43.63147" lon="1.40119">
        <ele>129</ele>
        <time>2014-04-06T14:32:10.000Z</time>
      </trkpt>
      <trkpt lat="43.6314" lon="1.40118">
        <ele>129</ele>
        <time>2014-04-06T14:32:12.000Z</time>
      </trkpt>
      <trkpt lat="43.63132" lon="1.40116">
        <ele>129</ele>
        <time>2014-04-06T14:32:15.000Z</time>
      </trkpt>
      <trkpt lat="43.63128" lon="1.40113">
        <ele>129</ele>
        <time>2014-04-06T14:32:17.000Z</time>
      </trkpt>
      <trkpt lat="43.63123" lon="1.40111">
        <ele>129</ele>
        <time>2014-04-06T14:32:19.000Z</time>
      </trkpt>
      <trkpt lat="43.63115" lon="1.40107">
        <ele>129</ele>
        <time>2014-04-06T14:32:22.000Z</time>
      </trkpt>
      <trkpt lat="43.63108" lon="1.40104">
        <ele>129</ele>
        <time>2014-04-06T14:32:24.000Z</time>
      </trkpt>
      <trkpt lat="43.63099" lon="1.40101">
        <ele>129</ele>
        <time>2014-04-06T14:32:27.000Z</time>
      </trkpt>
      <trkpt lat="43.63088" lon="1.40098">
        <ele>129</ele>
        <time>2014-04-06T14:32:30.000Z</time>
      </trkpt>
      <trkpt lat="43.63076" lon="1.40094">
        <ele>130</ele>
        <time>2014-04-06T14:32:33.000Z</time>
      </trkpt>
      <trkpt lat="43.6307" lon="1.40092">
        <ele>130</ele>
        <time>2014-04-06T14:32:35.000Z</time>
      </trkpt>
      <trkpt lat="43.63062" lon="1.40091">
        <ele>131</ele>
        <time>2014-04-06T14:32:37.000Z</time>
      </trkpt>
      <trkpt lat="43.63052" lon="1.40089">
        <ele>131</ele>
        <time>2014-04-06T14:32:40.000Z</time>
      </trkpt>
      <trkpt lat="43.63042" lon="1.40088">
        <ele>132</ele>
        <time>2014-04-06T14:32:43.000Z</time>
      </trkpt>
      <trkpt lat="43.63036" lon="1.40087">
        <ele>132</ele>
        <time>2014-04-06T14:32:45.000Z</time>
      </trkpt>
      <trkpt lat="43.63031" lon="1.40086">
        <ele>132</ele>
        <time>2014-04-06T14:32:47.000Z</time>
      </trkpt>
      <trkpt lat="43.63025" lon="1.40084">
        <ele>132</ele>
        <time>2014-04-06T14:32:50.000Z</time>
      </trkpt>
      <trkpt lat="43.6302" lon="1.40082">
        <ele>133</ele>
        <time>2014-04-06T14:32:52.000Z</time>
      </trkpt>
      <trkpt lat="43.63012" lon="1.40081">
        <ele>132</ele>
        <time>2014-04-06T14:32:55.000Z</time>
      </trkpt>
      <trkpt lat="43.63005" lon="1.40079">
        <ele>132</ele>
        <time>2014-04-06T14:32:57.000Z</time>
      </trkpt>
      <trkpt lat="43.62997" lon="1.40078">
        <ele>133</ele>
        <time>2014-04-06T14:33:00.000Z</time>
      </trkpt>
      <trkpt lat="43.62991" lon="1.40077">
        <ele>133</ele>
        <time>2014-04-06T14:33:02.000Z</time>
      </trkpt>
      <trkpt lat="43.62982" lon="1.40071">
        <ele>134</ele>
        <time>2014-04-06T14:33:05.000Z</time>
      </trkpt>
      <trkpt lat="43.62976" lon="1.4007">
        <ele>134</ele>
        <time>2014-04-06T14:33:07.000Z</time>
      </trkpt>
      <trkpt lat="43.62973" lon="1.40069">
        <ele>134</ele>
        <time>2014-04-06T14:33:10.000Z</time>
      </trkpt>
      <trkpt lat="43.62975" lon="1.40069">
        <ele>134</ele>
        <time>2014-04-06T14:33:15.000Z</time>
      </trkpt>
      <trkpt lat="43.62977" lon="1.40071">
        <ele>134</ele>
        <time>2014-04-06T14:33:17.000Z</time>
      </trkpt>
      <trkpt lat="43.62985" lon="1.40073">
        <ele>134</ele>
        <time>2014-04-06T14:33:20.000Z</time>
      </trkpt>
      <trkpt lat="43.62991" lon="1.40075">
        <ele>133</ele>
        <time>2014-04-06T14:33:22.000Z</time>
      </trkpt>
      <trkpt lat="43.63001" lon="1.40078">
        <ele>132</ele>
        <time>2014-04-06T14:33:25.000Z</time>
      </trkpt>
      <trkpt lat="43.63007" lon="1.40079">
        <ele>132</ele>
        <time>2014-04-06T14:33:27.000Z</time>
      </trkpt>
      <trkpt lat="43.63011" lon="1.40078">
        <ele>133</ele>
        <time>2014-04-06T14:33:30.000Z</time>
      </trkpt>
      <trkpt lat="43.63013" lon="1.40075">
        <ele>133</ele>
        <time>2014-04-06T14:33:32.000Z</time>
      </trkpt>
      <trkpt lat="43.63014" lon="1.40071">
        <ele>133</ele>
        <time>2014-04-06T14:33:34.000Z</time>
      </trkpt>
      <trkpt lat="43.63022" lon="1.4007">
        <ele>133</ele>
        <time>2014-04-06T14:33:37.000Z</time>
      </trkpt>
      <trkpt lat="43.63029" lon="1.4007">
        <ele>133</ele>
        <time>2014-04-06T14:33:39.000Z</time>
      </trkpt>
      <trkpt lat="43.6304" lon="1.40069">
        <ele>133</ele>
        <time>2014-04-06T14:33:42.000Z</time>
      </trkpt>
      <trkpt lat="43.63045" lon="1.40071">
        <ele>133</ele>
        <time>2014-04-06T14:33:44.000Z</time>
      </trkpt>
      <trkpt lat="43.63048" lon="1.4007">
        <ele>132</ele>
        <time>2014-04-06T14:33:47.000Z</time>
      </trkpt>
      <trkpt lat="43.6305" lon="1.4007">
        <ele>132</ele>
        <time>2014-04-06T14:33:50.000Z</time>
      </trkpt>
      <trkpt lat="43.63049" lon="1.4007">
        <ele>132</ele>
        <time>2014-04-06T14:33:52.000Z</time>
      </trkpt>
      <trkpt lat="43.63049" lon="1.4007">
        <ele>132</ele>
        <time>2014-04-06T14:34:12.000Z</time>
      </trkpt>
      <trkpt lat="43.63051" lon="1.40071">
        <ele>132</ele>
        <time>2014-04-06T14:34:38.000Z</time>
      </trkpt>
      <trkpt lat="43.63049" lon="1.40072">
        <ele>132</ele>
        <time>2014-04-06T14:34:41.000Z</time>
      </trkpt>
      <trkpt lat="43.63046" lon="1.4007">
        <ele>132</ele>
        <time>2014-04-06T14:34:44.000Z</time>
      </trkpt>
      <trkpt lat="43.63043" lon="1.40069">
        <ele>133</ele>
        <time>2014-04-06T14:34:46.000Z</time>
      </trkpt>
      <trkpt lat="43.6304" lon="1.40067">
        <ele>133</ele>
        <time>2014-04-06T14:34:49.000Z</time>
      </trkpt>
      <trkpt lat="43.63037" lon="1.40067">
        <ele>133</ele>
        <time>2014-04-06T14:34:51.000Z</time>
      </trkpt>
      <trkpt lat="43.63033" lon="1.40067">
        <ele>133</ele>
        <time>2014-04-06T14:34:53.000Z</time>
      </trkpt>
      <trkpt lat="43.63027" lon="1.40067">
        <ele>133</ele>
        <time>2014-04-06T14:34:56.000Z</time>
      </trkpt>
      <trkpt lat="43.63021" lon="1.40066">
        <ele>133</ele>
        <time>2014-04-06T14:34:59.000Z</time>
      </trkpt>
      <trkpt lat="43.63018" lon="1.40068">
        <ele>133</ele>
        <time>2014-04-06T14:35:01.000Z</time>
      </trkpt>
      <trkpt lat="43.63015" lon="1.40074">
        <ele>133</ele>
        <time>2014-04-06T14:35:04.000Z</time>
      </trkpt>
      <trkpt lat="43.63014" lon="1.40077">
        <ele>133</ele>
        <time>2014-04-06T14:35:06.000Z</time>
      </trkpt>
      <trkpt lat="43.63008" lon="1.40076">
        <ele>133</ele>
        <time>2014-04-06T14:35:09.000Z</time>
      </trkpt>
      <trkpt lat="43.63005" lon="1.40074">
        <ele>133</ele>
        <time>2014-04-06T14:35:11.000Z</time>
      </trkpt>
      <trkpt lat="43.62999" lon="1.40071">
        <ele>133</ele>
        <time>2014-04-06T14:35:14.000Z</time>
      </trkpt>
      <trkpt lat="43.62995" lon="1.4007">
        <ele>133</ele>
        <time>2014-04-06T14:35:16.000Z</time>
      </trkpt>
      <trkpt lat="43.62989" lon="1.40068">
        <ele>134</ele>
        <time>2014-04-06T14:35:19.000Z</time>
      </trkpt>
      <trkpt lat="43.62983" lon="1.40067">
        <ele>134</ele>
        <time>2014-04-06T14:35:22.000Z</time>
      </trkpt>
      <trkpt lat="43.6298" lon="1.40067">
        <ele>134</ele>
        <time>2014-04-06T14:35:24.000Z</time>
      </trkpt>
      <trkpt lat="43.62974" lon="1.40065">
        <ele>134</ele>
        <time>2014-04-06T14:35:27.000Z</time>
      </trkpt>
      <trkpt lat="43.6297" lon="1.40066">
        <ele>134</ele>
        <time>2014-04-06T14:35:30.000Z</time>
      </trkpt>
      <trkpt lat="43.62966" lon="1.40065">
        <ele>134</ele>
        <time>2014-04-06T14:35:32.000Z</time>
      </trkpt>
      <trkpt lat="43.62962" lon="1.40063">
        <ele>134</ele>
        <time>2014-04-06T14:35:35.000Z</time>
      </trkpt>
      <trkpt lat="43.62961" lon="1.40061">
        <ele>135</ele>
        <time>2014-04-06T14:35:37.000Z</time>
      </trkpt>
      <trkpt lat="43.62961" lon="1.40061">
        <ele>135</ele>
        <time>2014-04-06T14:35:57.000Z</time>
      </trkpt>
      <trkpt lat="43.62962" lon="1.40065">
        <ele>134</ele>
        <time>2014-04-06T14:36:02.000Z</time>
      </trkpt>
      <trkpt lat="43.62961" lon="1.40066">
        <ele>134</ele>
        <time>2014-04-06T14:36:04.000Z</time>
      </trkpt>
      <trkpt lat="43.62959" lon="1.40067">
        <ele>134</ele>
        <time>2014-04-06T14:36:06.000Z</time>
      </trkpt>
      <trkpt lat="43.62952" lon="1.40065">
        <ele>135</ele>
        <time>2014-04-06T14:36:09.000Z</time>
      </trkpt>
      <trkpt lat="43.62944" lon="1.40064">
        <ele>135</ele>
        <time>2014-04-06T14:36:11.000Z</time>
      </trkpt>
      <trkpt lat="43.62932" lon="1.40064">
        <ele>135</ele>
        <time>2014-04-06T14:36:14.000Z</time>
      </trkpt>
      <trkpt lat="43.62926" lon="1.40064">
        <ele>135</ele>
        <time>2014-04-06T14:36:16.000Z</time>
      </trkpt>
      <trkpt lat="43.62917" lon="1.40062">
        <ele>134</ele>
        <time>2014-04-06T14:36:19.000Z</time>
      </trkpt>
      <trkpt lat="43.6291" lon="1.40058">
        <ele>134</ele>
        <time>2014-04-06T14:36:22.000Z</time>
      </trkpt>
      <trkpt lat="43.62905" lon="1.40055">
        <ele>134</ele>
        <time>2014-04-06T14:36:24.000Z</time>
      </trkpt>
      <trkpt lat="43.62897" lon="1.40052">
        <ele>134</ele>
        <time>2014-04-06T14:36:27.000Z</time>
      </trkpt>
      <trkpt lat="43.62892" lon="1.4005">
        <ele>134</ele>
        <time>2014-04-06T14:36:29.000Z</time>
      </trkpt>
      <trkpt lat="43.62885" lon="1.40047">
        <ele>134</ele>
        <time>2014-04-06T14:36:31.000Z</time>
      </trkpt>
      <trkpt lat="43.62878" lon="1.40045">
        <ele>134</ele>
        <time>2014-04-06T14:36:33.000Z</time>
      </trkpt>
      <trkpt lat="43.62871" lon="1.40044">
        <ele>134</ele>
        <time>2014-04-06T14:36:35.000Z</time>
      </trkpt>
      <trkpt lat="43.6286" lon="1.40044">
        <ele>134</ele>
        <time>2014-04-06T14:36:38.000Z</time>
      </trkpt>
      <trkpt lat="43.62851" lon="1.40041">
        <ele>134</ele>
        <time>2014-04-06T14:36:41.000Z</time>
      </trkpt>
      <trkpt lat="43.62845" lon="1.4004">
        <ele>134</ele>
        <time>2014-04-06T14:36:43.000Z</time>
      </trkpt>
      <trkpt lat="43.62838" lon="1.4004">
        <ele>134</ele>
        <time>2014-04-06T14:36:46.000Z</time>
      </trkpt>
      <trkpt lat="43.62834" lon="1.4004">
        <ele>134</ele>
        <time>2014-04-06T14:36:48.000Z</time>
      </trkpt>
      <trkpt lat="43.62827" lon="1.40039">
        <ele>134</ele>
        <time>2014-04-06T14:36:51.000Z</time>
      </trkpt>
      <trkpt lat="43.62821" lon="1.40039">
        <ele>134</ele>
        <time>2014-04-06T14:36:53.000Z</time>
      </trkpt>
      <trkpt lat="43.62812" lon="1.40038">
        <ele>134</ele>
        <time>2014-04-06T14:36:56.000Z</time>
      </trkpt>
      <trkpt lat="43.62807" lon="1.40038">
        <ele>134</ele>
        <time>2014-04-06T14:36:59.000Z</time>
      </trkpt>
      <trkpt lat="43.62806" lon="1.40038">
        <ele>134</ele>
        <time>2014-04-06T14:37:01.000Z</time>
      </trkpt>
      <trkpt lat="43.62805" lon="1.40038">
        <ele>134</ele>
        <time>2014-04-06T14:37:03.000Z</time>
      </trkpt>
      <trkpt lat="43.62803" lon="1.40038">
        <ele>134</ele>
        <time>2014-04-06T14:37:05.000Z</time>
      </trkpt>
      <trkpt lat="43.62803" lon="1.40038">
        <ele>134</ele>
        <time>2014-04-06T14:37:25.000Z</time>
      </trkpt>
      <trkpt lat="43.62799" lon="1.40038">
        <ele>134</ele>
        <time>2014-04-06T14:37:56.000Z</time>
      </trkpt>
      <trkpt lat="43.62798" lon="1.40038">
        <ele>134</ele>
        <time>2014-04-06T14:37:58.000Z</time>
      </trkpt>
      <trkpt lat="43.62794" lon="1.40039">
        <ele>134</ele>
        <time>2014-04-06T14:38:00.000Z</time>
      </trkpt>
      <trkpt lat="43.62789" lon="1.40041">
        <ele>134</ele>
        <time>2014-04-06T14:38:02.000Z</time>
      </trkpt>
      <trkpt lat="43.62781" lon="1.4004">
        <ele>134</ele>
        <time>2014-04-06T14:38:05.000Z</time>
      </trkpt>
      <trkpt lat="43.62774" lon="1.40038">
        <ele>134</ele>
        <time>2014-04-06T14:38:08.000Z</time>
      </trkpt>
      <trkpt lat="43.6277" lon="1.40038">
        <ele>134</ele>
        <time>2014-04-06T14:38:10.000Z</time>
      </trkpt>
      <trkpt lat="43.62763" lon="1.40038">
        <ele>134</ele>
        <time>2014-04-06T14:38:13.000Z</time>
      </trkpt>
      <trkpt lat="43.62756" lon="1.40038">
        <ele>134</ele>
        <time>2014-04-06T14:38:16.000Z</time>
      </trkpt>
      <trkpt lat="43.62753" lon="1.40037">
        <ele>134</ele>
        <time>2014-04-06T14:38:18.000Z</time>
      </trkpt>
      <trkpt lat="43.62748" lon="1.40034">
        <ele>133</ele>
        <time>2014-04-06T14:38:21.000Z</time>
      </trkpt>
      <trkpt lat="43.62743" lon="1.40034">
        <ele>133</ele>
        <time>2014-04-06T14:38:23.000Z</time>
      </trkpt>
      <trkpt lat="43.62737" lon="1.40034">
        <ele>133</ele>
        <time>2014-04-06T14:38:26.000Z</time>
      </trkpt>
      <trkpt lat="43.62728" lon="1.40034">
        <ele>133</ele>
        <time>2014-04-06T14:38:29.000Z</time>
      </trkpt>
      <trkpt lat="43.62717" lon="1.40033">
        <ele>132</ele>
        <time>2014-04-06T14:38:32.000Z</time>
      </trkpt>
      <trkpt lat="43.62709" lon="1.40033">
        <ele>132</ele>
        <time>2014-04-06T14:38:34.000Z</time>
      </trkpt>
      <trkpt lat="43.62701" lon="1.40033">
        <ele>132</ele>
        <time>2014-04-06T14:38:37.000Z</time>
      </trkpt>
      <trkpt lat="43.62697" lon="1.40033">
        <ele>132</ele>
        <time>2014-04-06T14:38:39.000Z</time>
      </trkpt>
      <trkpt lat="43.62694" lon="1.40033">
        <ele>132</ele>
        <time>2014-04-06T14:38:41.000Z</time>
      </trkpt>
      <trkpt lat="43.62684" lon="1.40032">
        <ele>132</ele>
        <time>2014-04-06T14:38:44.000Z</time>
      </trkpt>
      <trkpt lat="43.62677" lon="1.40032">
        <ele>132</ele>
        <time>2014-04-06T14:38:46.000Z</time>
      </trkpt>
      <trkpt lat="43.6267" lon="1.40031">
        <ele>132</ele>
        <time>2014-04-06T14:38:49.000Z</time>
      </trkpt>
      <trkpt lat="43.62662" lon="1.40031">
        <ele>129</ele>
        <time>2014-04-06T14:38:52.000Z</time>
      </trkpt>
      <trkpt lat="43.62653" lon="1.4003">
        <ele>129</ele>
        <time>2014-04-06T14:38:55.000Z</time>
      </trkpt>
      <trkpt lat="43.62648" lon="1.4003">
        <ele>129</ele>
        <time>2014-04-06T14:38:57.000Z</time>
      </trkpt>
      <trkpt lat="43.62638" lon="1.40029">
        <ele>129</ele>
        <time>2014-04-06T14:39:00.000Z</time>
      </trkpt>
      <trkpt lat="43.62629" lon="1.40025">
        <ele>129</ele>
        <time>2014-04-06T14:39:03.000Z</time>
      </trkpt>
      <trkpt lat="43.6262" lon="1.40022">
        <ele>129</ele>
        <time>2014-04-06T14:39:06.000Z</time>
      </trkpt>
      <trkpt lat="43.62612" lon="1.4002">
        <ele>129</ele>
        <time>2014-04-06T14:39:09.000Z</time>
      </trkpt>
      <trkpt lat="43.62604" lon="1.4002">
        <ele>130</ele>
        <time>2014-04-06T14:39:12.000Z</time>
      </trkpt>
      <trkpt lat="43.62597" lon="1.40019">
        <ele>130</ele>
        <time>2014-04-06T14:39:15.000Z</time>
      </trkpt>
      <trkpt lat="43.62591" lon="1.40018">
        <ele>130</ele>
        <time>2014-04-06T14:39:18.000Z</time>
      </trkpt>
      <trkpt lat="43.62585" lon="1.40017">
        <ele>131</ele>
        <time>2014-04-06T14:39:20.000Z</time>
      </trkpt>
      <trkpt lat="43.6258" lon="1.40017">
        <ele>130</ele>
        <time>2014-04-06T14:39:22.000Z</time>
      </trkpt>
      <trkpt lat="43.62572" lon="1.40017">
        <ele>129</ele>
        <time>2014-04-06T14:39:25.000Z</time>
      </trkpt>
      <trkpt lat="43.62563" lon="1.40017">
        <ele>129</ele>
        <time>2014-04-06T14:39:27.000Z</time>
      </trkpt>
      <trkpt lat="43.62551" lon="1.40016">
        <ele>128</ele>
        <time>2014-04-06T14:39:29.000Z</time>
      </trkpt>
      <trkpt lat="43.62537" lon="1.40011">
        <ele>128</ele>
        <time>2014-04-06T14:39:32.000Z</time>
      </trkpt>
      <trkpt lat="43.62528" lon="1.40009">
        <ele>128</ele>
        <time>2014-04-06T14:39:34.000Z</time>
      </trkpt>
      <trkpt lat="43.62513" lon="1.40007">
        <ele>128</ele>
        <time>2014-04-06T14:39:37.000Z</time>
      </trkpt>
      <trkpt lat="43.62504" lon="1.40007">
        <ele>128</ele>
        <time>2014-04-06T14:39:39.000Z</time>
      </trkpt>
      <trkpt lat="43.62493" lon="1.40008">
        <ele>127</ele>
        <time>2014-04-06T14:39:42.000Z</time>
      </trkpt>
      <trkpt lat="43.62487" lon="1.40011">
        <ele>127</ele>
        <time>2014-04-06T14:39:44.000Z</time>
      </trkpt>
      <trkpt lat="43.62483" lon="1.40015">
        <ele>126</ele>
        <time>2014-04-06T14:39:47.000Z</time>
      </trkpt>
      <trkpt lat="43.62479" lon="1.40016">
        <ele>126</ele>
        <time>2014-04-06T14:39:49.000Z</time>
      </trkpt>
      <trkpt lat="43.62474" lon="1.40011">
        <ele>126</ele>
        <time>2014-04-06T14:39:52.000Z</time>
      </trkpt>
      <trkpt lat="43.62472" lon="1.40007">
        <ele>126</ele>
        <time>2014-04-06T14:39:54.000Z</time>
      </trkpt>
      <trkpt lat="43.62465" lon="1.40004">
        <ele>126</ele>
        <time>2014-04-06T14:39:57.000Z</time>
      </trkpt>
      <trkpt lat="43.62452" lon="1.40001">
        <ele>126</ele>
        <time>2014-04-06T14:40:00.000Z</time>
      </trkpt>
      <trkpt lat="43.6244" lon="1.40001">
        <ele>126</ele>
        <time>2014-04-06T14:40:03.000Z</time>
      </trkpt>
      <trkpt lat="43.62432" lon="1.40001">
        <ele>127</ele>
        <time>2014-04-06T14:40:05.000Z</time>
      </trkpt>
      <trkpt lat="43.62425" lon="1.40001">
        <ele>127</ele>
        <time>2014-04-06T14:40:07.000Z</time>
      </trkpt>
      <trkpt lat="43.62418" lon="1.39996">
        <ele>129</ele>
        <time>2014-04-06T14:40:10.000Z</time>
      </trkpt>
      <trkpt lat="43.62417" lon="1.39989">
        <ele>129</ele>
        <time>2014-04-06T14:40:13.000Z</time>
      </trkpt>
      <trkpt lat="43.6242" lon="1.39986">
        <ele>130</ele>
        <time>2014-04-06T14:40:15.000Z</time>
      </trkpt>
      <trkpt lat="43.62424" lon="1.39982">
        <ele>130</ele>
        <time>2014-04-06T14:40:18.000Z</time>
      </trkpt>
      <trkpt lat="43.62428" lon="1.3998">
        <ele>130</ele>
        <time>2014-04-06T14:40:20.000Z</time>
      </trkpt>
      <trkpt lat="43.62433" lon="1.39977">
        <ele>131</ele>
        <time>2014-04-06T14:40:23.000Z</time>
      </trkpt>
      <trkpt lat="43.62437" lon="1.39975">
        <ele>131</ele>
        <time>2014-04-06T14:40:25.000Z</time>
      </trkpt>
      <trkpt lat="43.62442" lon="1.3997">
        <ele>131</ele>
        <time>2014-04-06T14:40:28.000Z</time>
      </trkpt>
      <trkpt lat="43.62447" lon="1.39965">
        <ele>131</ele>
        <time>2014-04-06T14:40:31.000Z</time>
      </trkpt>
      <trkpt lat="43.62453" lon="1.39958">
        <ele>132</ele>
        <time>2014-04-06T14:40:34.000Z</time>
      </trkpt>
      <trkpt lat="43.62457" lon="1.3995">
        <ele>132</ele>
        <time>2014-04-06T14:40:37.000Z</time>
      </trkpt>
      <trkpt lat="43.6246" lon="1.39942">
        <ele>132</ele>
        <time>2014-04-06T14:40:40.000Z</time>
      </trkpt>
      <trkpt lat="43.62462" lon="1.39938">
        <ele>133</ele>
        <time>2014-04-06T14:40:42.000Z</time>
      </trkpt>
      <trkpt lat="43.62465" lon="1.39931">
        <ele>133</ele>
        <time>2014-04-06T14:40:45.000Z</time>
      </trkpt>
      <trkpt lat="43.62468" lon="1.39925">
        <ele>133</ele>
        <time>2014-04-06T14:40:47.000Z</time>
      </trkpt>
      <trkpt lat="43.62469" lon="1.3992">
        <ele>133</ele>
        <time>2014-04-06T14:40:49.000Z</time>
      </trkpt>
      <trkpt lat="43.62471" lon="1.39917">
        <ele>133</ele>
        <time>2014-04-06T14:40:51.000Z</time>
      </trkpt>
      <trkpt lat="43.62475" lon="1.39916">
        <ele>136</ele>
        <time>2014-04-06T14:40:54.000Z</time>
      </trkpt>
      <trkpt lat="43.62477" lon="1.39919">
        <ele>134</ele>
        <time>2014-04-06T14:40:57.000Z</time>
      </trkpt>
      <trkpt lat="43.62477" lon="1.39921">
        <ele>134</ele>
        <time>2014-04-06T14:41:00.000Z</time>
      </trkpt>
      <trkpt lat="43.62475" lon="1.39916">
        <ele>136</ele>
        <time>2014-04-06T14:41:23.000Z</time>
      </trkpt>
      <trkpt lat="43.62475" lon="1.39919">
        <ele>133</ele>
        <time>2014-04-06T14:41:26.000Z</time>
      </trkpt>
      <trkpt lat="43.62474" lon="1.39925">
        <ele>133</ele>
        <time>2014-04-06T14:41:28.000Z</time>
      </trkpt>
      <trkpt lat="43.62473" lon="1.39935">
        <ele>133</ele>
        <time>2014-04-06T14:41:31.000Z</time>
      </trkpt>
      <trkpt lat="43.62472" lon="1.39945">
        <ele>132</ele>
        <time>2014-04-06T14:41:33.000Z</time>
      </trkpt>
      <trkpt lat="43.6247" lon="1.39954">
        <ele>132</ele>
        <time>2014-04-06T14:41:35.000Z</time>
      </trkpt>
      <trkpt lat="43.62469" lon="1.39964">
        <ele>132</ele>
        <time>2014-04-06T14:41:37.000Z</time>
      </trkpt>
      <trkpt lat="43.62468" lon="1.3998">
        <ele>131</ele>
        <time>2014-04-06T14:41:40.000Z</time>
      </trkpt>
      <trkpt lat="43.62467" lon="1.39989">
        <ele>131</ele>
        <time>2014-04-06T14:41:42.000Z</time>
      </trkpt>
      <trkpt lat="43.62466" lon="1.40003">
        <ele>126</ele>
        <time>2014-04-06T14:41:45.000Z</time>
      </trkpt>
      <trkpt lat="43.62466" lon="1.40017">
        <ele>126</ele>
        <time>2014-04-06T14:41:48.000Z</time>
      </trkpt>
      <trkpt lat="43.62466" lon="1.40032">
        <ele>125</ele>
        <time>2014-04-06T14:41:51.000Z</time>
      </trkpt>
      <trkpt lat="43.62466" lon="1.40046">
        <ele>125</ele>
        <time>2014-04-06T14:41:54.000Z</time>
      </trkpt>
      <trkpt lat="43.62465" lon="1.40055">
        <ele>124</ele>
        <time>2014-04-06T14:41:56.000Z</time>
      </trkpt>
      <trkpt lat="43.62465" lon="1.40064">
        <ele>124</ele>
        <time>2014-04-06T14:41:58.000Z</time>
      </trkpt>
      <trkpt lat="43.62463" lon="1.40076">
        <ele>123</ele>
        <time>2014-04-06T14:42:01.000Z</time>
      </trkpt>
      <trkpt lat="43.62463" lon="1.40084">
        <ele>121</ele>
        <time>2014-04-06T14:42:03.000Z</time>
      </trkpt>
      <trkpt lat="43.62463" lon="1.40093">
        <ele>121</ele>
        <time>2014-04-06T14:42:05.000Z</time>
      </trkpt>
      <trkpt lat="43.62462" lon="1.40102">
        <ele>121</ele>
        <time>2014-04-06T14:42:07.000Z</time>
      </trkpt>
      <trkpt lat="43.62461" lon="1.40115">
        <ele>121</ele>
        <time>2014-04-06T14:42:10.000Z</time>
      </trkpt>
      <trkpt lat="43.62461" lon="1.40124">
        <ele>121</ele>
        <time>2014-04-06T14:42:12.000Z</time>
      </trkpt>
      <trkpt lat="43.6246" lon="1.40138">
        <ele>121</ele>
        <time>2014-04-06T14:42:15.000Z</time>
      </trkpt>
      <trkpt lat="43.6246" lon="1.40148">
        <ele>121</ele>
        <time>2014-04-06T14:42:17.000Z</time>
      </trkpt>
      <trkpt lat="43.6246" lon="1.40158">
        <ele>121</ele>
        <time>2014-04-06T14:42:19.000Z</time>
      </trkpt>
      <trkpt lat="43.62459" lon="1.40173">
        <ele>124</ele>
        <time>2014-04-06T14:42:22.000Z</time>
      </trkpt>
      <trkpt lat="43.62459" lon="1.40183">
        <ele>125</ele>
        <time>2014-04-06T14:42:24.000Z</time>
      </trkpt>
      <trkpt lat="43.62458" lon="1.40198">
        <ele>126</ele>
        <time>2014-04-06T14:42:27.000Z</time>
      </trkpt>
      <trkpt lat="43.62457" lon="1.4021">
        <ele>126</ele>
        <time>2014-04-06T14:42:29.000Z</time>
      </trkpt>
      <trkpt lat="43.62456" lon="1.40221">
        <ele>127</ele>
        <time>2014-04-06T14:42:31.000Z</time>
      </trkpt>
      <trkpt lat="43.62455" lon="1.40234">
        <ele>128</ele>
        <time>2014-04-06T14:42:33.000Z</time>
      </trkpt>
      <trkpt lat="43.62455" lon="1.40249">
        <ele>128</ele>
        <time>2014-04-06T14:42:36.000Z</time>
      </trkpt>
      <trkpt lat="43.62455" lon="1.40259">
        <ele>131</ele>
        <time>2014-04-06T14:42:39.000Z</time>
      </trkpt>
      <trkpt lat="43.62455" lon="1.40266">
        <ele>131</ele>
        <time>2014-04-06T14:42:42.000Z</time>
      </trkpt>
      <trkpt lat="43.62452" lon="1.40269">
        <ele>131</ele>
        <time>2014-04-06T14:42:45.000Z</time>
      </trkpt>
      <trkpt lat="43.62451" lon="1.40266">
        <ele>131</ele>
        <time>2014-04-06T14:42:47.000Z</time>
      </trkpt>
      <trkpt lat="43.62452" lon="1.40264">
        <ele>131</ele>
        <time>2014-04-06T14:42:49.000Z</time>
      </trkpt>
      <trkpt lat="43.62452" lon="1.40263">
        <ele>131</ele>
        <time>2014-04-06T14:42:52.000Z</time>
      </trkpt>
      <trkpt lat="43.62453" lon="1.40265">
        <ele>131</ele>
        <time>2014-04-06T14:42:55.000Z</time>
      </trkpt>
      <trkpt lat="43.62454" lon="1.40269">
        <ele>131</ele>
        <time>2014-04-06T14:43:06.000Z</time>
      </trkpt>
      <trkpt lat="43.62453" lon="1.40271">
        <ele>131</ele>
        <time>2014-04-06T14:43:21.000Z</time>
      </trkpt>
      <trkpt lat="43.62455" lon="1.40269">
        <ele>131</ele>
        <time>2014-04-06T14:43:23.000Z</time>
      </trkpt>
      <trkpt lat="43.62455" lon="1.40263">
        <ele>131</ele>
        <time>2014-04-06T14:43:25.000Z</time>
      </trkpt>
      <trkpt lat="43.62456" lon="1.40257">
        <ele>131</ele>
        <time>2014-04-06T14:43:27.000Z</time>
      </trkpt>
      <trkpt lat="43.62457" lon="1.40245">
        <ele>128</ele>
        <time>2014-04-06T14:43:30.000Z</time>
      </trkpt>
      <trkpt lat="43.62456" lon="1.40236">
        <ele>128</ele>
        <time>2014-04-06T14:43:32.000Z</time>
      </trkpt>
      <trkpt lat="43.62451" lon="1.40226">
        <ele>127</ele>
        <time>2014-04-06T14:43:35.000Z</time>
      </trkpt>
      <trkpt lat="43.62445" lon="1.40226">
        <ele>127</ele>
        <time>2014-04-06T14:43:37.000Z</time>
      </trkpt>
      <trkpt lat="43.62437" lon="1.40226">
        <ele>127</ele>
        <time>2014-04-06T14:43:40.000Z</time>
      </trkpt>
      <trkpt lat="43.62431" lon="1.40226">
        <ele>127</ele>
        <time>2014-04-06T14:43:43.000Z</time>
      </trkpt>
      <trkpt lat="43.62426" lon="1.40226">
        <ele>127</ele>
        <time>2014-04-06T14:43:45.000Z</time>
      </trkpt>
      <trkpt lat="43.62419" lon="1.40226">
        <ele>127</ele>
        <time>2014-04-06T14:43:48.000Z</time>
      </trkpt>
      <trkpt lat="43.62414" lon="1.40227">
        <ele>127</ele>
        <time>2014-04-06T14:43:50.000Z</time>
      </trkpt>
      <trkpt lat="43.62409" lon="1.40226">
        <ele>127</ele>
        <time>2014-04-06T14:43:52.000Z</time>
      </trkpt>
      <trkpt lat="43.624" lon="1.40226">
        <ele>127</ele>
        <time>2014-04-06T14:43:55.000Z</time>
      </trkpt>
      <trkpt lat="43.62395" lon="1.40225">
        <ele>127</ele>
        <time>2014-04-06T14:43:57.000Z</time>
      </trkpt>
      <trkpt lat="43.62385" lon="1.40223">
        <ele>126</ele>
        <time>2014-04-06T14:44:00.000Z</time>
      </trkpt>
      <trkpt lat="43.62376" lon="1.40222">
        <ele>126</ele>
        <time>2014-04-06T14:44:03.000Z</time>
      </trkpt>
      <trkpt lat="43.6237" lon="1.40222">
        <ele>126</ele>
        <time>2014-04-06T14:44:05.000Z</time>
      </trkpt>
      <trkpt lat="43.62361" lon="1.40222">
        <ele>126</ele>
        <time>2014-04-06T14:44:08.000Z</time>
      </trkpt>
      <trkpt lat="43.62355" lon="1.40222">
        <ele>126</ele>
        <time>2014-04-06T14:44:10.000Z</time>
      </trkpt>
      <trkpt lat="43.62345" lon="1.40222">
        <ele>127</ele>
        <time>2014-04-06T14:44:13.000Z</time>
      </trkpt>
      <trkpt lat="43.62339" lon="1.40222">
        <ele>127</ele>
        <time>2014-04-06T14:44:15.000Z</time>
      </trkpt>
      <trkpt lat="43.62329" lon="1.40223">
        <ele>127</ele>
        <time>2014-04-06T14:44:18.000Z</time>
      </trkpt>
      <trkpt lat="43.6232" lon="1.40223">
        <ele>127</ele>
        <time>2014-04-06T14:44:21.000Z</time>
      </trkpt>
      <trkpt lat="43.62309" lon="1.40224">
        <ele>126</ele>
        <time>2014-04-06T14:44:24.000Z</time>
      </trkpt>
      <trkpt lat="43.62302" lon="1.40224">
        <ele>126</ele>
        <time>2014-04-06T14:44:26.000Z</time>
      </trkpt>
      <trkpt lat="43.62292" lon="1.40225">
        <ele>126</ele>
        <time>2014-04-06T14:44:29.000Z</time>
      </trkpt>
      <trkpt lat="43.62282" lon="1.40225">
        <ele>126</ele>
        <time>2014-04-06T14:44:32.000Z</time>
      </trkpt>
      <trkpt lat="43.62273" lon="1.40226">
        <ele>127</ele>
        <time>2014-04-06T14:44:35.000Z</time>
      </trkpt>
      <trkpt lat="43.62268" lon="1.40227">
        <ele>127</ele>
        <time>2014-04-06T14:44:37.000Z</time>
      </trkpt>
      <trkpt lat="43.6226" lon="1.40227">
        <ele>127</ele>
        <time>2014-04-06T14:44:40.000Z</time>
      </trkpt>
      <trkpt lat="43.62254" lon="1.40228">
        <ele>127</ele>
        <time>2014-04-06T14:44:42.000Z</time>
      </trkpt>
      <trkpt lat="43.62247" lon="1.40229">
        <ele>126</ele>
        <time>2014-04-06T14:44:44.000Z</time>
      </trkpt>
      <trkpt lat="43.62238" lon="1.4023">
        <ele>126</ele>
        <time>2014-04-06T14:44:47.000Z</time>
      </trkpt>
      <trkpt lat="43.62231" lon="1.40232">
        <ele>125</ele>
        <time>2014-04-06T14:44:49.000Z</time>
      </trkpt>
      <trkpt lat="43.62223" lon="1.40233">
        <ele>125</ele>
        <time>2014-04-06T14:44:51.000Z</time>
      </trkpt>
      <trkpt lat="43.62213" lon="1.40235">
        <ele>124</ele>
        <time>2014-04-06T14:44:54.000Z</time>
      </trkpt>
      <trkpt lat="43.62202" lon="1.40239">
        <ele>124</ele>
        <time>2014-04-06T14:44:57.000Z</time>
      </trkpt>
      <trkpt lat="43.62194" lon="1.40241">
        <ele>123</ele>
        <time>2014-04-06T14:44:59.000Z</time>
      </trkpt>
      <trkpt lat="43.62186" lon="1.40241">
        <ele>123</ele>
        <time>2014-04-06T14:45:01.000Z</time>
      </trkpt>
      <trkpt lat="43.62175" lon="1.40244">
        <ele>122</ele>
        <time>2014-04-06T14:45:04.000Z</time>
      </trkpt>
      <trkpt lat="43.62165" lon="1.40247">
        <ele>121</ele>
        <time>2014-04-06T14:45:07.000Z</time>
      </trkpt>
      <trkpt lat="43.62155" lon="1.4025">
        <ele>123</ele>
        <time>2014-04-06T14:45:10.000Z</time>
      </trkpt>
      <trkpt lat="43.62144" lon="1.40254">
        <ele>124</ele>
        <time>2014-04-06T14:45:13.000Z</time>
      </trkpt>
      <trkpt lat="43.62134" lon="1.40257">
        <ele>125</ele>
        <time>2014-04-06T14:45:16.000Z</time>
      </trkpt>
      <trkpt lat="43.62123" lon="1.40261">
        <ele>125</ele>
        <time>2014-04-06T14:45:19.000Z</time>
      </trkpt>
      <trkpt lat="43.62116" lon="1.40262">
        <ele>125</ele>
        <time>2014-04-06T14:45:21.000Z</time>
      </trkpt>
      <trkpt lat="43.62107" lon="1.40266">
        <ele>125</ele>
        <time>2014-04-06T14:45:24.000Z</time>
      </trkpt>
      <trkpt lat="43.62099" lon="1.40269">
        <ele>125</ele>
        <time>2014-04-06T14:45:27.000Z</time>
      </trkpt>
      <trkpt lat="43.6209" lon="1.40271">
        <ele>125</ele>
        <time>2014-04-06T14:45:30.000Z</time>
      </trkpt>
      <trkpt lat="43.62083" lon="1.40274">
        <ele>125</ele>
        <time>2014-04-06T14:45:32.000Z</time>
      </trkpt>
      <trkpt lat="43.62074" lon="1.40278">
        <ele>126</ele>
        <time>2014-04-06T14:45:35.000Z</time>
      </trkpt>
      <trkpt lat="43.62067" lon="1.40281">
        <ele>126</ele>
        <time>2014-04-06T14:45:37.000Z</time>
      </trkpt>
      <trkpt lat="43.62056" lon="1.40285">
        <ele>127</ele>
        <time>2014-04-06T14:45:40.000Z</time>
      </trkpt>
      <trkpt lat="43.62045" lon="1.40288">
        <ele>127</ele>
        <time>2014-04-06T14:45:43.000Z</time>
      </trkpt>
      <trkpt lat="43.62038" lon="1.4029">
        <ele>127</ele>
        <time>2014-04-06T14:45:45.000Z</time>
      </trkpt>
      <trkpt lat="43.62027" lon="1.40295">
        <ele>127</ele>
        <time>2014-04-06T14:45:48.000Z</time>
      </trkpt>
      <trkpt lat="43.62016" lon="1.40298">
        <ele>128</ele>
        <time>2014-04-06T14:45:51.000Z</time>
      </trkpt>
      <trkpt lat="43.62005" lon="1.40303">
        <ele>128</ele>
        <time>2014-04-06T14:45:54.000Z</time>
      </trkpt>
      <trkpt lat="43.61995" lon="1.40308">
        <ele>129</ele>
        <time>2014-04-06T14:45:57.000Z</time>
      </trkpt>
      <trkpt lat="43.61987" lon="1.40311">
        <ele>129</ele>
        <time>2014-04-06T14:45:59.000Z</time>
      </trkpt>
      <trkpt lat="43.61975" lon="1.40314">
        <ele>128</ele>
        <time>2014-04-06T14:46:02.000Z</time>
      </trkpt>
      <trkpt lat="43.61967" lon="1.40316">
        <ele>128</ele>
        <time>2014-04-06T14:46:04.000Z</time>
      </trkpt>
      <trkpt lat="43.61956" lon="1.40321">
        <ele>128</ele>
        <time>2014-04-06T14:46:07.000Z</time>
      </trkpt>
      <trkpt lat="43.61949" lon="1.40324">
        <ele>128</ele>
        <time>2014-04-06T14:46:09.000Z</time>
      </trkpt>
      <trkpt lat="43.61939" lon="1.40327">
        <ele>129</ele>
        <time>2014-04-06T14:46:12.000Z</time>
      </trkpt>
      <trkpt lat="43.61928" lon="1.40331">
        <ele>130</ele>
        <time>2014-04-06T14:46:15.000Z</time>
      </trkpt>
      <trkpt lat="43.61921" lon="1.40334">
        <ele>131</ele>
        <time>2014-04-06T14:46:17.000Z</time>
      </trkpt>
      <trkpt lat="43.6191" lon="1.40339">
        <ele>131</ele>
        <time>2014-04-06T14:46:20.000Z</time>
      </trkpt>
      <trkpt lat="43.61902" lon="1.40342">
        <ele>130</ele>
        <time>2014-04-06T14:46:22.000Z</time>
      </trkpt>
      <trkpt lat="43.61891" lon="1.40347">
        <ele>130</ele>
        <time>2014-04-06T14:46:25.000Z</time>
      </trkpt>
      <trkpt lat="43.61884" lon="1.40351">
        <ele>130</ele>
        <time>2014-04-06T14:46:27.000Z</time>
      </trkpt>
      <trkpt lat="43.61872" lon="1.40356">
        <ele>129</ele>
        <time>2014-04-06T14:46:30.000Z</time>
      </trkpt>
      <trkpt lat="43.61861" lon="1.4036">
        <ele>129</ele>
        <time>2014-04-06T14:46:33.000Z</time>
      </trkpt>
      <trkpt lat="43.61853" lon="1.40363">
        <ele>129</ele>
        <time>2014-04-06T14:46:35.000Z</time>
      </trkpt>
      <trkpt lat="43.61845" lon="1.40365">
        <ele>129</ele>
        <time>2014-04-06T14:46:37.000Z</time>
      </trkpt>
      <trkpt lat="43.61834" lon="1.40369">
        <ele>129</ele>
        <time>2014-04-06T14:46:40.000Z</time>
      </trkpt>
      <trkpt lat="43.61823" lon="1.40375">
        <ele>128</ele>
        <time>2014-04-06T14:46:43.000Z</time>
      </trkpt>
      <trkpt lat="43.61815" lon="1.40378">
        <ele>128</ele>
        <time>2014-04-06T14:46:45.000Z</time>
      </trkpt>
      <trkpt lat="43.61804" lon="1.40381">
        <ele>128</ele>
        <time>2014-04-06T14:46:48.000Z</time>
      </trkpt>
      <trkpt lat="43.61793" lon="1.40385">
        <ele>128</ele>
        <time>2014-04-06T14:46:51.000Z</time>
      </trkpt>
      <trkpt lat="43.61786" lon="1.40388">
        <ele>128</ele>
        <time>2014-04-06T14:46:53.000Z</time>
      </trkpt>
      <trkpt lat="43.61774" lon="1.40392">
        <ele>129</ele>
        <time>2014-04-06T14:46:56.000Z</time>
      </trkpt>
      <trkpt lat="43.61767" lon="1.40395">
        <ele>129</ele>
        <time>2014-04-06T14:46:58.000Z</time>
      </trkpt>
      <trkpt lat="43.61758" lon="1.40398">
        <ele>129</ele>
        <time>2014-04-06T14:47:01.000Z</time>
      </trkpt>
      <trkpt lat="43.61749" lon="1.40402">
        <ele>129</ele>
        <time>2014-04-06T14:47:04.000Z</time>
      </trkpt>
      <trkpt lat="43.61737" lon="1.40407">
        <ele>128</ele>
        <time>2014-04-06T14:47:07.000Z</time>
      </trkpt>
      <trkpt lat="43.61731" lon="1.40411">
        <ele>128</ele>
        <time>2014-04-06T14:47:09.000Z</time>
      </trkpt>
      <trkpt lat="43.61719" lon="1.40416">
        <ele>126</ele>
        <time>2014-04-06T14:47:12.000Z</time>
      </trkpt>
      <trkpt lat="43.61708" lon="1.40421">
        <ele>129</ele>
        <time>2014-04-06T14:47:15.000Z</time>
      </trkpt>
      <trkpt lat="43.61701" lon="1.40425">
        <ele>128</ele>
        <time>2014-04-06T14:47:17.000Z</time>
      </trkpt>
      <trkpt lat="43.6169" lon="1.4043">
        <ele>128</ele>
        <time>2014-04-06T14:47:20.000Z</time>
      </trkpt>
      <trkpt lat="43.61684" lon="1.40434">
        <ele>127</ele>
        <time>2014-04-06T14:47:22.000Z</time>
      </trkpt>
      <trkpt lat="43.61674" lon="1.4044">
        <ele>127</ele>
        <time>2014-04-06T14:47:25.000Z</time>
      </trkpt>
      <trkpt lat="43.61668" lon="1.40444">
        <ele>128</ele>
        <time>2014-04-06T14:47:27.000Z</time>
      </trkpt>
      <trkpt lat="43.61658" lon="1.40451">
        <ele>127</ele>
        <time>2014-04-06T14:47:30.000Z</time>
      </trkpt>
      <trkpt lat="43.61649" lon="1.40458">
        <ele>127</ele>
        <time>2014-04-06T14:47:33.000Z</time>
      </trkpt>
      <trkpt lat="43.61642" lon="1.40463">
        <ele>127</ele>
        <time>2014-04-06T14:47:35.000Z</time>
      </trkpt>
      <trkpt lat="43.61631" lon="1.40471">
        <ele>128</ele>
        <time>2014-04-06T14:47:38.000Z</time>
      </trkpt>
      <trkpt lat="43.61623" lon="1.40477">
        <ele>128</ele>
        <time>2014-04-06T14:47:40.000Z</time>
      </trkpt>
      <trkpt lat="43.61613" lon="1.40485">
        <ele>128</ele>
        <time>2014-04-06T14:47:43.000Z</time>
      </trkpt>
      <trkpt lat="43.61608" lon="1.4049">
        <ele>129</ele>
        <time>2014-04-06T14:47:45.000Z</time>
      </trkpt>
      <trkpt lat="43.61606" lon="1.40495">
        <ele>129</ele>
        <time>2014-04-06T14:47:48.000Z</time>
      </trkpt>
      <trkpt lat="43.61607" lon="1.40505">
        <ele>133</ele>
        <time>2014-04-06T14:47:51.000Z</time>
      </trkpt>
      <trkpt lat="43.61605" lon="1.40512">
        <ele>133</ele>
        <time>2014-04-06T14:47:53.000Z</time>
      </trkpt>
      <trkpt lat="43.61603" lon="1.40516">
        <ele>133</ele>
        <time>2014-04-06T14:47:56.000Z</time>
      </trkpt>
      <trkpt lat="43.61605" lon="1.40514">
        <ele>133</ele>
        <time>2014-04-06T14:48:15.000Z</time>
      </trkpt>
      <trkpt lat="43.61607" lon="1.40518">
        <ele>133</ele>
        <time>2014-04-06T14:48:18.000Z</time>
      </trkpt>
      <trkpt lat="43.6161" lon="1.40521">
        <ele>133</ele>
        <time>2014-04-06T14:48:20.000Z</time>
      </trkpt>
      <trkpt lat="43.61613" lon="1.40526">
        <ele>133</ele>
        <time>2014-04-06T14:48:23.000Z</time>
      </trkpt>
      <trkpt lat="43.61617" lon="1.40533">
        <ele>133</ele>
        <time>2014-04-06T14:48:26.000Z</time>
      </trkpt>
      <trkpt lat="43.61619" lon="1.40538">
        <ele>133</ele>
        <time>2014-04-06T14:48:28.000Z</time>
      </trkpt>
      <trkpt lat="43.61623" lon="1.40545">
        <ele>134</ele>
        <time>2014-04-06T14:48:31.000Z</time>
      </trkpt>
      <trkpt lat="43.61625" lon="1.40549">
        <ele>134</ele>
        <time>2014-04-06T14:48:33.000Z</time>
      </trkpt>
      <trkpt lat="43.61628" lon="1.40556">
        <ele>134</ele>
        <time>2014-04-06T14:48:36.000Z</time>
      </trkpt>
      <trkpt lat="43.61629" lon="1.40561">
        <ele>134</ele>
        <time>2014-04-06T14:48:38.000Z</time>
      </trkpt>
      <trkpt lat="43.61633" lon="1.40567">
        <ele>134</ele>
        <time>2014-04-06T14:48:41.000Z</time>
      </trkpt>
      <trkpt lat="43.61638" lon="1.4057">
        <ele>134</ele>
        <time>2014-04-06T14:48:43.000Z</time>
      </trkpt>
      <trkpt lat="43.61643" lon="1.40577">
        <ele>134</ele>
        <time>2014-04-06T14:48:46.000Z</time>
      </trkpt>
      <trkpt lat="43.61647" lon="1.40584">
        <ele>135</ele>
        <time>2014-04-06T14:48:49.000Z</time>
      </trkpt>
      <trkpt lat="43.6165" lon="1.40588">
        <ele>135</ele>
        <time>2014-04-06T14:48:51.000Z</time>
      </trkpt>
      <trkpt lat="43.61655" lon="1.40598">
        <ele>135</ele>
        <time>2014-04-06T14:48:54.000Z</time>
      </trkpt>
      <trkpt lat="43.61659" lon="1.40606">
        <ele>135</ele>
        <time>2014-04-06T14:48:56.000Z</time>
      </trkpt>
      <trkpt lat="43.61663" lon="1.40621">
        <ele>135</ele>
        <time>2014-04-06T14:48:59.000Z</time>
      </trkpt>
      <trkpt lat="43.61666" lon="1.40629">
        <ele>135</ele>
        <time>2014-04-06T14:49:01.000Z</time>
      </trkpt>
      <trkpt lat="43.61672" lon="1.4064">
        <ele>135</ele>
        <time>2014-04-06T14:49:04.000Z</time>
      </trkpt>
      <trkpt lat="43.61678" lon="1.4065">
        <ele>135</ele>
        <time>2014-04-06T14:49:07.000Z</time>
      </trkpt>
      <trkpt lat="43.61681" lon="1.40658">
        <ele>135</ele>
        <time>2014-04-06T14:49:09.000Z</time>
      </trkpt>
      <trkpt lat="43.61683" lon="1.40671">
        <ele>135</ele>
        <time>2014-04-06T14:49:12.000Z</time>
      </trkpt>
      <trkpt lat="43.6168" lon="1.40678">
        <ele>135</ele>
        <time>2014-04-06T14:49:14.000Z</time>
      </trkpt>
      <trkpt lat="43.61673" lon="1.40685">
        <ele>135</ele>
        <time>2014-04-06T14:49:17.000Z</time>
      </trkpt>
      <trkpt lat="43.61668" lon="1.40688">
        <ele>135</ele>
        <time>2014-04-06T14:49:19.000Z</time>
      </trkpt>
      <trkpt lat="43.61664" lon="1.40689">
        <ele>136</ele>
        <time>2014-04-06T14:49:21.000Z</time>
      </trkpt>
      <trkpt lat="43.6166" lon="1.40693">
        <ele>136</ele>
        <time>2014-04-06T14:49:23.000Z</time>
      </trkpt>
      <trkpt lat="43.61655" lon="1.40699">
        <ele>136</ele>
        <time>2014-04-06T14:49:26.000Z</time>
      </trkpt>
      <trkpt lat="43.61651" lon="1.40704">
        <ele>136</ele>
        <time>2014-04-06T14:49:28.000Z</time>
      </trkpt>
      <trkpt lat="43.61646" lon="1.4071">
        <ele>136</ele>
        <time>2014-04-06T14:49:31.000Z</time>
      </trkpt>
      <trkpt lat="43.61642" lon="1.40717">
        <ele>136</ele>
        <time>2014-04-06T14:49:33.000Z</time>
      </trkpt>
      <trkpt lat="43.61642" lon="1.40728">
        <ele>136</ele>
        <time>2014-04-06T14:49:36.000Z</time>
      </trkpt>
      <trkpt lat="43.61643" lon="1.40733">
        <ele>136</ele>
        <time>2014-04-06T14:49:38.000Z</time>
      </trkpt>
      <trkpt lat="43.61641" lon="1.40736">
        <ele>136</ele>
        <time>2014-04-06T14:49:41.000Z</time>
      </trkpt>
      <trkpt lat="43.61647" lon="1.40745">
        <ele>136</ele>
        <time>2014-04-06T14:49:44.000Z</time>
      </trkpt>
      <trkpt lat="43.61651" lon="1.40757">
        <ele>135</ele>
        <time>2014-04-06T14:49:46.000Z</time>
      </trkpt>
      <trkpt lat="43.61655" lon="1.40767">
        <ele>135</ele>
        <time>2014-04-06T14:49:48.000Z</time>
      </trkpt>
      <trkpt lat="43.61662" lon="1.40779">
        <ele>135</ele>
        <time>2014-04-06T14:49:51.000Z</time>
      </trkpt>
      <trkpt lat="43.61668" lon="1.40789">
        <ele>135</ele>
        <time>2014-04-06T14:49:54.000Z</time>
      </trkpt>
      <trkpt lat="43.61671" lon="1.40796">
        <ele>134</ele>
        <time>2014-04-06T14:49:56.000Z</time>
      </trkpt>
      <trkpt lat="43.61677" lon="1.40806">
        <ele>134</ele>
        <time>2014-04-06T14:49:59.000Z</time>
      </trkpt>
      <trkpt lat="43.61681" lon="1.40812">
        <ele>134</ele>
        <time>2014-04-06T14:50:01.000Z</time>
      </trkpt>
      <trkpt lat="43.61686" lon="1.40821">
        <ele>134</ele>
        <time>2014-04-06T14:50:04.000Z</time>
      </trkpt>
      <trkpt lat="43.6169" lon="1.40828">
        <ele>134</ele>
        <time>2014-04-06T14:50:06.000Z</time>
      </trkpt>
      <trkpt lat="43.61687" lon="1.40838">
        <ele>134</ele>
        <time>2014-04-06T14:50:09.000Z</time>
      </trkpt>
      <trkpt lat="43.61679" lon="1.40843">
        <ele>134</ele>
        <time>2014-04-06T14:50:12.000Z</time>
      </trkpt>
      <trkpt lat="43.61674" lon="1.40848">
        <ele>134</ele>
        <time>2014-04-06T14:50:14.000Z</time>
      </trkpt>
      <trkpt lat="43.61666" lon="1.40854">
        <ele>134</ele>
        <time>2014-04-06T14:50:17.000Z</time>
      </trkpt>
      <trkpt lat="43.61662" lon="1.40859">
        <ele>134</ele>
        <time>2014-04-06T14:50:19.000Z</time>
      </trkpt>
      <trkpt lat="43.61655" lon="1.40869">
        <ele>134</ele>
        <time>2014-04-06T14:50:22.000Z</time>
      </trkpt>
      <trkpt lat="43.6165" lon="1.40875">
        <ele>134</ele>
        <time>2014-04-06T14:50:24.000Z</time>
      </trkpt>
      <trkpt lat="43.61644" lon="1.40882">
        <ele>134</ele>
        <time>2014-04-06T14:50:27.000Z</time>
      </trkpt>
      <trkpt lat="43.61638" lon="1.40892">
        <ele>134</ele>
        <time>2014-04-06T14:50:30.000Z</time>
      </trkpt>
      <trkpt lat="43.61634" lon="1.40897">
        <ele>134</ele>
        <time>2014-04-06T14:50:32.000Z</time>
      </trkpt>
      <trkpt lat="43.61627" lon="1.40905">
        <ele>134</ele>
        <time>2014-04-06T14:50:35.000Z</time>
      </trkpt>
      <trkpt lat="43.61622" lon="1.40911">
        <ele>134</ele>
        <time>2014-04-06T14:50:37.000Z</time>
      </trkpt>
      <trkpt lat="43.61612" lon="1.4092">
        <ele>133</ele>
        <time>2014-04-06T14:50:40.000Z</time>
      </trkpt>
      <trkpt lat="43.61606" lon="1.40924">
        <ele>133</ele>
        <time>2014-04-06T14:50:42.000Z</time>
      </trkpt>
      <trkpt lat="43.61598" lon="1.40933">
        <ele>133</ele>
        <time>2014-04-06T14:50:45.000Z</time>
      </trkpt>
      <trkpt lat="43.6159" lon="1.40941">
        <ele>133</ele>
        <time>2014-04-06T14:50:48.000Z</time>
      </trkpt>
      <trkpt lat="43.61584" lon="1.40946">
        <ele>133</ele>
        <time>2014-04-06T14:50:50.000Z</time>
      </trkpt>
      <trkpt lat="43.61577" lon="1.40954">
        <ele>134</ele>
        <time>2014-04-06T14:50:53.000Z</time>
      </trkpt>
      <trkpt lat="43.61569" lon="1.40963">
        <ele>135</ele>
        <time>2014-04-06T14:50:56.000Z</time>
      </trkpt>
      <trkpt lat="43.6156" lon="1.40972">
        <ele>135</ele>
        <time>2014-04-06T14:50:59.000Z</time>
      </trkpt>
      <trkpt lat="43.61554" lon="1.40978">
        <ele>135</ele>
        <time>2014-04-06T14:51:01.000Z</time>
      </trkpt>
      <trkpt lat="43.6155" lon="1.40981">
        <ele>135</ele>
        <time>2014-04-06T14:51:03.000Z</time>
      </trkpt>
      <trkpt lat="43.61547" lon="1.4099">
        <ele>135</ele>
        <time>2014-04-06T14:51:06.000Z</time>
      </trkpt>
      <trkpt lat="43.61548" lon="1.40999">
        <ele>135</ele>
        <time>2014-04-06T14:51:08.000Z</time>
      </trkpt>
      <trkpt lat="43.61549" lon="1.41015">
        <ele>135</ele>
        <time>2014-04-06T14:51:11.000Z</time>
      </trkpt>
      <trkpt lat="43.61552" lon="1.41028">
        <ele>135</ele>
        <time>2014-04-06T14:51:13.000Z</time>
      </trkpt>
      <trkpt lat="43.61557" lon="1.41045">
        <ele>135</ele>
        <time>2014-04-06T14:51:16.000Z</time>
      </trkpt>
      <trkpt lat="43.61559" lon="1.41056">
        <ele>134</ele>
        <time>2014-04-06T14:51:18.000Z</time>
      </trkpt>
      <trkpt lat="43.61562" lon="1.41073">
        <ele>134</ele>
        <time>2014-04-06T14:51:21.000Z</time>
      </trkpt>
      <trkpt lat="43.61566" lon="1.4109">
        <ele>133</ele>
        <time>2014-04-06T14:51:24.000Z</time>
      </trkpt>
      <trkpt lat="43.61568" lon="1.41105">
        <ele>133</ele>
        <time>2014-04-06T14:51:27.000Z</time>
      </trkpt>
      <trkpt lat="43.61569" lon="1.41115">
        <ele>134</ele>
        <time>2014-04-06T14:51:29.000Z</time>
      </trkpt>
      <trkpt lat="43.61571" lon="1.4113">
        <ele>134</ele>
        <time>2014-04-06T14:51:32.000Z</time>
      </trkpt>
      <trkpt lat="43.61573" lon="1.41143">
        <ele>133</ele>
        <time>2014-04-06T14:51:35.000Z</time>
      </trkpt>
      <trkpt lat="43.61576" lon="1.41157">
        <ele>133</ele>
        <time>2014-04-06T14:51:38.000Z</time>
      </trkpt>
      <trkpt lat="43.61578" lon="1.41166">
        <ele>133</ele>
        <time>2014-04-06T14:51:40.000Z</time>
      </trkpt>
      <trkpt lat="43.61581" lon="1.41182">
        <ele>133</ele>
        <time>2014-04-06T14:51:43.000Z</time>
      </trkpt>
      <trkpt lat="43.61584" lon="1.41194">
        <ele>134</ele>
        <time>2014-04-06T14:51:45.000Z</time>
      </trkpt>
      <trkpt lat="43.61586" lon="1.41206">
        <ele>134</ele>
        <time>2014-04-06T14:51:48.000Z</time>
      </trkpt>
      <trkpt lat="43.61586" lon="1.41213">
        <ele>134</ele>
        <time>2014-04-06T14:51:50.000Z</time>
      </trkpt>
      <trkpt lat="43.61586" lon="1.41221">
        <ele>134</ele>
        <time>2014-04-06T14:51:52.000Z</time>
      </trkpt>
      <trkpt lat="43.61588" lon="1.41227">
        <ele>134</ele>
        <time>2014-04-06T14:51:54.000Z</time>
      </trkpt>
      <trkpt lat="43.61593" lon="1.4123">
        <ele>134</ele>
        <time>2014-04-06T14:51:57.000Z</time>
      </trkpt>
      <trkpt lat="43.61596" lon="1.41229">
        <ele>134</ele>
        <time>2014-04-06T14:51:59.000Z</time>
      </trkpt>
      <trkpt lat="43.61601" lon="1.41226">
        <ele>134</ele>
        <time>2014-04-06T14:52:02.000Z</time>
      </trkpt>
      <trkpt lat="43.61606" lon="1.41225">
        <ele>134</ele>
        <time>2014-04-06T14:52:04.000Z</time>
      </trkpt>
      <trkpt lat="43.6161" lon="1.41224">
        <ele>134</ele>
        <time>2014-04-06T14:52:06.000Z</time>
      </trkpt>
      <trkpt lat="43.61615" lon="1.41223">
        <ele>134</ele>
        <time>2014-04-06T14:52:08.000Z</time>
      </trkpt>
      <trkpt lat="43.61623" lon="1.4122">
        <ele>134</ele>
        <time>2014-04-06T14:52:11.000Z</time>
      </trkpt>
      <trkpt lat="43.61633" lon="1.41215">
        <ele>134</ele>
        <time>2014-04-06T14:52:13.000Z</time>
      </trkpt>
      <trkpt lat="43.61645" lon="1.41212">
        <ele>134</ele>
        <time>2014-04-06T14:52:16.000Z</time>
      </trkpt>
      <trkpt lat="43.61651" lon="1.4121">
        <ele>134</ele>
        <time>2014-04-06T14:52:18.000Z</time>
      </trkpt>
      <trkpt lat="43.6166" lon="1.41207">
        <ele>134</ele>
        <time>2014-04-06T14:52:21.000Z</time>
      </trkpt>
      <trkpt lat="43.6167" lon="1.41205">
        <ele>134</ele>
        <time>2014-04-06T14:52:24.000Z</time>
      </trkpt>
      <trkpt lat="43.61677" lon="1.41203">
        <ele>134</ele>
        <time>2014-04-06T14:52:26.000Z</time>
      </trkpt>
      <trkpt lat="43.61684" lon="1.41202">
        <ele>134</ele>
        <time>2014-04-06T14:52:28.000Z</time>
      </trkpt>
      <trkpt lat="43.61696" lon="1.41202">
        <ele>134</ele>
        <time>2014-04-06T14:52:31.000Z</time>
      </trkpt>
      <trkpt lat="43.61707" lon="1.41202">
        <ele>134</ele>
        <time>2014-04-06T14:52:34.000Z</time>
      </trkpt>
      <trkpt lat="43.61715" lon="1.41202">
        <ele>134</ele>
        <time>2014-04-06T14:52:36.000Z</time>
      </trkpt>
      <trkpt lat="43.61726" lon="1.41201">
        <ele>134</ele>
        <time>2014-04-06T14:52:39.000Z</time>
      </trkpt>
      <trkpt lat="43.61736" lon="1.412">
        <ele>134</ele>
        <time>2014-04-06T14:52:42.000Z</time>
      </trkpt>
      <trkpt lat="43.61742" lon="1.41199">
        <ele>134</ele>
        <time>2014-04-06T14:52:44.000Z</time>
      </trkpt>
      <trkpt lat="43.61747" lon="1.41197">
        <ele>134</ele>
        <time>2014-04-06T14:52:47.000Z</time>
      </trkpt>
      <trkpt lat="43.6175" lon="1.41197">
        <ele>133</ele>
        <time>2014-04-06T14:52:49.000Z</time>
      </trkpt>
      <trkpt lat="43.61756" lon="1.41196">
        <ele>133</ele>
        <time>2014-04-06T14:52:52.000Z</time>
      </trkpt>
      <trkpt lat="43.6176" lon="1.41196">
        <ele>133</ele>
        <time>2014-04-06T14:52:54.000Z</time>
      </trkpt>
      <trkpt lat="43.61768" lon="1.41196">
        <ele>133</ele>
        <time>2014-04-06T14:52:57.000Z</time>
      </trkpt>
      <trkpt lat="43.61776" lon="1.41194">
        <ele>133</ele>
        <time>2014-04-06T14:53:00.000Z</time>
      </trkpt>
      <trkpt lat="43.61784" lon="1.41193">
        <ele>133</ele>
        <time>2014-04-06T14:53:02.000Z</time>
      </trkpt>
      <trkpt lat="43.61797" lon="1.41193">
        <ele>133</ele>
        <time>2014-04-06T14:53:05.000Z</time>
      </trkpt>
      <trkpt lat="43.61805" lon="1.41189">
        <ele>133</ele>
        <time>2014-04-06T14:53:07.000Z</time>
      </trkpt>
      <trkpt lat="43.61813" lon="1.41187">
        <ele>133</ele>
        <time>2014-04-06T14:53:10.000Z</time>
      </trkpt>
      <trkpt lat="43.61819" lon="1.41188">
        <ele>133</ele>
        <time>2014-04-06T14:53:12.000Z</time>
      </trkpt>
      <trkpt lat="43.61831" lon="1.41189">
        <ele>133</ele>
        <time>2014-04-06T14:53:15.000Z</time>
      </trkpt>
      <trkpt lat="43.61842" lon="1.4119">
        <ele>132</ele>
        <time>2014-04-06T14:53:18.000Z</time>
      </trkpt>
      <trkpt lat="43.61848" lon="1.41192">
        <ele>133</ele>
        <time>2014-04-06T14:53:20.000Z</time>
      </trkpt>
      <trkpt lat="43.61856" lon="1.41193">
        <ele>133</ele>
        <time>2014-04-06T14:53:22.000Z</time>
      </trkpt>
      <trkpt lat="43.61866" lon="1.41194">
        <ele>133</ele>
        <time>2014-04-06T14:53:25.000Z</time>
      </trkpt>
      <trkpt lat="43.61869" lon="1.412">
        <ele>133</ele>
        <time>2014-04-06T14:53:27.000Z</time>
      </trkpt>
      <trkpt lat="43.61867" lon="1.41213">
        <ele>133</ele>
        <time>2014-04-06T14:53:30.000Z</time>
      </trkpt>
      <trkpt lat="43.61867" lon="1.41229">
        <ele>133</ele>
        <time>2014-04-06T14:53:33.000Z</time>
      </trkpt>
      <trkpt lat="43.61867" lon="1.41246">
        <ele>133</ele>
        <time>2014-04-06T14:53:36.000Z</time>
      </trkpt>
      <trkpt lat="43.61867" lon="1.41258">
        <ele>133</ele>
        <time>2014-04-06T14:53:38.000Z</time>
      </trkpt>
      <trkpt lat="43.61868" lon="1.41275">
        <ele>133</ele>
        <time>2014-04-06T14:53:41.000Z</time>
      </trkpt>
      <trkpt lat="43.61868" lon="1.41286">
        <ele>133</ele>
        <time>2014-04-06T14:53:43.000Z</time>
      </trkpt>
      <trkpt lat="43.6187" lon="1.41297">
        <ele>133</ele>
        <time>2014-04-06T14:53:46.000Z</time>
      </trkpt>
      <trkpt lat="43.61871" lon="1.41296">
        <ele>133</ele>
        <time>2014-04-06T14:53:49.000Z</time>
      </trkpt>
      <trkpt lat="43.61872" lon="1.41296">
        <ele>133</ele>
        <time>2014-04-06T14:53:52.000Z</time>
      </trkpt>
      <trkpt lat="43.61874" lon="1.41298">
        <ele>133</ele>
        <time>2014-04-06T14:53:54.000Z</time>
      </trkpt>
      <trkpt lat="43.61876" lon="1.413">
        <ele>134</ele>
        <time>2014-04-06T14:53:57.000Z</time>
      </trkpt>
      <trkpt lat="43.61877" lon="1.41301">
        <ele>134</ele>
        <time>2014-04-06T14:53:59.000Z</time>
      </trkpt>
      <trkpt lat="43.61878" lon="1.41302">
        <ele>134</ele>
        <time>2014-04-06T14:54:01.000Z</time>
      </trkpt>
      <trkpt lat="43.61877" lon="1.413">
        <ele>134</ele>
        <time>2014-04-06T14:54:18.000Z</time>
      </trkpt>
      <trkpt lat="43.61879" lon="1.413">
        <ele>134</ele>
        <time>2014-04-06T14:54:20.000Z</time>
      </trkpt>
      <trkpt lat="43.61882" lon="1.413">
        <ele>134</ele>
        <time>2014-04-06T14:54:22.000Z</time>
      </trkpt>
      <trkpt lat="43.61885" lon="1.41301">
        <ele>134</ele>
        <time>2014-04-06T14:54:24.000Z</time>
      </trkpt>
      <trkpt lat="43.61891" lon="1.41303">
        <ele>134</ele>
        <time>2014-04-06T14:54:27.000Z</time>
      </trkpt>
      <trkpt lat="43.61894" lon="1.41306">
        <ele>134</ele>
        <time>2014-04-06T14:54:29.000Z</time>
      </trkpt>
      <trkpt lat="43.619" lon="1.41309">
        <ele>134</ele>
        <time>2014-04-06T14:54:32.000Z</time>
      </trkpt>
      <trkpt lat="43.61903" lon="1.41315">
        <ele>134</ele>
        <time>2014-04-06T14:54:35.000Z</time>
      </trkpt>
      <trkpt lat="43.61906" lon="1.4132">
        <ele>134</ele>
        <time>2014-04-06T14:54:37.000Z</time>
      </trkpt>
      <trkpt lat="43.6191" lon="1.4133">
        <ele>134</ele>
        <time>2014-04-06T14:54:40.000Z</time>
      </trkpt>
      <trkpt lat="43.61912" lon="1.41336">
        <ele>134</ele>
        <time>2014-04-06T14:54:42.000Z</time>
      </trkpt>
      <trkpt lat="43.61914" lon="1.41347">
        <ele>133</ele>
        <time>2014-04-06T14:54:45.000Z</time>
      </trkpt>
      <trkpt lat="43.61915" lon="1.41357">
        <ele>133</ele>
        <time>2014-04-06T14:54:48.000Z</time>
      </trkpt>
      <trkpt lat="43.61916" lon="1.41364">
        <ele>133</ele>
        <time>2014-04-06T14:54:50.000Z</time>
      </trkpt>
      <trkpt lat="43.61918" lon="1.41374">
        <ele>134</ele>
        <time>2014-04-06T14:54:53.000Z</time>
      </trkpt>
      <trkpt lat="43.61918" lon="1.4138">
        <ele>134</ele>
        <time>2014-04-06T14:54:55.000Z</time>
      </trkpt>
      <trkpt lat="43.61918" lon="1.4139">
        <ele>133</ele>
        <time>2014-04-06T14:54:58.000Z</time>
      </trkpt>
      <trkpt lat="43.61916" lon="1.41397">
        <ele>132</ele>
        <time>2014-04-06T14:55:01.000Z</time>
      </trkpt>
      <trkpt lat="43.61915" lon="1.41401">
        <ele>132</ele>
        <time>2014-04-06T14:55:03.000Z</time>
      </trkpt>
      <trkpt lat="43.61913" lon="1.41406">
        <ele>132</ele>
        <time>2014-04-06T14:55:06.000Z</time>
      </trkpt>
      <trkpt lat="43.6191" lon="1.41411">
        <ele>132</ele>
        <time>2014-04-06T14:55:08.000Z</time>
      </trkpt>
      <trkpt lat="43.61906" lon="1.4142">
        <ele>132</ele>
        <time>2014-04-06T14:55:11.000Z</time>
      </trkpt>
      <trkpt lat="43.61904" lon="1.41428">
        <ele>132</ele>
        <time>2014-04-06T14:55:13.000Z</time>
      </trkpt>
      <trkpt lat="43.61903" lon="1.4144">
        <ele>132</ele>
        <time>2014-04-06T14:55:16.000Z</time>
      </trkpt>
      <trkpt lat="43.61904" lon="1.41454">
        <ele>132</ele>
        <time>2014-04-06T14:55:19.000Z</time>
      </trkpt>
      <trkpt lat="43.61904" lon="1.41462">
        <ele>132</ele>
        <time>2014-04-06T14:55:21.000Z</time>
      </trkpt>
      <trkpt lat="43.61908" lon="1.41502">
        <ele>132</ele>
        <time>2014-04-06T14:55:34.000Z</time>
      </trkpt>
      <trkpt lat="43.61911" lon="1.41507">
        <ele>132</ele>
        <time>2014-04-06T14:55:37.000Z</time>
      </trkpt>
      <trkpt lat="43.6192" lon="1.41509">
        <ele>132</ele>
        <time>2014-04-06T14:55:40.000Z</time>
      </trkpt>
      <trkpt lat="43.61949" lon="1.41517">
        <ele>132</ele>
        <time>2014-04-06T14:55:48.000Z</time>
      </trkpt>
      <trkpt lat="43.61957" lon="1.41519">
        <ele>132</ele>
        <time>2014-04-06T14:55:50.000Z</time>
      </trkpt>
      <trkpt lat="43.62004" lon="1.41524">
        <ele>133</ele>
        <time>2014-04-06T14:56:04.000Z</time>
      </trkpt>
      <trkpt lat="43.62014" lon="1.41526">
        <ele>133</ele>
        <time>2014-04-06T14:56:07.000Z</time>
      </trkpt>
      <trkpt lat="43.6202" lon="1.41527">
        <ele>133</ele>
        <time>2014-04-06T14:56:09.000Z</time>
      </trkpt>
      <trkpt lat="43.62028" lon="1.41534">
        <ele>133</ele>
        <time>2014-04-06T14:56:12.000Z</time>
      </trkpt>
      <trkpt lat="43.62033" lon="1.41545">
        <ele>133</ele>
        <time>2014-04-06T14:56:15.000Z</time>
      </trkpt>
      <trkpt lat="43.62035" lon="1.41552">
        <ele>133</ele>
        <time>2014-04-06T14:56:17.000Z</time>
      </trkpt>
      <trkpt lat="43.62038" lon="1.41562">
        <ele>134</ele>
        <time>2014-04-06T14:56:20.000Z</time>
      </trkpt>
      <trkpt lat="43.6204" lon="1.4157">
        <ele>134</ele>
        <time>2014-04-06T14:56:22.000Z</time>
      </trkpt>
      <trkpt lat="43.62042" lon="1.41578">
        <ele>134</ele>
        <time>2014-04-06T14:56:24.000Z</time>
      </trkpt>
      <trkpt lat="43.62044" lon="1.41586">
        <ele>134</ele>
        <time>2014-04-06T14:56:26.000Z</time>
      </trkpt>
      <trkpt lat="43.62048" lon="1.41599">
        <ele>134</ele>
        <time>2014-04-06T14:56:29.000Z</time>
      </trkpt>
      <trkpt lat="43.62049" lon="1.41608">
        <ele>134</ele>
        <time>2014-04-06T14:56:31.000Z</time>
      </trkpt>
      <trkpt lat="43.62052" lon="1.41618">
        <ele>134</ele>
        <time>2014-04-06T14:56:33.000Z</time>
      </trkpt>
      <trkpt lat="43.62056" lon="1.41633">
        <ele>134</ele>
        <time>2014-04-06T14:56:36.000Z</time>
      </trkpt>
      <trkpt lat="43.62058" lon="1.41643">
        <ele>134</ele>
        <time>2014-04-06T14:56:38.000Z</time>
      </trkpt>
      <trkpt lat="43.62062" lon="1.41658">
        <ele>134</ele>
        <time>2014-04-06T14:56:41.000Z</time>
      </trkpt>
      <trkpt lat="43.62067" lon="1.41672">
        <ele>134</ele>
        <time>2014-04-06T14:56:44.000Z</time>
      </trkpt>
      <trkpt lat="43.6207" lon="1.41682">
        <ele>134</ele>
        <time>2014-04-06T14:56:46.000Z</time>
      </trkpt>
      <trkpt lat="43.62074" lon="1.41695">
        <ele>134</ele>
        <time>2014-04-06T14:56:49.000Z</time>
      </trkpt>
      <trkpt lat="43.62078" lon="1.41709">
        <ele>134</ele>
        <time>2014-04-06T14:56:52.000Z</time>
      </trkpt>
      <trkpt lat="43.6208" lon="1.41718">
        <ele>134</ele>
        <time>2014-04-06T14:56:54.000Z</time>
      </trkpt>
      <trkpt lat="43.6208" lon="1.41727">
        <ele>134</ele>
        <time>2014-04-06T14:56:56.000Z</time>
      </trkpt>
      <trkpt lat="43.62077" lon="1.41738">
        <ele>134</ele>
        <time>2014-04-06T14:56:59.000Z</time>
      </trkpt>
      <trkpt lat="43.62069" lon="1.41745">
        <ele>134</ele>
        <time>2014-04-06T14:57:02.000Z</time>
      </trkpt>
      <trkpt lat="43.6206" lon="1.41751">
        <ele>134</ele>
        <time>2014-04-06T14:57:05.000Z</time>
      </trkpt>
      <trkpt lat="43.62054" lon="1.41756">
        <ele>134</ele>
        <time>2014-04-06T14:57:07.000Z</time>
      </trkpt>
      <trkpt lat="43.62046" lon="1.41764">
        <ele>134</ele>
        <time>2014-04-06T14:57:10.000Z</time>
      </trkpt>
      <trkpt lat="43.62038" lon="1.41769">
        <ele>134</ele>
        <time>2014-04-06T14:57:13.000Z</time>
      </trkpt>
      <trkpt lat="43.62031" lon="1.41774">
        <ele>134</ele>
        <time>2014-04-06T14:57:16.000Z</time>
      </trkpt>
      <trkpt lat="43.62027" lon="1.41782">
        <ele>134</ele>
        <time>2014-04-06T14:57:19.000Z</time>
      </trkpt>
      <trkpt lat="43.6203" lon="1.4179">
        <ele>134</ele>
        <time>2014-04-06T14:57:22.000Z</time>
      </trkpt>
      <trkpt lat="43.62034" lon="1.418">
        <ele>134</ele>
        <time>2014-04-06T14:57:25.000Z</time>
      </trkpt>
      <trkpt lat="43.62037" lon="1.41809">
        <ele>134</ele>
        <time>2014-04-06T14:57:27.000Z</time>
      </trkpt>
      <trkpt lat="43.6204" lon="1.4182">
        <ele>134</ele>
        <time>2014-04-06T14:57:30.000Z</time>
      </trkpt>
      <trkpt lat="43.62041" lon="1.41825">
        <ele>135</ele>
        <time>2014-04-06T14:57:32.000Z</time>
      </trkpt>
      <trkpt lat="43.62042" lon="1.41828">
        <ele>135</ele>
        <time>2014-04-06T14:57:35.000Z</time>
      </trkpt>
      <trkpt lat="43.62039" lon="1.41835">
        <ele>135</ele>
        <time>2014-04-06T14:57:37.000Z</time>
      </trkpt>
      <trkpt lat="43.6204" lon="1.41847">
        <ele>135</ele>
        <time>2014-04-06T14:57:39.000Z</time>
      </trkpt>
      <trkpt lat="43.62045" lon="1.41863">
        <ele>135</ele>
        <time>2014-04-06T14:57:42.000Z</time>
      </trkpt>
      <trkpt lat="43.62048" lon="1.41873">
        <ele>135</ele>
        <time>2014-04-06T14:57:44.000Z</time>
      </trkpt>
      <trkpt lat="43.62053" lon="1.41886">
        <ele>135</ele>
        <time>2014-04-06T14:57:47.000Z</time>
      </trkpt>
      <trkpt lat="43.62056" lon="1.41895">
        <ele>135</ele>
        <time>2014-04-06T14:57:49.000Z</time>
      </trkpt>
      <trkpt lat="43.62059" lon="1.41907">
        <ele>135</ele>
        <time>2014-04-06T14:57:52.000Z</time>
      </trkpt>
      <trkpt lat="43.62061" lon="1.41915">
        <ele>135</ele>
        <time>2014-04-06T14:57:54.000Z</time>
      </trkpt>
      <trkpt lat="43.62062" lon="1.41925">
        <ele>135</ele>
        <time>2014-04-06T14:57:57.000Z</time>
      </trkpt>
      <trkpt lat="43.62069" lon="1.41933">
        <ele>135</ele>
        <time>2014-04-06T14:58:00.000Z</time>
      </trkpt>
      <trkpt lat="43.62074" lon="1.41936">
        <ele>135</ele>
        <time>2014-04-06T14:58:02.000Z</time>
      </trkpt>
      <trkpt lat="43.62083" lon="1.41937">
        <ele>135</ele>
        <time>2014-04-06T14:58:05.000Z</time>
      </trkpt>
      <trkpt lat="43.62093" lon="1.41939">
        <ele>135</ele>
        <time>2014-04-06T14:58:08.000Z</time>
      </trkpt>
      <trkpt lat="43.62102" lon="1.41942">
        <ele>134</ele>
        <time>2014-04-06T14:58:11.000Z</time>
      </trkpt>
      <trkpt lat="43.62108" lon="1.41944">
        <ele>134</ele>
        <time>2014-04-06T14:58:13.000Z</time>
      </trkpt>
      <trkpt lat="43.62117" lon="1.41946">
        <ele>134</ele>
        <time>2014-04-06T14:58:16.000Z</time>
      </trkpt>
      <trkpt lat="43.62123" lon="1.41947">
        <ele>134</ele>
        <time>2014-04-06T14:58:18.000Z</time>
      </trkpt>
      <trkpt lat="43.6213" lon="1.41949">
        <ele>134</ele>
        <time>2014-04-06T14:58:20.000Z</time>
      </trkpt>
      <trkpt lat="43.62139" lon="1.4195">
        <ele>134</ele>
        <time>2014-04-06T14:58:23.000Z</time>
      </trkpt>
      <trkpt lat="43.62145" lon="1.41951">
        <ele>134</ele>
        <time>2014-04-06T14:58:25.000Z</time>
      </trkpt>
      <trkpt lat="43.62155" lon="1.41953">
        <ele>134</ele>
        <time>2014-04-06T14:58:28.000Z</time>
      </trkpt>
      <trkpt lat="43.62161" lon="1.41953">
        <ele>134</ele>
        <time>2014-04-06T14:58:30.000Z</time>
      </trkpt>
      <trkpt lat="43.62171" lon="1.41956">
        <ele>134</ele>
        <time>2014-04-06T14:58:33.000Z</time>
      </trkpt>
      <trkpt lat="43.62178" lon="1.41957">
        <ele>134</ele>
        <time>2014-04-06T14:58:35.000Z</time>
      </trkpt>
      <trkpt lat="43.62187" lon="1.41959">
        <ele>134</ele>
        <time>2014-04-06T14:58:38.000Z</time>
      </trkpt>
      <trkpt lat="43.62197" lon="1.41962">
        <ele>134</ele>
        <time>2014-04-06T14:58:41.000Z</time>
      </trkpt>
      <trkpt lat="43.62207" lon="1.41964">
        <ele>134</ele>
        <time>2014-04-06T14:58:44.000Z</time>
      </trkpt>
      <trkpt lat="43.62217" lon="1.41965">
        <ele>135</ele>
        <time>2014-04-06T14:58:47.000Z</time>
      </trkpt>
      <trkpt lat="43.62223" lon="1.41965">
        <ele>135</ele>
        <time>2014-04-06T14:58:49.000Z</time>
      </trkpt>
      <trkpt lat="43.62233" lon="1.41966">
        <ele>135</ele>
        <time>2014-04-06T14:58:52.000Z</time>
      </trkpt>
      <trkpt lat="43.62243" lon="1.41967">
        <ele>135</ele>
        <time>2014-04-06T14:58:55.000Z</time>
      </trkpt>
      <trkpt lat="43.62249" lon="1.41967">
        <ele>135</ele>
        <time>2014-04-06T14:58:57.000Z</time>
      </trkpt>
      <trkpt lat="43.62259" lon="1.41968">
        <ele>135</ele>
        <time>2014-04-06T14:59:00.000Z</time>
      </trkpt>
      <trkpt lat="43.62266" lon="1.41968">
        <ele>135</ele>
        <time>2014-04-06T14:59:02.000Z</time>
      </trkpt>
      <trkpt lat="43.62276" lon="1.41969">
        <ele>135</ele>
        <time>2014-04-06T14:59:05.000Z</time>
      </trkpt>
      <trkpt lat="43.62283" lon="1.4197">
        <ele>135</ele>
        <time>2014-04-06T14:59:07.000Z</time>
      </trkpt>
      <trkpt lat="43.62291" lon="1.41971">
        <ele>135</ele>
        <time>2014-04-06T14:59:09.000Z</time>
      </trkpt>
      <trkpt lat="43.62301" lon="1.41972">
        <ele>135</ele>
        <time>2014-04-06T14:59:12.000Z</time>
      </trkpt>
      <trkpt lat="43.62308" lon="1.41972">
        <ele>135</ele>
        <time>2014-04-06T14:59:14.000Z</time>
      </trkpt>
      <trkpt lat="43.62318" lon="1.41973">
        <ele>135</ele>
        <time>2014-04-06T14:59:17.000Z</time>
      </trkpt>
      <trkpt lat="43.62325" lon="1.41974">
        <ele>135</ele>
        <time>2014-04-06T14:59:19.000Z</time>
      </trkpt>
      <trkpt lat="43.62334" lon="1.41977">
        <ele>136</ele>
        <time>2014-04-06T14:59:22.000Z</time>
      </trkpt>
      <trkpt lat="43.62344" lon="1.41978">
        <ele>136</ele>
        <time>2014-04-06T14:59:25.000Z</time>
      </trkpt>
      <trkpt lat="43.62349" lon="1.41978">
        <ele>136</ele>
        <time>2014-04-06T14:59:27.000Z</time>
      </trkpt>
      <trkpt lat="43.62354" lon="1.41979">
        <ele>136</ele>
        <time>2014-04-06T14:59:29.000Z</time>
      </trkpt>
      <trkpt lat="43.62361" lon="1.41978">
        <ele>136</ele>
        <time>2014-04-06T14:59:32.000Z</time>
      </trkpt>
      <trkpt lat="43.62365" lon="1.41977">
        <ele>136</ele>
        <time>2014-04-06T14:59:34.000Z</time>
      </trkpt>
      <trkpt lat="43.62371" lon="1.41979">
        <ele>136</ele>
        <time>2014-04-06T14:59:37.000Z</time>
      </trkpt>
      <trkpt lat="43.62377" lon="1.41979">
        <ele>137</ele>
        <time>2014-04-06T14:59:39.000Z</time>
      </trkpt>
      <trkpt lat="43.62388" lon="1.4198">
        <ele>137</ele>
        <time>2014-04-06T14:59:42.000Z</time>
      </trkpt>
      <trkpt lat="43.62395" lon="1.41981">
        <ele>137</ele>
        <time>2014-04-06T14:59:44.000Z</time>
      </trkpt>
      <trkpt lat="43.62406" lon="1.41983">
        <ele>137</ele>
        <time>2014-04-06T14:59:47.000Z</time>
      </trkpt>
      <trkpt lat="43.62413" lon="1.41983">
        <ele>137</ele>
        <time>2014-04-06T14:59:49.000Z</time>
      </trkpt>
      <trkpt lat="43.62424" lon="1.41985">
        <ele>138</ele>
        <time>2014-04-06T14:59:52.000Z</time>
      </trkpt>
      <trkpt lat="43.62434" lon="1.41988">
        <ele>138</ele>
        <time>2014-04-06T14:59:55.000Z</time>
      </trkpt>
      <trkpt lat="43.62442" lon="1.41989">
        <ele>138</ele>
        <time>2014-04-06T14:59:57.000Z</time>
      </trkpt>
      <trkpt lat="43.62449" lon="1.41991">
        <ele>138</ele>
        <time>2014-04-06T14:59:59.000Z</time>
      </trkpt>
      <trkpt lat="43.6246" lon="1.41994">
        <ele>138</ele>
        <time>2014-04-06T15:00:02.000Z</time>
      </trkpt>
      <trkpt lat="43.62469" lon="1.41996">
        <ele>138</ele>
        <time>2014-04-06T15:00:04.000Z</time>
      </trkpt>
      <trkpt lat="43.6248" lon="1.41997">
        <ele>139</ele>
        <time>2014-04-06T15:00:06.000Z</time>
      </trkpt>
      <trkpt lat="43.62493" lon="1.42">
        <ele>138</ele>
        <time>2014-04-06T15:00:09.000Z</time>
      </trkpt>
      <trkpt lat="43.62501" lon="1.42002">
        <ele>139</ele>
        <time>2014-04-06T15:00:11.000Z</time>
      </trkpt>
      <trkpt lat="43.62508" lon="1.42003">
        <ele>138</ele>
        <time>2014-04-06T15:00:13.000Z</time>
      </trkpt>
      <trkpt lat="43.62519" lon="1.42004">
        <ele>138</ele>
        <time>2014-04-06T15:00:16.000Z</time>
      </trkpt>
      <trkpt lat="43.62529" lon="1.42008">
        <ele>137</ele>
        <time>2014-04-06T15:00:19.000Z</time>
      </trkpt>
      <trkpt lat="43.62539" lon="1.4201">
        <ele>137</ele>
        <time>2014-04-06T15:00:22.000Z</time>
      </trkpt>
      <trkpt lat="43.62546" lon="1.42012">
        <ele>137</ele>
        <time>2014-04-06T15:00:24.000Z</time>
      </trkpt>
      <trkpt lat="43.62557" lon="1.42014">
        <ele>137</ele>
        <time>2014-04-06T15:00:27.000Z</time>
      </trkpt>
      <trkpt lat="43.62565" lon="1.42014">
        <ele>137</ele>
        <time>2014-04-06T15:00:29.000Z</time>
      </trkpt>
      <trkpt lat="43.62577" lon="1.42015">
        <ele>137</ele>
        <time>2014-04-06T15:00:32.000Z</time>
      </trkpt>
      <trkpt lat="43.62584" lon="1.42016">
        <ele>136</ele>
        <time>2014-04-06T15:00:34.000Z</time>
      </trkpt>
      <trkpt lat="43.62595" lon="1.42018">
        <ele>136</ele>
        <time>2014-04-06T15:00:37.000Z</time>
      </trkpt>
      <trkpt lat="43.62605" lon="1.4202">
        <ele>135</ele>
        <time>2014-04-06T15:00:40.000Z</time>
      </trkpt>
      <trkpt lat="43.62616" lon="1.42022">
        <ele>135</ele>
        <time>2014-04-06T15:00:43.000Z</time>
      </trkpt>
      <trkpt lat="43.62622" lon="1.42024">
        <ele>135</ele>
        <time>2014-04-06T15:00:45.000Z</time>
      </trkpt>
      <trkpt lat="43.6263" lon="1.42025">
        <ele>135</ele>
        <time>2014-04-06T15:00:47.000Z</time>
      </trkpt>
      <trkpt lat="43.6264" lon="1.42027">
        <ele>135</ele>
        <time>2014-04-06T15:00:50.000Z</time>
      </trkpt>
      <trkpt lat="43.62648" lon="1.42027">
        <ele>135</ele>
        <time>2014-04-06T15:00:52.000Z</time>
      </trkpt>
      <trkpt lat="43.62659" lon="1.42029">
        <ele>135</ele>
        <time>2014-04-06T15:00:55.000Z</time>
      </trkpt>
      <trkpt lat="43.62666" lon="1.4203">
        <ele>135</ele>
        <time>2014-04-06T15:00:57.000Z</time>
      </trkpt>
      <trkpt lat="43.62677" lon="1.42032">
        <ele>134</ele>
        <time>2014-04-06T15:01:00.000Z</time>
      </trkpt>
      <trkpt lat="43.62689" lon="1.42033">
        <ele>134</ele>
        <time>2014-04-06T15:01:03.000Z</time>
      </trkpt>
      <trkpt lat="43.627" lon="1.42034">
        <ele>134</ele>
        <time>2014-04-06T15:01:06.000Z</time>
      </trkpt>
      <trkpt lat="43.62711" lon="1.42035">
        <ele>134</ele>
        <time>2014-04-06T15:01:09.000Z</time>
      </trkpt>
      <trkpt lat="43.62723" lon="1.42036">
        <ele>134</ele>
        <time>2014-04-06T15:01:12.000Z</time>
      </trkpt>
      <trkpt lat="43.62731" lon="1.42037">
        <ele>134</ele>
        <time>2014-04-06T15:01:14.000Z</time>
      </trkpt>
      <trkpt lat="43.62742" lon="1.4204">
        <ele>134</ele>
        <time>2014-04-06T15:01:17.000Z</time>
      </trkpt>
      <trkpt lat="43.62749" lon="1.42041">
        <ele>134</ele>
        <time>2014-04-06T15:01:19.000Z</time>
      </trkpt>
      <trkpt lat="43.62761" lon="1.42042">
        <ele>134</ele>
        <time>2014-04-06T15:01:22.000Z</time>
      </trkpt>
      <trkpt lat="43.62769" lon="1.42043">
        <ele>134</ele>
        <time>2014-04-06T15:01:24.000Z</time>
      </trkpt>
      <trkpt lat="43.62782" lon="1.42046">
        <ele>134</ele>
        <time>2014-04-06T15:01:27.000Z</time>
      </trkpt>
      <trkpt lat="43.6279" lon="1.42047">
        <ele>134</ele>
        <time>2014-04-06T15:01:29.000Z</time>
      </trkpt>
      <trkpt lat="43.62802" lon="1.4205">
        <ele>134</ele>
        <time>2014-04-06T15:01:32.000Z</time>
      </trkpt>
      <trkpt lat="43.62814" lon="1.42051">
        <ele>134</ele>
        <time>2014-04-06T15:01:35.000Z</time>
      </trkpt>
      <trkpt lat="43.62826" lon="1.42051">
        <ele>134</ele>
        <time>2014-04-06T15:01:38.000Z</time>
      </trkpt>
      <trkpt lat="43.62838" lon="1.42052">
        <ele>134</ele>
        <time>2014-04-06T15:01:41.000Z</time>
      </trkpt>
      <trkpt lat="43.62849" lon="1.42056">
        <ele>134</ele>
        <time>2014-04-06T15:01:44.000Z</time>
      </trkpt>
      <trkpt lat="43.62857" lon="1.42058">
        <ele>134</ele>
        <time>2014-04-06T15:01:46.000Z</time>
      </trkpt>
      <trkpt lat="43.62868" lon="1.42061">
        <ele>134</ele>
        <time>2014-04-06T15:01:49.000Z</time>
      </trkpt>
      <trkpt lat="43.62875" lon="1.42061">
        <ele>134</ele>
        <time>2014-04-06T15:01:51.000Z</time>
      </trkpt>
      <trkpt lat="43.62886" lon="1.42061">
        <ele>134</ele>
        <time>2014-04-06T15:01:54.000Z</time>
      </trkpt>
      <trkpt lat="43.62893" lon="1.42061">
        <ele>134</ele>
        <time>2014-04-06T15:01:56.000Z</time>
      </trkpt>
      <trkpt lat="43.62902" lon="1.42061">
        <ele>134</ele>
        <time>2014-04-06T15:01:59.000Z</time>
      </trkpt>
      <trkpt lat="43.62913" lon="1.42062">
        <ele>134</ele>
        <time>2014-04-06T15:02:02.000Z</time>
      </trkpt>
      <trkpt lat="43.62924" lon="1.42063">
        <ele>135</ele>
        <time>2014-04-06T15:02:05.000Z</time>
      </trkpt>
      <trkpt lat="43.62936" lon="1.42064">
        <ele>135</ele>
        <time>2014-04-06T15:02:08.000Z</time>
      </trkpt>
      <trkpt lat="43.62947" lon="1.42065">
        <ele>134</ele>
        <time>2014-04-06T15:02:11.000Z</time>
      </trkpt>
      <trkpt lat="43.62957" lon="1.42066">
        <ele>134</ele>
        <time>2014-04-06T15:02:14.000Z</time>
      </trkpt>
      <trkpt lat="43.62967" lon="1.42068">
        <ele>134</ele>
        <time>2014-04-06T15:02:17.000Z</time>
      </trkpt>
      <trkpt lat="43.62974" lon="1.42068">
        <ele>134</ele>
        <time>2014-04-06T15:02:19.000Z</time>
      </trkpt>
      <trkpt lat="43.62981" lon="1.42069">
        <ele>135</ele>
        <time>2014-04-06T15:02:21.000Z</time>
      </trkpt>
      <trkpt lat="43.62993" lon="1.4207">
        <ele>135</ele>
        <time>2014-04-06T15:02:24.000Z</time>
      </trkpt>
      <trkpt lat="43.63005" lon="1.42072">
        <ele>135</ele>
        <time>2014-04-06T15:02:27.000Z</time>
      </trkpt>
      <trkpt lat="43.63017" lon="1.42073">
        <ele>135</ele>
        <time>2014-04-06T15:02:30.000Z</time>
      </trkpt>
      <trkpt lat="43.63025" lon="1.42074">
        <ele>135</ele>
        <time>2014-04-06T15:02:32.000Z</time>
      </trkpt>
      <trkpt lat="43.63033" lon="1.42075">
        <ele>135</ele>
        <time>2014-04-06T15:02:34.000Z</time>
      </trkpt>
      <trkpt lat="43.63046" lon="1.42077">
        <ele>135</ele>
        <time>2014-04-06T15:02:37.000Z</time>
      </trkpt>
      <trkpt lat="43.63054" lon="1.42078">
        <ele>136</ele>
        <time>2014-04-06T15:02:39.000Z</time>
      </trkpt>
      <trkpt lat="43.63062" lon="1.4208">
        <ele>136</ele>
        <time>2014-04-06T15:02:41.000Z</time>
      </trkpt>
      <trkpt lat="43.6307" lon="1.42082">
        <ele>136</ele>
        <time>2014-04-06T15:02:43.000Z</time>
      </trkpt>
      <trkpt lat="43.63081" lon="1.42084">
        <ele>137</ele>
        <time>2014-04-06T15:02:46.000Z</time>
      </trkpt>
      <trkpt lat="43.63089" lon="1.42085">
        <ele>137</ele>
        <time>2014-04-06T15:02:48.000Z</time>
      </trkpt>
      <trkpt lat="43.63097" lon="1.42087">
        <ele>136</ele>
        <time>2014-04-06T15:02:50.000Z</time>
      </trkpt>
      <trkpt lat="43.63105" lon="1.42088">
        <ele>136</ele>
        <time>2014-04-06T15:02:52.000Z</time>
      </trkpt>
      <trkpt lat="43.63117" lon="1.42089">
        <ele>135</ele>
        <time>2014-04-06T15:02:55.000Z</time>
      </trkpt>
      <trkpt lat="43.63125" lon="1.42091">
        <ele>135</ele>
        <time>2014-04-06T15:02:57.000Z</time>
      </trkpt>
      <trkpt lat="43.63136" lon="1.42093">
        <ele>135</ele>
        <time>2014-04-06T15:03:00.000Z</time>
      </trkpt>
      <trkpt lat="43.63148" lon="1.42095">
        <ele>135</ele>
        <time>2014-04-06T15:03:03.000Z</time>
      </trkpt>
      <trkpt lat="43.63161" lon="1.42095">
        <ele>135</ele>
        <time>2014-04-06T15:03:06.000Z</time>
      </trkpt>
      <trkpt lat="43.63173" lon="1.42094">
        <ele>135</ele>
        <time>2014-04-06T15:03:09.000Z</time>
      </trkpt>
      <trkpt lat="43.63181" lon="1.42095">
        <ele>135</ele>
        <time>2014-04-06T15:03:11.000Z</time>
      </trkpt>
      <trkpt lat="43.63188" lon="1.42095">
        <ele>135</ele>
        <time>2014-04-06T15:03:13.000Z</time>
      </trkpt>
      <trkpt lat="43.63198" lon="1.42098">
        <ele>135</ele>
        <time>2014-04-06T15:03:16.000Z</time>
      </trkpt>
      <trkpt lat="43.63205" lon="1.42099">
        <ele>135</ele>
        <time>2014-04-06T15:03:18.000Z</time>
      </trkpt>
      <trkpt lat="43.63212" lon="1.42099">
        <ele>135</ele>
        <time>2014-04-06T15:03:20.000Z</time>
      </trkpt>
      <trkpt lat="43.63219" lon="1.42099">
        <ele>135</ele>
        <time>2014-04-06T15:03:22.000Z</time>
      </trkpt>
      <trkpt lat="43.6323" lon="1.421">
        <ele>135</ele>
        <time>2014-04-06T15:03:25.000Z</time>
      </trkpt>
      <trkpt lat="43.63241" lon="1.42101">
        <ele>134</ele>
        <time>2014-04-06T15:03:28.000Z</time>
      </trkpt>
      <trkpt lat="43.63252" lon="1.42102">
        <ele>135</ele>
        <time>2014-04-06T15:03:31.000Z</time>
      </trkpt>
      <trkpt lat="43.63263" lon="1.42104">
        <ele>135</ele>
        <time>2014-04-06T15:03:34.000Z</time>
      </trkpt>
      <trkpt lat="43.63275" lon="1.42105">
        <ele>135</ele>
        <time>2014-04-06T15:03:37.000Z</time>
      </trkpt>
      <trkpt lat="43.63286" lon="1.42108">
        <ele>135</ele>
        <time>2014-04-06T15:03:40.000Z</time>
      </trkpt>
      <trkpt lat="43.63293" lon="1.42108">
        <ele>135</ele>
        <time>2014-04-06T15:03:42.000Z</time>
      </trkpt>
      <trkpt lat="43.63303" lon="1.42109">
        <ele>135</ele>
        <time>2014-04-06T15:03:45.000Z</time>
      </trkpt>
      <trkpt lat="43.63313" lon="1.4211">
        <ele>135</ele>
        <time>2014-04-06T15:03:48.000Z</time>
      </trkpt>
      <trkpt lat="43.63321" lon="1.42111">
        <ele>135</ele>
        <time>2014-04-06T15:03:50.000Z</time>
      </trkpt>
      <trkpt lat="43.63328" lon="1.42112">
        <ele>136</ele>
        <time>2014-04-06T15:03:52.000Z</time>
      </trkpt>
      <trkpt lat="43.6334" lon="1.42113">
        <ele>136</ele>
        <time>2014-04-06T15:03:55.000Z</time>
      </trkpt>
      <trkpt lat="43.63352" lon="1.42115">
        <ele>136</ele>
        <time>2014-04-06T15:03:58.000Z</time>
      </trkpt>
      <trkpt lat="43.6336" lon="1.42117">
        <ele>136</ele>
        <time>2014-04-06T15:04:00.000Z</time>
      </trkpt>
      <trkpt lat="43.63371" lon="1.4212">
        <ele>136</ele>
        <time>2014-04-06T15:04:03.000Z</time>
      </trkpt>
      <trkpt lat="43.63378" lon="1.42122">
        <ele>136</ele>
        <time>2014-04-06T15:04:05.000Z</time>
      </trkpt>
      <trkpt lat="43.63389" lon="1.42125">
        <ele>136</ele>
        <time>2014-04-06T15:04:08.000Z</time>
      </trkpt>
      <trkpt lat="43.63397" lon="1.42125">
        <ele>136</ele>
        <time>2014-04-06T15:04:10.000Z</time>
      </trkpt>
      <trkpt lat="43.63409" lon="1.42122">
        <ele>136</ele>
        <time>2014-04-06T15:04:13.000Z</time>
      </trkpt>
      <trkpt lat="43.63426" lon="1.42119">
        <ele>136</ele>
        <time>2014-04-06T15:04:16.000Z</time>
      </trkpt>
      <trkpt lat="43.63435" lon="1.42121">
        <ele>136</ele>
        <time>2014-04-06T15:04:18.000Z</time>
      </trkpt>
      <trkpt lat="43.63448" lon="1.42124">
        <ele>136</ele>
        <time>2014-04-06T15:04:21.000Z</time>
      </trkpt>
      <trkpt lat="43.63456" lon="1.42125">
        <ele>136</ele>
        <time>2014-04-06T15:04:23.000Z</time>
      </trkpt>
      <trkpt lat="43.63468" lon="1.42125">
        <ele>135</ele>
        <time>2014-04-06T15:04:26.000Z</time>
      </trkpt>
      <trkpt lat="43.63478" lon="1.42126">
        <ele>135</ele>
        <time>2014-04-06T15:04:29.000Z</time>
      </trkpt>
      <trkpt lat="43.63482" lon="1.42127">
        <ele>135</ele>
        <time>2014-04-06T15:04:31.000Z</time>
      </trkpt>
      <trkpt lat="43.63484" lon="1.42134">
        <ele>135</ele>
        <time>2014-04-06T15:04:34.000Z</time>
      </trkpt>
      <trkpt lat="43.63482" lon="1.42138">
        <ele>136</ele>
        <time>2014-04-06T15:04:36.000Z</time>
      </trkpt>
      <trkpt lat="43.63483" lon="1.4214">
        <ele>136</ele>
        <time>2014-04-06T15:04:39.000Z</time>
      </trkpt>
      <trkpt lat="43.6348" lon="1.42134">
        <ele>135</ele>
        <time>2014-04-06T15:04:58.000Z</time>
      </trkpt>
      <trkpt lat="43.6348" lon="1.42134">
        <ele>135</ele>
        <time>2014-04-06T15:05:18.000Z</time>
      </trkpt>
      <trkpt lat="43.63483" lon="1.42135">
        <ele>135</ele>
        <time>2014-04-06T15:05:45.000Z</time>
      </trkpt>
      <trkpt lat="43.63483" lon="1.42138">
        <ele>135</ele>
        <time>2014-04-06T15:05:47.000Z</time>
      </trkpt>
      <trkpt lat="43.63482" lon="1.42141">
        <ele>136</ele>
        <time>2014-04-06T15:05:49.000Z</time>
      </trkpt>
      <trkpt lat="43.63481" lon="1.42146">
        <ele>136</ele>
        <time>2014-04-06T15:05:52.000Z</time>
      </trkpt>
      <trkpt lat="43.63481" lon="1.4215">
        <ele>136</ele>
        <time>2014-04-06T15:05:54.000Z</time>
      </trkpt>
      <trkpt lat="43.63481" lon="1.42159">
        <ele>136</ele>
        <time>2014-04-06T15:05:57.000Z</time>
      </trkpt>
      <trkpt lat="43.63482" lon="1.42166">
        <ele>136</ele>
        <time>2014-04-06T15:06:00.000Z</time>
      </trkpt>
      <trkpt lat="43.63486" lon="1.42168">
        <ele>136</ele>
        <time>2014-04-06T15:06:03.000Z</time>
      </trkpt>
      <trkpt lat="43.6349" lon="1.4217">
        <ele>136</ele>
        <time>2014-04-06T15:06:05.000Z</time>
      </trkpt>
      <trkpt lat="43.63495" lon="1.42173">
        <ele>136</ele>
        <time>2014-04-06T15:06:08.000Z</time>
      </trkpt>
      <trkpt lat="43.63499" lon="1.42174">
        <ele>136</ele>
        <time>2014-04-06T15:06:10.000Z</time>
      </trkpt>
      <trkpt lat="43.63509" lon="1.42176">
        <ele>135</ele>
        <time>2014-04-06T15:06:13.000Z</time>
      </trkpt>
      <trkpt lat="43.63519" lon="1.42179">
        <ele>135</ele>
        <time>2014-04-06T15:06:16.000Z</time>
      </trkpt>
      <trkpt lat="43.63526" lon="1.42179">
        <ele>135</ele>
        <time>2014-04-06T15:06:18.000Z</time>
      </trkpt>
      <trkpt lat="43.63535" lon="1.42178">
        <ele>135</ele>
        <time>2014-04-06T15:06:21.000Z</time>
      </trkpt>
      <trkpt lat="43.63539" lon="1.42174">
        <ele>135</ele>
        <time>2014-04-06T15:06:23.000Z</time>
      </trkpt>
      <trkpt lat="43.63536" lon="1.42169">
        <ele>135</ele>
        <time>2014-04-06T15:06:25.000Z</time>
      </trkpt>
      <trkpt lat="43.63529" lon="1.4217">
        <ele>135</ele>
        <time>2014-04-06T15:06:28.000Z</time>
      </trkpt>
      <trkpt lat="43.63526" lon="1.4217">
        <ele>135</ele>
        <time>2014-04-06T15:06:30.000Z</time>
      </trkpt>
      <trkpt lat="43.63522" lon="1.42169">
        <ele>135</ele>
        <time>2014-04-06T15:06:33.000Z</time>
      </trkpt>
      <trkpt lat="43.6352" lon="1.42168">
        <ele>135</ele>
        <time>2014-04-06T15:06:35.000Z</time>
      </trkpt>
      <trkpt lat="43.63518" lon="1.42167">
        <ele>135</ele>
        <time>2014-04-06T15:06:37.000Z</time>
      </trkpt>
      <trkpt lat="43.63516" lon="1.42165">
        <ele>135</ele>
        <time>2014-04-06T15:06:39.000Z</time>
      </trkpt>
      <trkpt lat="43.63512" lon="1.42165">
        <ele>135</ele>
        <time>2014-04-06T15:06:41.000Z</time>
      </trkpt>
      <trkpt lat="43.63511" lon="1.42165">
        <ele>135</ele>
        <time>2014-04-06T15:06:44.000Z</time>
      </trkpt>
      <trkpt lat="43.63511" lon="1.42164">
        <ele>135</ele>
        <time>2014-04-06T15:06:56.000Z</time>
      </trkpt>
      <trkpt lat="43.63508" lon="1.42162">
        <ele>135</ele>
        <time>2014-04-06T15:06:58.000Z</time>
      </trkpt>
      <trkpt lat="43.635" lon="1.4216">
        <ele>136</ele>
        <time>2014-04-06T15:07:01.000Z</time>
      </trkpt>
      <trkpt lat="43.63494" lon="1.42158">
        <ele>136</ele>
        <time>2014-04-06T15:07:03.000Z</time>
      </trkpt>
      <trkpt lat="43.63485" lon="1.42154">
        <ele>136</ele>
        <time>2014-04-06T15:07:06.000Z</time>
      </trkpt>
      <trkpt lat="43.63474" lon="1.42154">
        <ele>136</ele>
        <time>2014-04-06T15:07:09.000Z</time>
      </trkpt>
      <trkpt lat="43.63465" lon="1.42157">
        <ele>136</ele>
        <time>2014-04-06T15:07:12.000Z</time>
      </trkpt>
      <trkpt lat="43.63455" lon="1.42156">
        <ele>136</ele>
        <time>2014-04-06T15:07:15.000Z</time>
      </trkpt>
      <trkpt lat="43.63445" lon="1.42156">
        <ele>136</ele>
        <time>2014-04-06T15:07:18.000Z</time>
      </trkpt>
      <trkpt lat="43.63439" lon="1.42157">
        <ele>136</ele>
        <time>2014-04-06T15:07:20.000Z</time>
      </trkpt>
      <trkpt lat="43.63431" lon="1.42161">
        <ele>137</ele>
        <time>2014-04-06T15:07:23.000Z</time>
      </trkpt>
      <trkpt lat="43.63426" lon="1.42165">
        <ele>137</ele>
        <time>2014-04-06T15:07:25.000Z</time>
      </trkpt>
      <trkpt lat="43.6342" lon="1.42169">
        <ele>138</ele>
        <time>2014-04-06T15:07:28.000Z</time>
      </trkpt>
      <trkpt lat="43.63416" lon="1.42171">
        <ele>138</ele>
        <time>2014-04-06T15:07:30.000Z</time>
      </trkpt>
      <trkpt lat="43.63408" lon="1.42175">
        <ele>137</ele>
        <time>2014-04-06T15:07:33.000Z</time>
      </trkpt>
      <trkpt lat="43.63403" lon="1.4218">
        <ele>137</ele>
        <time>2014-04-06T15:07:35.000Z</time>
      </trkpt>
      <trkpt lat="43.63395" lon="1.42181">
        <ele>137</ele>
        <time>2014-04-06T15:07:38.000Z</time>
      </trkpt>
      <trkpt lat="43.63389" lon="1.4218">
        <ele>137</ele>
        <time>2014-04-06T15:07:41.000Z</time>
      </trkpt>
      <trkpt lat="43.63387" lon="1.42181">
        <ele>137</ele>
        <time>2014-04-06T15:07:44.000Z</time>
      </trkpt>
      <trkpt lat="43.63391" lon="1.42179">
        <ele>137</ele>
        <time>2014-04-06T15:07:53.000Z</time>
      </trkpt>
      <trkpt lat="43.6339" lon="1.42178">
        <ele>137</ele>
        <time>2014-04-06T15:08:01.000Z</time>
      </trkpt>
      <trkpt lat="43.63385" lon="1.4218">
        <ele>137</ele>
        <time>2014-04-06T15:08:04.000Z</time>
      </trkpt>
      <trkpt lat="43.6338" lon="1.42182">
        <ele>137</ele>
        <time>2014-04-06T15:08:06.000Z</time>
      </trkpt>
      <trkpt lat="43.63373" lon="1.42186">
        <ele>137</ele>
        <time>2014-04-06T15:08:09.000Z</time>
      </trkpt>
      <trkpt lat="43.63367" lon="1.42189">
        <ele>137</ele>
        <time>2014-04-06T15:08:11.000Z</time>
      </trkpt>
      <trkpt lat="43.63358" lon="1.42192">
        <ele>136</ele>
        <time>2014-04-06T15:08:14.000Z</time>
      </trkpt>
      <trkpt lat="43.63348" lon="1.42196">
        <ele>136</ele>
        <time>2014-04-06T15:08:17.000Z</time>
      </trkpt>
      <trkpt lat="43.63338" lon="1.42201">
        <ele>136</ele>
        <time>2014-04-06T15:08:20.000Z</time>
      </trkpt>
      <trkpt lat="43.63329" lon="1.42206">
        <ele>136</ele>
        <time>2014-04-06T15:08:23.000Z</time>
      </trkpt>
      <trkpt lat="43.63319" lon="1.4221">
        <ele>136</ele>
        <time>2014-04-06T15:08:26.000Z</time>
      </trkpt>
      <trkpt lat="43.63313" lon="1.42213">
        <ele>136</ele>
        <time>2014-04-06T15:08:28.000Z</time>
      </trkpt>
      <trkpt lat="43.63303" lon="1.42215">
        <ele>136</ele>
        <time>2014-04-06T15:08:31.000Z</time>
      </trkpt>
      <trkpt lat="43.63298" lon="1.42218">
        <ele>136</ele>
        <time>2014-04-06T15:08:33.000Z</time>
      </trkpt>
      <trkpt lat="43.63294" lon="1.42229">
        <ele>136</ele>
        <time>2014-04-06T15:08:36.000Z</time>
      </trkpt>
      <trkpt lat="43.63296" lon="1.42238">
        <ele>136</ele>
        <time>2014-04-06T15:08:38.000Z</time>
      </trkpt>
      <trkpt lat="43.63303" lon="1.42251">
        <ele>136</ele>
        <time>2014-04-06T15:08:41.000Z</time>
      </trkpt>
      <trkpt lat="43.63308" lon="1.42259">
        <ele>136</ele>
        <time>2014-04-06T15:08:43.000Z</time>
      </trkpt>
      <trkpt lat="43.63312" lon="1.42271">
        <ele>136</ele>
        <time>2014-04-06T15:08:46.000Z</time>
      </trkpt>
      <trkpt lat="43.63313" lon="1.42278">
        <ele>136</ele>
        <time>2014-04-06T15:08:48.000Z</time>
      </trkpt>
      <trkpt lat="43.63313" lon="1.42289">
        <ele>136</ele>
        <time>2014-04-06T15:08:51.000Z</time>
      </trkpt>
      <trkpt lat="43.63314" lon="1.42298">
        <ele>135</ele>
        <time>2014-04-06T15:08:53.000Z</time>
      </trkpt>
      <trkpt lat="43.63314" lon="1.42306">
        <ele>135</ele>
        <time>2014-04-06T15:08:55.000Z</time>
      </trkpt>
      <trkpt lat="43.63315" lon="1.42314">
        <ele>135</ele>
        <time>2014-04-06T15:08:57.000Z</time>
      </trkpt>
      <trkpt lat="43.63317" lon="1.42326">
        <ele>135</ele>
        <time>2014-04-06T15:09:00.000Z</time>
      </trkpt>
      <trkpt lat="43.63319" lon="1.42336">
        <ele>135</ele>
        <time>2014-04-06T15:09:02.000Z</time>
      </trkpt>
      <trkpt lat="43.63322" lon="1.42352">
        <ele>135</ele>
        <time>2014-04-06T15:09:05.000Z</time>
      </trkpt>
      <trkpt lat="43.63326" lon="1.42367">
        <ele>135</ele>
        <time>2014-04-06T15:09:08.000Z</time>
      </trkpt>
      <trkpt lat="43.63327" lon="1.42377">
        <ele>135</ele>
        <time>2014-04-06T15:09:10.000Z</time>
      </trkpt>
      <trkpt lat="43.63327" lon="1.42388">
        <ele>135</ele>
        <time>2014-04-06T15:09:12.000Z</time>
      </trkpt>
      <trkpt lat="43.63329" lon="1.42398">
        <ele>135</ele>
        <time>2014-04-06T15:09:14.000Z</time>
      </trkpt>
      <trkpt lat="43.63331" lon="1.42404">
        <ele>135</ele>
        <time>2014-04-06T15:09:16.000Z</time>
      </trkpt>
      <trkpt lat="43.63334" lon="1.42412">
        <ele>135</ele>
        <time>2014-04-06T15:09:19.000Z</time>
      </trkpt>
      <trkpt lat="43.63335" lon="1.4242">
        <ele>135</ele>
        <time>2014-04-06T15:09:21.000Z</time>
      </trkpt>
      <trkpt lat="43.63335" lon="1.42432">
        <ele>135</ele>
        <time>2014-04-06T15:09:24.000Z</time>
      </trkpt>
      <trkpt lat="43.63335" lon="1.42446">
        <ele>135</ele>
        <time>2014-04-06T15:09:27.000Z</time>
      </trkpt>
      <trkpt lat="43.63336" lon="1.42461">
        <ele>135</ele>
        <time>2014-04-06T15:09:30.000Z</time>
      </trkpt>
      <trkpt lat="43.63337" lon="1.42471">
        <ele>135</ele>
        <time>2014-04-06T15:09:32.000Z</time>
      </trkpt>
      <trkpt lat="43.63336" lon="1.42485">
        <ele>135</ele>
        <time>2014-04-06T15:09:35.000Z</time>
      </trkpt>
      <trkpt lat="43.63338" lon="1.42493">
        <ele>135</ele>
        <time>2014-04-06T15:09:37.000Z</time>
      </trkpt>
      <trkpt lat="43.63342" lon="1.42503">
        <ele>135</ele>
        <time>2014-04-06T15:09:40.000Z</time>
      </trkpt>
      <trkpt lat="43.63343" lon="1.4251">
        <ele>135</ele>
        <time>2014-04-06T15:09:42.000Z</time>
      </trkpt>
      <trkpt lat="43.63345" lon="1.42524">
        <ele>135</ele>
        <time>2014-04-06T15:09:45.000Z</time>
      </trkpt>
      <trkpt lat="43.63348" lon="1.42534">
        <ele>135</ele>
        <time>2014-04-06T15:09:47.000Z</time>
      </trkpt>
      <trkpt lat="43.63353" lon="1.42547">
        <ele>135</ele>
        <time>2014-04-06T15:09:50.000Z</time>
      </trkpt>
      <trkpt lat="43.63356" lon="1.42555">
        <ele>135</ele>
        <time>2014-04-06T15:09:52.000Z</time>
      </trkpt>
      <trkpt lat="43.63362" lon="1.42565">
        <ele>135</ele>
        <time>2014-04-06T15:09:55.000Z</time>
      </trkpt>
      <trkpt lat="43.63368" lon="1.42575">
        <ele>135</ele>
        <time>2014-04-06T15:09:58.000Z</time>
      </trkpt>
      <trkpt lat="43.63373" lon="1.42587">
        <ele>135</ele>
        <time>2014-04-06T15:10:01.000Z</time>
      </trkpt>
      <trkpt lat="43.63374" lon="1.426">
        <ele>135</ele>
        <time>2014-04-06T15:10:04.000Z</time>
      </trkpt>
      <trkpt lat="43.63372" lon="1.42608">
        <ele>135</ele>
        <time>2014-04-06T15:10:06.000Z</time>
      </trkpt>
      <trkpt lat="43.63367" lon="1.42618">
        <ele>135</ele>
        <time>2014-04-06T15:10:09.000Z</time>
      </trkpt>
      <trkpt lat="43.63369" lon="1.42622">
        <ele>135</ele>
        <time>2014-04-06T15:10:11.000Z</time>
      </trkpt>
      <trkpt lat="43.63373" lon="1.42629">
        <ele>135</ele>
        <time>2014-04-06T15:10:13.000Z</time>
      </trkpt>
      <trkpt lat="43.63376" lon="1.42638">
        <ele>135</ele>
        <time>2014-04-06T15:10:15.000Z</time>
      </trkpt>
      <trkpt lat="43.63382" lon="1.42652">
        <ele>135</ele>
        <time>2014-04-06T15:10:18.000Z</time>
      </trkpt>
      <trkpt lat="43.63385" lon="1.4266">
        <ele>135</ele>
        <time>2014-04-06T15:10:20.000Z</time>
      </trkpt>
      <trkpt lat="43.63392" lon="1.42673">
        <ele>135</ele>
        <time>2014-04-06T15:10:23.000Z</time>
      </trkpt>
      <trkpt lat="43.63398" lon="1.42684">
        <ele>135</ele>
        <time>2014-04-06T15:10:26.000Z</time>
      </trkpt>
      <trkpt lat="43.634" lon="1.42693">
        <ele>135</ele>
        <time>2014-04-06T15:10:28.000Z</time>
      </trkpt>
      <trkpt lat="43.63402" lon="1.42703">
        <ele>135</ele>
        <time>2014-04-06T15:10:30.000Z</time>
      </trkpt>
      <trkpt lat="43.63403" lon="1.42718">
        <ele>135</ele>
        <time>2014-04-06T15:10:33.000Z</time>
      </trkpt>
      <trkpt lat="43.63407" lon="1.42733">
        <ele>135</ele>
        <time>2014-04-06T15:10:36.000Z</time>
      </trkpt>
      <trkpt lat="43.63411" lon="1.42749">
        <ele>135</ele>
        <time>2014-04-06T15:10:39.000Z</time>
      </trkpt>
      <trkpt lat="43.63414" lon="1.42763">
        <ele>135</ele>
        <time>2014-04-06T15:10:42.000Z</time>
      </trkpt>
      <trkpt lat="43.63419" lon="1.42778">
        <ele>136</ele>
        <time>2014-04-06T15:10:45.000Z</time>
      </trkpt>
      <trkpt lat="43.63424" lon="1.42792">
        <ele>136</ele>
        <time>2014-04-06T15:10:48.000Z</time>
      </trkpt>
      <trkpt lat="43.6343" lon="1.42799">
        <ele>136</ele>
        <time>2014-04-06T15:10:50.000Z</time>
      </trkpt>
      <trkpt lat="43.63441" lon="1.42799">
        <ele>136</ele>
        <time>2014-04-06T15:10:53.000Z</time>
      </trkpt>
      <trkpt lat="43.63452" lon="1.42795">
        <ele>136</ele>
        <time>2014-04-06T15:10:56.000Z</time>
      </trkpt>
      <trkpt lat="43.63462" lon="1.42794">
        <ele>136</ele>
        <time>2014-04-06T15:10:59.000Z</time>
      </trkpt>
      <trkpt lat="43.63465" lon="1.428">
        <ele>136</ele>
        <time>2014-04-06T15:11:01.000Z</time>
      </trkpt>
      <trkpt lat="43.63466" lon="1.42812">
        <ele>136</ele>
        <time>2014-04-06T15:11:04.000Z</time>
      </trkpt>
      <trkpt lat="43.63466" lon="1.42821">
        <ele>136</ele>
        <time>2014-04-06T15:11:06.000Z</time>
      </trkpt>
      <trkpt lat="43.63467" lon="1.42833">
        <ele>136</ele>
        <time>2014-04-06T15:11:09.000Z</time>
      </trkpt>
      <trkpt lat="43.63467" lon="1.4284">
        <ele>137</ele>
        <time>2014-04-06T15:11:11.000Z</time>
      </trkpt>
      <trkpt lat="43.63465" lon="1.4285">
        <ele>137</ele>
        <time>2014-04-06T15:11:14.000Z</time>
      </trkpt>
      <trkpt lat="43.63462" lon="1.42857">
        <ele>137</ele>
        <time>2014-04-06T15:11:17.000Z</time>
      </trkpt>
      <trkpt lat="43.63463" lon="1.42863">
        <ele>137</ele>
        <time>2014-04-06T15:11:19.000Z</time>
      </trkpt>
      <trkpt lat="43.63468" lon="1.42873">
        <ele>138</ele>
        <time>2014-04-06T15:11:22.000Z</time>
      </trkpt>
      <trkpt lat="43.6347" lon="1.42879">
        <ele>138</ele>
        <time>2014-04-06T15:11:24.000Z</time>
      </trkpt>
      <trkpt lat="43.63471" lon="1.42886">
        <ele>138</ele>
        <time>2014-04-06T15:11:27.000Z</time>
      </trkpt>
      <trkpt lat="43.63471" lon="1.42891">
        <ele>138</ele>
        <time>2014-04-06T15:11:29.000Z</time>
      </trkpt>
      <trkpt lat="43.63472" lon="1.42896">
        <ele>138</ele>
        <time>2014-04-06T15:11:31.000Z</time>
      </trkpt>
      <trkpt lat="43.63473" lon="1.42904">
        <ele>138</ele>
        <time>2014-04-06T15:11:34.000Z</time>
      </trkpt>
      <trkpt lat="43.63474" lon="1.4291">
        <ele>138</ele>
        <time>2014-04-06T15:11:36.000Z</time>
      </trkpt>
      <trkpt lat="43.63476" lon="1.42923">
        <ele>139</ele>
        <time>2014-04-06T15:11:39.000Z</time>
      </trkpt>
      <trkpt lat="43.63477" lon="1.42932">
        <ele>139</ele>
        <time>2014-04-06T15:11:41.000Z</time>
      </trkpt>
      <trkpt lat="43.63478" lon="1.42944">
        <ele>139</ele>
        <time>2014-04-06T15:11:44.000Z</time>
      </trkpt>
      <trkpt lat="43.63479" lon="1.42951">
        <ele>139</ele>
        <time>2014-04-06T15:11:46.000Z</time>
      </trkpt>
      <trkpt lat="43.6348" lon="1.42961">
        <ele>140</ele>
        <time>2014-04-06T15:11:49.000Z</time>
      </trkpt>
      <trkpt lat="43.6348" lon="1.42971">
        <ele>140</ele>
        <time>2014-04-06T15:11:52.000Z</time>
      </trkpt>
      <trkpt lat="43.6348" lon="1.42981">
        <ele>140</ele>
        <time>2014-04-06T15:11:55.000Z</time>
      </trkpt>
      <trkpt lat="43.6348" lon="1.42992">
        <ele>140</ele>
        <time>2014-04-06T15:11:58.000Z</time>
      </trkpt>
      <trkpt lat="43.6348" lon="1.43">
        <ele>140</ele>
        <time>2014-04-06T15:12:00.000Z</time>
      </trkpt>
      <trkpt lat="43.63481" lon="1.43011">
        <ele>140</ele>
        <time>2014-04-06T15:12:03.000Z</time>
      </trkpt>
      <trkpt lat="43.63482" lon="1.43022">
        <ele>140</ele>
        <time>2014-04-06T15:12:06.000Z</time>
      </trkpt>
      <trkpt lat="43.63484" lon="1.4303">
        <ele>140</ele>
        <time>2014-04-06T15:12:08.000Z</time>
      </trkpt>
      <trkpt lat="43.63486" lon="1.43041">
        <ele>140</ele>
        <time>2014-04-06T15:12:11.000Z</time>
      </trkpt>
      <trkpt lat="43.63488" lon="1.43051">
        <ele>140</ele>
        <time>2014-04-06T15:12:14.000Z</time>
      </trkpt>
      <trkpt lat="43.63491" lon="1.4306">
        <ele>140</ele>
        <time>2014-04-06T15:12:17.000Z</time>
      </trkpt>
      <trkpt lat="43.63493" lon="1.43067">
        <ele>140</ele>
        <time>2014-04-06T15:12:20.000Z</time>
      </trkpt>
      <trkpt lat="43.63494" lon="1.43071">
        <ele>139</ele>
        <time>2014-04-06T15:12:22.000Z</time>
      </trkpt>
      <trkpt lat="43.63493" lon="1.43077">
        <ele>139</ele>
        <time>2014-04-06T15:12:25.000Z</time>
      </trkpt>
      <trkpt lat="43.63489" lon="1.43083">
        <ele>139</ele>
        <time>2014-04-06T15:12:28.000Z</time>
      </trkpt>
      <trkpt lat="43.63482" lon="1.43085">
        <ele>140</ele>
        <time>2014-04-06T15:12:31.000Z</time>
      </trkpt>
      <trkpt lat="43.63477" lon="1.43087">
        <ele>140</ele>
        <time>2014-04-06T15:12:33.000Z</time>
      </trkpt>
      <trkpt lat="43.63471" lon="1.43089">
        <ele>140</ele>
        <time>2014-04-06T15:12:36.000Z</time>
      </trkpt>
      <trkpt lat="43.63463" lon="1.43092">
        <ele>140</ele>
        <time>2014-04-06T15:12:39.000Z</time>
      </trkpt>
      <trkpt lat="43.63454" lon="1.43096">
        <ele>140</ele>
        <time>2014-04-06T15:12:42.000Z</time>
      </trkpt>
      <trkpt lat="43.63444" lon="1.43099">
        <ele>141</ele>
        <time>2014-04-06T15:12:45.000Z</time>
      </trkpt>
      <trkpt lat="43.63435" lon="1.43102">
        <ele>141</ele>
        <time>2014-04-06T15:12:48.000Z</time>
      </trkpt>
      <trkpt lat="43.63429" lon="1.43104">
        <ele>141</ele>
        <time>2014-04-06T15:12:50.000Z</time>
      </trkpt>
      <trkpt lat="43.63421" lon="1.43108">
        <ele>141</ele>
        <time>2014-04-06T15:12:53.000Z</time>
      </trkpt>
      <trkpt lat="43.63413" lon="1.43111">
        <ele>141</ele>
        <time>2014-04-06T15:12:56.000Z</time>
      </trkpt>
      <trkpt lat="43.63408" lon="1.43114">
        <ele>141</ele>
        <time>2014-04-06T15:12:58.000Z</time>
      </trkpt>
      <trkpt lat="43.63402" lon="1.43116">
        <ele>141</ele>
        <time>2014-04-06T15:13:00.000Z</time>
      </trkpt>
      <trkpt lat="43.63393" lon="1.4312">
        <ele>141</ele>
        <time>2014-04-06T15:13:03.000Z</time>
      </trkpt>
      <trkpt lat="43.63387" lon="1.43123">
        <ele>141</ele>
        <time>2014-04-06T15:13:05.000Z</time>
      </trkpt>
      <trkpt lat="43.63365" lon="1.43129">
        <ele>141</ele>
        <time>2014-04-06T15:13:13.000Z</time>
      </trkpt>
      <trkpt lat="43.6333" lon="1.43136">
        <ele>141</ele>
        <time>2014-04-06T15:13:24.000Z</time>
      </trkpt>
      <trkpt lat="43.63324" lon="1.43139">
        <ele>141</ele>
        <time>2014-04-06T15:13:26.000Z</time>
      </trkpt>
      <trkpt lat="43.63316" lon="1.43142">
        <ele>141</ele>
        <time>2014-04-06T15:13:29.000Z</time>
      </trkpt>
      <trkpt lat="43.63309" lon="1.43145">
        <ele>141</ele>
        <time>2014-04-06T15:13:31.000Z</time>
      </trkpt>
      <trkpt lat="43.63301" lon="1.43148">
        <ele>141</ele>
        <time>2014-04-06T15:13:34.000Z</time>
      </trkpt>
      <trkpt lat="43.63296" lon="1.4315">
        <ele>141</ele>
        <time>2014-04-06T15:13:36.000Z</time>
      </trkpt>
      <trkpt lat="43.63291" lon="1.43153">
        <ele>141</ele>
        <time>2014-04-06T15:13:39.000Z</time>
      </trkpt>
      <trkpt lat="43.63289" lon="1.43161">
        <ele>141</ele>
        <time>2014-04-06T15:13:42.000Z</time>
      </trkpt>
      <trkpt lat="43.6329" lon="1.43168">
        <ele>141</ele>
        <time>2014-04-06T15:13:44.000Z</time>
      </trkpt>
      <trkpt lat="43.63295" lon="1.43182">
        <ele>141</ele>
        <time>2014-04-06T15:13:47.000Z</time>
      </trkpt>
      <trkpt lat="43.63298" lon="1.43192">
        <ele>141</ele>
        <time>2014-04-06T15:13:49.000Z</time>
      </trkpt>
      <trkpt lat="43.63302" lon="1.43206">
        <ele>141</ele>
        <time>2014-04-06T15:13:52.000Z</time>
      </trkpt>
      <trkpt lat="43.63305" lon="1.43216">
        <ele>141</ele>
        <time>2014-04-06T15:13:54.000Z</time>
      </trkpt>
      <trkpt lat="43.63309" lon="1.4323">
        <ele>141</ele>
        <time>2014-04-06T15:13:57.000Z</time>
      </trkpt>
      <trkpt lat="43.63311" lon="1.43239">
        <ele>141</ele>
        <time>2014-04-06T15:13:59.000Z</time>
      </trkpt>
      <trkpt lat="43.63315" lon="1.43252">
        <ele>141</ele>
        <time>2014-04-06T15:14:02.000Z</time>
      </trkpt>
      <trkpt lat="43.63317" lon="1.43261">
        <ele>141</ele>
        <time>2014-04-06T15:14:04.000Z</time>
      </trkpt>
      <trkpt lat="43.6332" lon="1.43269">
        <ele>141</ele>
        <time>2014-04-06T15:14:06.000Z</time>
      </trkpt>
      <trkpt lat="43.63322" lon="1.43282">
        <ele>141</ele>
        <time>2014-04-06T15:14:09.000Z</time>
      </trkpt>
      <trkpt lat="43.63326" lon="1.43295">
        <ele>141</ele>
        <time>2014-04-06T15:14:12.000Z</time>
      </trkpt>
      <trkpt lat="43.63329" lon="1.43307">
        <ele>141</ele>
        <time>2014-04-06T15:14:15.000Z</time>
      </trkpt>
      <trkpt lat="43.6333" lon="1.43314">
        <ele>141</ele>
        <time>2014-04-06T15:14:17.000Z</time>
      </trkpt>
      <trkpt lat="43.63332" lon="1.4332">
        <ele>140</ele>
        <time>2014-04-06T15:14:20.000Z</time>
      </trkpt>
      <trkpt lat="43.63332" lon="1.43321">
        <ele>140</ele>
        <time>2014-04-06T15:14:24.000Z</time>
      </trkpt>
      <trkpt lat="43.63334" lon="1.43323">
        <ele>140</ele>
        <time>2014-04-06T15:14:40.000Z</time>
      </trkpt>
      <trkpt lat="43.63334" lon="1.43326">
        <ele>140</ele>
        <time>2014-04-06T15:14:42.000Z</time>
      </trkpt>
      <trkpt lat="43.63336" lon="1.43332">
        <ele>140</ele>
        <time>2014-04-06T15:14:44.000Z</time>
      </trkpt>
      <trkpt lat="43.63338" lon="1.43341">
        <ele>140</ele>
        <time>2014-04-06T15:14:47.000Z</time>
      </trkpt>
      <trkpt lat="43.63338" lon="1.4335">
        <ele>140</ele>
        <time>2014-04-06T15:14:49.000Z</time>
      </trkpt>
      <trkpt lat="43.63338" lon="1.43362">
        <ele>140</ele>
        <time>2014-04-06T15:14:52.000Z</time>
      </trkpt>
      <trkpt lat="43.63339" lon="1.4337">
        <ele>139</ele>
        <time>2014-04-06T15:14:54.000Z</time>
      </trkpt>
      <trkpt lat="43.63339" lon="1.43385">
        <ele>139</ele>
        <time>2014-04-06T15:14:57.000Z</time>
      </trkpt>
      <trkpt lat="43.6334" lon="1.43398">
        <ele>139</ele>
        <time>2014-04-06T15:15:00.000Z</time>
      </trkpt>
      <trkpt lat="43.63341" lon="1.43411">
        <ele>138</ele>
        <time>2014-04-06T15:15:03.000Z</time>
      </trkpt>
      <trkpt lat="43.63341" lon="1.4342">
        <ele>138</ele>
        <time>2014-04-06T15:15:05.000Z</time>
      </trkpt>
      <trkpt lat="43.63344" lon="1.43435">
        <ele>138</ele>
        <time>2014-04-06T15:15:08.000Z</time>
      </trkpt>
      <trkpt lat="43.63346" lon="1.43445">
        <ele>138</ele>
        <time>2014-04-06T15:15:10.000Z</time>
      </trkpt>
      <trkpt lat="43.63346" lon="1.43461">
        <ele>138</ele>
        <time>2014-04-06T15:15:13.000Z</time>
      </trkpt>
      <trkpt lat="43.63345" lon="1.43475">
        <ele>138</ele>
        <time>2014-04-06T15:15:16.000Z</time>
      </trkpt>
      <trkpt lat="43.63346" lon="1.4349">
        <ele>138</ele>
        <time>2014-04-06T15:15:19.000Z</time>
      </trkpt>
      <trkpt lat="43.63345" lon="1.435">
        <ele>138</ele>
        <time>2014-04-06T15:15:21.000Z</time>
      </trkpt>
      <trkpt lat="43.63345" lon="1.43516">
        <ele>138</ele>
        <time>2014-04-06T15:15:24.000Z</time>
      </trkpt>
      <trkpt lat="43.63344" lon="1.4353">
        <ele>138</ele>
        <time>2014-04-06T15:15:27.000Z</time>
      </trkpt>
      <trkpt lat="43.63343" lon="1.4354">
        <ele>137</ele>
        <time>2014-04-06T15:15:29.000Z</time>
      </trkpt>
      <trkpt lat="43.63339" lon="1.4355">
        <ele>138</ele>
        <time>2014-04-06T15:15:32.000Z</time>
      </trkpt>
      <trkpt lat="43.63336" lon="1.43556">
        <ele>138</ele>
        <time>2014-04-06T15:15:34.000Z</time>
      </trkpt>
      <trkpt lat="43.6333" lon="1.43564">
        <ele>138</ele>
        <time>2014-04-06T15:15:37.000Z</time>
      </trkpt>
      <trkpt lat="43.63323" lon="1.43574">
        <ele>138</ele>
        <time>2014-04-06T15:15:40.000Z</time>
      </trkpt>
      <trkpt lat="43.63319" lon="1.43581">
        <ele>138</ele>
        <time>2014-04-06T15:15:42.000Z</time>
      </trkpt>
      <trkpt lat="43.63314" lon="1.43588">
        <ele>138</ele>
        <time>2014-04-06T15:15:45.000Z</time>
      </trkpt>
      <trkpt lat="43.63311" lon="1.43589">
        <ele>138</ele>
        <time>2014-04-06T15:15:47.000Z</time>
      </trkpt>
      <trkpt lat="43.63309" lon="1.43594">
        <ele>138</ele>
        <time>2014-04-06T15:15:49.000Z</time>
      </trkpt>
      <trkpt lat="43.63316" lon="1.43601">
        <ele>138</ele>
        <time>2014-04-06T15:15:52.000Z</time>
      </trkpt>
      <trkpt lat="43.63319" lon="1.43605">
        <ele>138</ele>
        <time>2014-04-06T15:15:54.000Z</time>
      </trkpt>
      <trkpt lat="43.63327" lon="1.43612">
        <ele>138</ele>
        <time>2014-04-06T15:15:57.000Z</time>
      </trkpt>
      <trkpt lat="43.63332" lon="1.43618">
        <ele>138</ele>
        <time>2014-04-06T15:15:59.000Z</time>
      </trkpt>
      <trkpt lat="43.63337" lon="1.43627">
        <ele>138</ele>
        <time>2014-04-06T15:16:01.000Z</time>
      </trkpt>
      <trkpt lat="43.63345" lon="1.4364">
        <ele>138</ele>
        <time>2014-04-06T15:16:04.000Z</time>
      </trkpt>
      <trkpt lat="43.6335" lon="1.43647">
        <ele>138</ele>
        <time>2014-04-06T15:16:06.000Z</time>
      </trkpt>
      <trkpt lat="43.63359" lon="1.43659">
        <ele>138</ele>
        <time>2014-04-06T15:16:09.000Z</time>
      </trkpt>
      <trkpt lat="43.63366" lon="1.43671">
        <ele>138</ele>
        <time>2014-04-06T15:16:12.000Z</time>
      </trkpt>
      <trkpt lat="43.63375" lon="1.43681">
        <ele>138</ele>
        <time>2014-04-06T15:16:15.000Z</time>
      </trkpt>
      <trkpt lat="43.63379" lon="1.43693">
        <ele>138</ele>
        <time>2014-04-06T15:16:18.000Z</time>
      </trkpt>
      <trkpt lat="43.63379" lon="1.43702">
        <ele>138</ele>
        <time>2014-04-06T15:16:20.000Z</time>
      </trkpt>
      <trkpt lat="43.6338" lon="1.43714">
        <ele>138</ele>
        <time>2014-04-06T15:16:23.000Z</time>
      </trkpt>
      <trkpt lat="43.6338" lon="1.43723">
        <ele>138</ele>
        <time>2014-04-06T15:16:25.000Z</time>
      </trkpt>
      <trkpt lat="43.63377" lon="1.43738">
        <ele>138</ele>
        <time>2014-04-06T15:16:28.000Z</time>
      </trkpt>
      <trkpt lat="43.63377" lon="1.43753">
        <ele>138</ele>
        <time>2014-04-06T15:16:31.000Z</time>
      </trkpt>
      <trkpt lat="43.63376" lon="1.43763">
        <ele>138</ele>
        <time>2014-04-06T15:16:33.000Z</time>
      </trkpt>
      <trkpt lat="43.63375" lon="1.43772">
        <ele>138</ele>
        <time>2014-04-06T15:16:35.000Z</time>
      </trkpt>
      <trkpt lat="43.63375" lon="1.43781">
        <ele>137</ele>
        <time>2014-04-06T15:16:37.000Z</time>
      </trkpt>
      <trkpt lat="43.63376" lon="1.4379">
        <ele>137</ele>
        <time>2014-04-06T15:16:39.000Z</time>
      </trkpt>
      <trkpt lat="43.63377" lon="1.43805">
        <ele>137</ele>
        <time>2014-04-06T15:16:42.000Z</time>
      </trkpt>
      <trkpt lat="43.63377" lon="1.43813">
        <ele>137</ele>
        <time>2014-04-06T15:16:44.000Z</time>
      </trkpt>
      <trkpt lat="43.63378" lon="1.43818">
        <ele>137</ele>
        <time>2014-04-06T15:16:47.000Z</time>
      </trkpt>
      <trkpt lat="43.63378" lon="1.43821">
        <ele>137</ele>
        <time>2014-04-06T15:16:50.000Z</time>
      </trkpt>
      <trkpt lat="43.63378" lon="1.43821">
        <ele>137</ele>
        <time>2014-04-06T15:17:10.000Z</time>
      </trkpt>
      <trkpt lat="43.63377" lon="1.43822">
        <ele>137</ele>
        <time>2014-04-06T15:17:11.000Z</time>
      </trkpt>
      <trkpt lat="43.63377" lon="1.43825">
        <ele>137</ele>
        <time>2014-04-06T15:17:13.000Z</time>
      </trkpt>
      <trkpt lat="43.63377" lon="1.43834">
        <ele>137</ele>
        <time>2014-04-06T15:17:16.000Z</time>
      </trkpt>
      <trkpt lat="43.63378" lon="1.43842">
        <ele>137</ele>
        <time>2014-04-06T15:17:18.000Z</time>
      </trkpt>
      <trkpt lat="43.63375" lon="1.43853">
        <ele>137</ele>
        <time>2014-04-06T15:17:21.000Z</time>
      </trkpt>
      <trkpt lat="43.63367" lon="1.43859">
        <ele>137</ele>
        <time>2014-04-06T15:17:24.000Z</time>
      </trkpt>
      <trkpt lat="43.63358" lon="1.43862">
        <ele>137</ele>
        <time>2014-04-06T15:17:27.000Z</time>
      </trkpt>
      <trkpt lat="43.63351" lon="1.43864">
        <ele>137</ele>
        <time>2014-04-06T15:17:29.000Z</time>
      </trkpt>
      <trkpt lat="43.63342" lon="1.43865">
        <ele>137</ele>
        <time>2014-04-06T15:17:32.000Z</time>
      </trkpt>
      <trkpt lat="43.63334" lon="1.43865">
        <ele>137</ele>
        <time>2014-04-06T15:17:34.000Z</time>
      </trkpt>
      <trkpt lat="43.63327" lon="1.43863">
        <ele>138</ele>
        <time>2014-04-06T15:17:36.000Z</time>
      </trkpt>
      <trkpt lat="43.63316" lon="1.4386">
        <ele>138</ele>
        <time>2014-04-06T15:17:39.000Z</time>
      </trkpt>
      <trkpt lat="43.63305" lon="1.43856">
        <ele>138</ele>
        <time>2014-04-06T15:17:42.000Z</time>
      </trkpt>
      <trkpt lat="43.63298" lon="1.43854">
        <ele>138</ele>
        <time>2014-04-06T15:17:44.000Z</time>
      </trkpt>
      <trkpt lat="43.63289" lon="1.43853">
        <ele>138</ele>
        <time>2014-04-06T15:17:46.000Z</time>
      </trkpt>
      <trkpt lat="43.63276" lon="1.43852">
        <ele>138</ele>
        <time>2014-04-06T15:17:49.000Z</time>
      </trkpt>
      <trkpt lat="43.63269" lon="1.4385">
        <ele>138</ele>
        <time>2014-04-06T15:17:51.000Z</time>
      </trkpt>
      <trkpt lat="43.63262" lon="1.43848">
        <ele>138</ele>
        <time>2014-04-06T15:17:53.000Z</time>
      </trkpt>
      <trkpt lat="43.63255" lon="1.43847">
        <ele>138</ele>
        <time>2014-04-06T15:17:55.000Z</time>
      </trkpt>
      <trkpt lat="43.63243" lon="1.43846">
        <ele>139</ele>
        <time>2014-04-06T15:17:58.000Z</time>
      </trkpt>
      <trkpt lat="43.63231" lon="1.43842">
        <ele>139</ele>
        <time>2014-04-06T15:18:01.000Z</time>
      </trkpt>
      <trkpt lat="43.63217" lon="1.43835">
        <ele>139</ele>
        <time>2014-04-06T15:18:04.000Z</time>
      </trkpt>
      <trkpt lat="43.63203" lon="1.43833">
        <ele>139</ele>
        <time>2014-04-06T15:18:07.000Z</time>
      </trkpt>
      <trkpt lat="43.63192" lon="1.4383">
        <ele>140</ele>
        <time>2014-04-06T15:18:10.000Z</time>
      </trkpt>
      <trkpt lat="43.63179" lon="1.43826">
        <ele>140</ele>
        <time>2014-04-06T15:18:13.000Z</time>
      </trkpt>
      <trkpt lat="43.63166" lon="1.43822">
        <ele>141</ele>
        <time>2014-04-06T15:18:16.000Z</time>
      </trkpt>
      <trkpt lat="43.63158" lon="1.4382">
        <ele>141</ele>
        <time>2014-04-06T15:18:18.000Z</time>
      </trkpt>
      <trkpt lat="43.63149" lon="1.43818">
        <ele>141</ele>
        <time>2014-04-06T15:18:20.000Z</time>
      </trkpt>
      <trkpt lat="43.63141" lon="1.43816">
        <ele>140</ele>
        <time>2014-04-06T15:18:22.000Z</time>
      </trkpt>
      <trkpt lat="43.63129" lon="1.43814">
        <ele>140</ele>
        <time>2014-04-06T15:18:25.000Z</time>
      </trkpt>
      <trkpt lat="43.6312" lon="1.4381">
        <ele>140</ele>
        <time>2014-04-06T15:18:28.000Z</time>
      </trkpt>
      <trkpt lat="43.63116" lon="1.43797">
        <ele>140</ele>
        <time>2014-04-06T15:18:31.000Z</time>
      </trkpt>
      <trkpt lat="43.63119" lon="1.43781">
        <ele>140</ele>
        <time>2014-04-06T15:18:34.000Z</time>
      </trkpt>
      <trkpt lat="43.63122" lon="1.43767">
        <ele>140</ele>
        <time>2014-04-06T15:18:37.000Z</time>
      </trkpt>
      <trkpt lat="43.63124" lon="1.43751">
        <ele>140</ele>
        <time>2014-04-06T15:18:40.000Z</time>
      </trkpt>
      <trkpt lat="43.63125" lon="1.4374">
        <ele>140</ele>
        <time>2014-04-06T15:18:42.000Z</time>
      </trkpt>
      <trkpt lat="43.63126" lon="1.43724">
        <ele>140</ele>
        <time>2014-04-06T15:18:45.000Z</time>
      </trkpt>
      <trkpt lat="43.63128" lon="1.43709">
        <ele>140</ele>
        <time>2014-04-06T15:18:48.000Z</time>
      </trkpt>
      <trkpt lat="43.63129" lon="1.43703">
        <ele>140</ele>
        <time>2014-04-06T15:18:50.000Z</time>
      </trkpt>
      <trkpt lat="43.63131" lon="1.43695">
        <ele>140</ele>
        <time>2014-04-06T15:18:53.000Z</time>
      </trkpt>
      <trkpt lat="43.63129" lon="1.43684">
        <ele>140</ele>
        <time>2014-04-06T15:18:57.000Z</time>
      </trkpt>
      <trkpt lat="43.63123" lon="1.43684">
        <ele>140</ele>
        <time>2014-04-06T15:19:00.000Z</time>
      </trkpt>
      <trkpt lat="43.63107" lon="1.43682">
        <ele>140</ele>
        <time>2014-04-06T15:19:06.000Z</time>
      </trkpt>
      <trkpt lat="43.63092" lon="1.43677">
        <ele>140</ele>
        <time>2014-04-06T15:19:13.000Z</time>
      </trkpt>
      <trkpt lat="43.6309" lon="1.43669">
        <ele>140</ele>
        <time>2014-04-06T15:19:16.000Z</time>
      </trkpt>
      <trkpt lat="43.6309" lon="1.43663">
        <ele>140</ele>
        <time>2014-04-06T15:19:18.000Z</time>
      </trkpt>
      <trkpt lat="43.63094" lon="1.43655">
        <ele>140</ele>
        <time>2014-04-06T15:19:21.000Z</time>
      </trkpt>
      <trkpt lat="43.63096" lon="1.43649">
        <ele>140</ele>
        <time>2014-04-06T15:19:23.000Z</time>
      </trkpt>
      <trkpt lat="43.63098" lon="1.43641">
        <ele>140</ele>
        <time>2014-04-06T15:19:26.000Z</time>
      </trkpt>
      <trkpt lat="43.631" lon="1.43632">
        <ele>140</ele>
        <time>2014-04-06T15:19:29.000Z</time>
      </trkpt>
      <trkpt lat="43.63079" lon="1.43625">
        <ele>140</ele>
        <time>2014-04-06T15:19:37.000Z</time>
      </trkpt>
      <trkpt lat="43.63073" lon="1.43629">
        <ele>140</ele>
        <time>2014-04-06T15:19:41.000Z</time>
      </trkpt>
      <trkpt lat="43.63066" lon="1.43622">
        <ele>140</ele>
        <time>2014-04-06T15:19:47.000Z</time>
      </trkpt>
      <trkpt lat="43.63057" lon="1.43618">
        <ele>140</ele>
        <time>2014-04-06T15:19:53.000Z</time>
      </trkpt>
      <trkpt lat="43.63059" lon="1.43624">
        <ele>140</ele>
        <time>2014-04-06T15:19:59.000Z</time>
      </trkpt>
      <trkpt lat="43.6307" lon="1.43646">
        <ele>140</ele>
        <time>2014-04-06T15:20:13.000Z</time>
      </trkpt>
      <trkpt lat="43.6307" lon="1.43653">
        <ele>140</ele>
        <time>2014-04-06T15:20:19.000Z</time>
      </trkpt>
      <trkpt lat="43.6307" lon="1.43655">
        <ele>140</ele>
        <time>2014-04-06T15:20:27.000Z</time>
      </trkpt>
      <trkpt lat="43.6307" lon="1.4365">
        <ele>140</ele>
        <time>2014-04-06T15:20:35.000Z</time>
      </trkpt>
      <trkpt lat="43.6307" lon="1.43656">
        <ele>140</ele>
        <time>2014-04-06T15:20:38.000Z</time>
      </trkpt>
      <trkpt lat="43.63066" lon="1.4363">
        <ele>140</ele>
        <time>2014-04-06T15:21:14.000Z</time>
      </trkpt>
      <trkpt lat="43.63066" lon="1.4363">
        <ele>140</ele>
        <time>2014-04-06T15:21:21.000Z</time>
      </trkpt>
    </trkseg>
  </trk>
</gpx>